<?xml version="1.0" encoding="UTF-8" standalone="no" ?>
<gpx xmlns="http://www.topografix.com/GPX/1/1" xmlns:xsi="http://www.w3.org/2001/XMLSchema-instance" xsi:schemaLocation="http://www.topografix.com/GPX/1/1 http://www.topografix.com/GPX/1/1/gpx.xsd" version="1.1" creator="VisuGPX - https://www.visugpx.com">
  <metadata>
    <name>Pic de MAssayre</name>
    <desc><![CDATA[Pic de Massayre - Cabane des Ludines - Barrage de Riete
]]></desc>
  </metadata>
  <trk>
    <name><![CDATA[Morning Activity]]></name>
    <trkseg>
      <trkpt lat="42.7033" lon="1.63264">
        <ele>1629.5</ele>
        <time>2020-02-09T09:23:53Z</time>
      </trkpt>
      <trkpt lat="42.7033" lon="1.63264">
        <ele>1629.5</ele>
        <time>2020-02-09T09:23:54Z</time>
      </trkpt>
      <trkpt lat="42.70336" lon="1.63273">
        <ele>1628.7</ele>
        <time>2020-02-09T09:24:04Z</time>
      </trkpt>
      <trkpt lat="42.70336" lon="1.63273">
        <ele>1628.7</ele>
        <time>2020-02-09T09:24:11Z</time>
      </trkpt>
      <trkpt lat="42.70343" lon="1.63282">
        <ele>1628</ele>
        <time>2020-02-09T09:24:14Z</time>
      </trkpt>
      <trkpt lat="42.70343" lon="1.63282">
        <ele>1628</ele>
        <time>2020-02-09T09:24:21Z</time>
      </trkpt>
      <trkpt lat="42.70336" lon="1.63284">
        <ele>1627.8</ele>
        <time>2020-02-09T09:24:30Z</time>
      </trkpt>
      <trkpt lat="42.70336" lon="1.63284">
        <ele>1627.8</ele>
        <time>2020-02-09T09:24:31Z</time>
      </trkpt>
      <trkpt lat="42.70337" lon="1.63287">
        <ele>1627.3</ele>
        <time>2020-02-09T09:24:36Z</time>
      </trkpt>
      <trkpt lat="42.70338" lon="1.63289">
        <ele>1626.9</ele>
        <time>2020-02-09T09:24:39Z</time>
      </trkpt>
      <trkpt lat="42.70339" lon="1.63292">
        <ele>1626.9</ele>
        <time>2020-02-09T09:24:41Z</time>
      </trkpt>
      <trkpt lat="42.70339" lon="1.63296">
        <ele>1626.5</ele>
        <time>2020-02-09T09:24:45Z</time>
      </trkpt>
      <trkpt lat="42.70339" lon="1.63296">
        <ele>1626.5</ele>
        <time>2020-02-09T09:24:51Z</time>
      </trkpt>
      <trkpt lat="42.7034" lon="1.63306">
        <ele>1625.1</ele>
        <time>2020-02-09T09:24:54Z</time>
      </trkpt>
      <trkpt lat="42.70338" lon="1.63312">
        <ele>1624.4</ele>
        <time>2020-02-09T09:25:01Z</time>
      </trkpt>
      <trkpt lat="42.70335" lon="1.63315">
        <ele>1624</ele>
        <time>2020-02-09T09:25:05Z</time>
      </trkpt>
      <trkpt lat="42.70335" lon="1.63318">
        <ele>1623.7</ele>
        <time>2020-02-09T09:25:07Z</time>
      </trkpt>
      <trkpt lat="42.70335" lon="1.63322">
        <ele>1623.5</ele>
        <time>2020-02-09T09:25:11Z</time>
      </trkpt>
      <trkpt lat="42.70335" lon="1.63324">
        <ele>1623.1</ele>
        <time>2020-02-09T09:25:14Z</time>
      </trkpt>
      <trkpt lat="42.70336" lon="1.63326">
        <ele>1623.1</ele>
        <time>2020-02-09T09:25:15Z</time>
      </trkpt>
      <trkpt lat="42.70336" lon="1.63326">
        <ele>1623.1</ele>
        <time>2020-02-09T09:25:21Z</time>
      </trkpt>
      <trkpt lat="42.70342" lon="1.63337">
        <ele>1622.6</ele>
        <time>2020-02-09T09:25:27Z</time>
      </trkpt>
      <trkpt lat="42.70342" lon="1.63337">
        <ele>1622.6</ele>
        <time>2020-02-09T09:25:31Z</time>
      </trkpt>
      <trkpt lat="42.70345" lon="1.63347">
        <ele>1622.3</ele>
        <time>2020-02-09T09:25:35Z</time>
      </trkpt>
      <trkpt lat="42.70346" lon="1.63352">
        <ele>1622</ele>
        <time>2020-02-09T09:25:39Z</time>
      </trkpt>
      <trkpt lat="42.70346" lon="1.63352">
        <ele>1622</ele>
        <time>2020-02-09T09:25:41Z</time>
      </trkpt>
      <trkpt lat="42.70346" lon="1.63356">
        <ele>1621.7</ele>
        <time>2020-02-09T09:25:42Z</time>
      </trkpt>
      <trkpt lat="42.70346" lon="1.6336">
        <ele>1621.5</ele>
        <time>2020-02-09T09:25:45Z</time>
      </trkpt>
      <trkpt lat="42.70346" lon="1.6336">
        <ele>1621.5</ele>
        <time>2020-02-09T09:25:51Z</time>
      </trkpt>
      <trkpt lat="42.70344" lon="1.63369">
        <ele>1620.6</ele>
        <time>2020-02-09T09:25:53Z</time>
      </trkpt>
      <trkpt lat="42.70344" lon="1.63369">
        <ele>1620.6</ele>
        <time>2020-02-09T09:26:01Z</time>
      </trkpt>
      <trkpt lat="42.70338" lon="1.63379">
        <ele>1619.3</ele>
        <time>2020-02-09T09:26:04Z</time>
      </trkpt>
      <trkpt lat="42.70338" lon="1.63382">
        <ele>1619.3</ele>
        <time>2020-02-09T09:26:06Z</time>
      </trkpt>
      <trkpt lat="42.70338" lon="1.63382">
        <ele>1619.3</ele>
        <time>2020-02-09T09:26:11Z</time>
      </trkpt>
      <trkpt lat="42.70338" lon="1.63391">
        <ele>1619</ele>
        <time>2020-02-09T09:26:12Z</time>
      </trkpt>
      <trkpt lat="42.70336" lon="1.63394">
        <ele>1618.9</ele>
        <time>2020-02-09T09:26:16Z</time>
      </trkpt>
      <trkpt lat="42.70336" lon="1.63394">
        <ele>1618.9</ele>
        <time>2020-02-09T09:26:21Z</time>
      </trkpt>
      <trkpt lat="42.70326" lon="1.63403">
        <ele>1617.4</ele>
        <time>2020-02-09T09:26:23Z</time>
      </trkpt>
      <trkpt lat="42.70319" lon="1.63413">
        <ele>1616.7</ele>
        <time>2020-02-09T09:26:27Z</time>
      </trkpt>
      <trkpt lat="42.70319" lon="1.63413">
        <ele>1616.7</ele>
        <time>2020-02-09T09:26:31Z</time>
      </trkpt>
      <trkpt lat="42.70317" lon="1.63423">
        <ele>1616.4</ele>
        <time>2020-02-09T09:26:35Z</time>
      </trkpt>
      <trkpt lat="42.70315" lon="1.63426">
        <ele>1616.2</ele>
        <time>2020-02-09T09:26:38Z</time>
      </trkpt>
      <trkpt lat="42.70315" lon="1.63426">
        <ele>1616.2</ele>
        <time>2020-02-09T09:26:41Z</time>
      </trkpt>
      <trkpt lat="42.70311" lon="1.63431">
        <ele>1616</ele>
        <time>2020-02-09T09:26:43Z</time>
      </trkpt>
      <trkpt lat="42.7031" lon="1.63432">
        <ele>1616</ele>
        <time>2020-02-09T09:26:46Z</time>
      </trkpt>
      <trkpt lat="42.70309" lon="1.63433">
        <ele>1615.9</ele>
        <time>2020-02-09T09:26:50Z</time>
      </trkpt>
      <trkpt lat="42.70309" lon="1.63435">
        <ele>1615.9</ele>
        <time>2020-02-09T09:26:51Z</time>
      </trkpt>
      <trkpt lat="42.70307" lon="1.63437">
        <ele>1615.9</ele>
        <time>2020-02-09T09:26:52Z</time>
      </trkpt>
      <trkpt lat="42.70304" lon="1.6344">
        <ele>1615.7</ele>
        <time>2020-02-09T09:26:59Z</time>
      </trkpt>
      <trkpt lat="42.70304" lon="1.6344">
        <ele>1615.7</ele>
        <time>2020-02-09T09:27:01Z</time>
      </trkpt>
      <trkpt lat="42.70304" lon="1.63442">
        <ele>1615.7</ele>
        <time>2020-02-09T09:27:03Z</time>
      </trkpt>
      <trkpt lat="42.70304" lon="1.63442">
        <ele>1615.7</ele>
        <time>2020-02-09T09:27:11Z</time>
      </trkpt>
      <trkpt lat="42.70303" lon="1.63456">
        <ele>1615.4</ele>
        <time>2020-02-09T09:27:15Z</time>
      </trkpt>
      <trkpt lat="42.70303" lon="1.6346">
        <ele>1615.3</ele>
        <time>2020-02-09T09:27:19Z</time>
      </trkpt>
      <trkpt lat="42.70303" lon="1.6346">
        <ele>1615.3</ele>
        <time>2020-02-09T09:27:21Z</time>
      </trkpt>
      <trkpt lat="42.70304" lon="1.63466">
        <ele>1615.1</ele>
        <time>2020-02-09T09:27:24Z</time>
      </trkpt>
      <trkpt lat="42.70304" lon="1.63469">
        <ele>1615</ele>
        <time>2020-02-09T09:27:26Z</time>
      </trkpt>
      <trkpt lat="42.70305" lon="1.63471">
        <ele>1615</ele>
        <time>2020-02-09T09:27:28Z</time>
      </trkpt>
      <trkpt lat="42.70305" lon="1.63471">
        <ele>1615</ele>
        <time>2020-02-09T09:27:31Z</time>
      </trkpt>
      <trkpt lat="42.70307" lon="1.63477">
        <ele>1615</ele>
        <time>2020-02-09T09:27:32Z</time>
      </trkpt>
      <trkpt lat="42.70308" lon="1.63482">
        <ele>1614.7</ele>
        <time>2020-02-09T09:27:36Z</time>
      </trkpt>
      <trkpt lat="42.70308" lon="1.63482">
        <ele>1614.7</ele>
        <time>2020-02-09T09:27:41Z</time>
      </trkpt>
      <trkpt lat="42.70309" lon="1.63489">
        <ele>1614.5</ele>
        <time>2020-02-09T09:27:42Z</time>
      </trkpt>
      <trkpt lat="42.7031" lon="1.63492">
        <ele>1614.6</ele>
        <time>2020-02-09T09:27:44Z</time>
      </trkpt>
      <trkpt lat="42.7031" lon="1.63498">
        <ele>1614.4</ele>
        <time>2020-02-09T09:27:49Z</time>
      </trkpt>
      <trkpt lat="42.7031" lon="1.63498">
        <ele>1614.4</ele>
        <time>2020-02-09T09:27:51Z</time>
      </trkpt>
      <trkpt lat="42.7031" lon="1.63506">
        <ele>1614.1</ele>
        <time>2020-02-09T09:27:55Z</time>
      </trkpt>
      <trkpt lat="42.7031" lon="1.63511">
        <ele>1614</ele>
        <time>2020-02-09T09:27:59Z</time>
      </trkpt>
      <trkpt lat="42.7031" lon="1.63511">
        <ele>1614</ele>
        <time>2020-02-09T09:28:01Z</time>
      </trkpt>
      <trkpt lat="42.70309" lon="1.63517">
        <ele>1613.4</ele>
        <time>2020-02-09T09:28:04Z</time>
      </trkpt>
      <trkpt lat="42.70309" lon="1.63517">
        <ele>1613.4</ele>
        <time>2020-02-09T09:28:11Z</time>
      </trkpt>
      <trkpt lat="42.70309" lon="1.63528">
        <ele>1613</ele>
        <time>2020-02-09T09:28:12Z</time>
      </trkpt>
      <trkpt lat="42.70302" lon="1.63539">
        <ele>1611.9</ele>
        <time>2020-02-09T09:28:16Z</time>
      </trkpt>
      <trkpt lat="42.70302" lon="1.63539">
        <ele>1611.9</ele>
        <time>2020-02-09T09:28:21Z</time>
      </trkpt>
      <trkpt lat="42.70299" lon="1.63548">
        <ele>1611.2</ele>
        <time>2020-02-09T09:28:22Z</time>
      </trkpt>
      <trkpt lat="42.70298" lon="1.63551">
        <ele>1611</ele>
        <time>2020-02-09T09:28:24Z</time>
      </trkpt>
      <trkpt lat="42.70296" lon="1.63554">
        <ele>1610.9</ele>
        <time>2020-02-09T09:28:30Z</time>
      </trkpt>
      <trkpt lat="42.70294" lon="1.63557">
        <ele>1610.6</ele>
        <time>2020-02-09T09:28:31Z</time>
      </trkpt>
      <trkpt lat="42.70293" lon="1.63563">
        <ele>1610.3</ele>
        <time>2020-02-09T09:28:34Z</time>
      </trkpt>
      <trkpt lat="42.70293" lon="1.63565">
        <ele>1610.1</ele>
        <time>2020-02-09T09:28:37Z</time>
      </trkpt>
      <trkpt lat="42.70292" lon="1.63567">
        <ele>1610.1</ele>
        <time>2020-02-09T09:28:40Z</time>
      </trkpt>
      <trkpt lat="42.70292" lon="1.63569">
        <ele>1609.9</ele>
        <time>2020-02-09T09:28:41Z</time>
      </trkpt>
      <trkpt lat="42.70291" lon="1.63573">
        <ele>1609.8</ele>
        <time>2020-02-09T09:28:44Z</time>
      </trkpt>
      <trkpt lat="42.70291" lon="1.63575">
        <ele>1609.8</ele>
        <time>2020-02-09T09:28:46Z</time>
      </trkpt>
      <trkpt lat="42.70291" lon="1.63576">
        <ele>1609.6</ele>
        <time>2020-02-09T09:28:49Z</time>
      </trkpt>
      <trkpt lat="42.70291" lon="1.63578">
        <ele>1609.6</ele>
        <time>2020-02-09T09:28:50Z</time>
      </trkpt>
      <trkpt lat="42.70291" lon="1.63579">
        <ele>1609.6</ele>
        <time>2020-02-09T09:28:51Z</time>
      </trkpt>
      <trkpt lat="42.7029" lon="1.63587">
        <ele>1609.3</ele>
        <time>2020-02-09T09:28:55Z</time>
      </trkpt>
      <trkpt lat="42.70289" lon="1.63589">
        <ele>1609.3</ele>
        <time>2020-02-09T09:28:58Z</time>
      </trkpt>
      <trkpt lat="42.70289" lon="1.6359">
        <ele>1609.2</ele>
        <time>2020-02-09T09:29:00Z</time>
      </trkpt>
      <trkpt lat="42.70288" lon="1.63591">
        <ele>1609.2</ele>
        <time>2020-02-09T09:29:01Z</time>
      </trkpt>
      <trkpt lat="42.70287" lon="1.63596">
        <ele>1609</ele>
        <time>2020-02-09T09:29:03Z</time>
      </trkpt>
      <trkpt lat="42.70287" lon="1.63598">
        <ele>1608.8</ele>
        <time>2020-02-09T09:29:06Z</time>
      </trkpt>
      <trkpt lat="42.70286" lon="1.636">
        <ele>1608.8</ele>
        <time>2020-02-09T09:29:10Z</time>
      </trkpt>
      <trkpt lat="42.70286" lon="1.63603">
        <ele>1608.6</ele>
        <time>2020-02-09T09:29:11Z</time>
      </trkpt>
      <trkpt lat="42.70286" lon="1.63605">
        <ele>1608.6</ele>
        <time>2020-02-09T09:29:13Z</time>
      </trkpt>
      <trkpt lat="42.70285" lon="1.63609">
        <ele>1608.4</ele>
        <time>2020-02-09T09:29:16Z</time>
      </trkpt>
      <trkpt lat="42.70284" lon="1.63612">
        <ele>1608.2</ele>
        <time>2020-02-09T09:29:17Z</time>
      </trkpt>
      <trkpt lat="42.70283" lon="1.63615">
        <ele>1608</ele>
        <time>2020-02-09T09:29:21Z</time>
      </trkpt>
      <trkpt lat="42.70283" lon="1.63625">
        <ele>1607.6</ele>
        <time>2020-02-09T09:29:27Z</time>
      </trkpt>
      <trkpt lat="42.70283" lon="1.63625">
        <ele>1607.6</ele>
        <time>2020-02-09T09:29:31Z</time>
      </trkpt>
      <trkpt lat="42.70282" lon="1.63631">
        <ele>1607.3</ele>
        <time>2020-02-09T09:29:32Z</time>
      </trkpt>
      <trkpt lat="42.70283" lon="1.63634">
        <ele>1607.1</ele>
        <time>2020-02-09T09:29:37Z</time>
      </trkpt>
      <trkpt lat="42.70283" lon="1.6364">
        <ele>1606.9</ele>
        <time>2020-02-09T09:29:41Z</time>
      </trkpt>
      <trkpt lat="42.70283" lon="1.63644">
        <ele>1606.7</ele>
        <time>2020-02-09T09:29:45Z</time>
      </trkpt>
      <trkpt lat="42.70282" lon="1.6365">
        <ele>1606.3</ele>
        <time>2020-02-09T09:29:49Z</time>
      </trkpt>
      <trkpt lat="42.70282" lon="1.6365">
        <ele>1606.3</ele>
        <time>2020-02-09T09:29:51Z</time>
      </trkpt>
      <trkpt lat="42.7028" lon="1.63655">
        <ele>1606.2</ele>
        <time>2020-02-09T09:29:52Z</time>
      </trkpt>
      <trkpt lat="42.70281" lon="1.63661">
        <ele>1606</ele>
        <time>2020-02-09T09:29:57Z</time>
      </trkpt>
      <trkpt lat="42.70282" lon="1.63667">
        <ele>1605.7</ele>
        <time>2020-02-09T09:30:01Z</time>
      </trkpt>
      <trkpt lat="42.70281" lon="1.63672">
        <ele>1605.5</ele>
        <time>2020-02-09T09:30:05Z</time>
      </trkpt>
      <trkpt lat="42.7028" lon="1.63675">
        <ele>1605.4</ele>
        <time>2020-02-09T09:30:08Z</time>
      </trkpt>
      <trkpt lat="42.70279" lon="1.6368">
        <ele>1605.4</ele>
        <time>2020-02-09T09:30:11Z</time>
      </trkpt>
      <trkpt lat="42.70277" lon="1.63696">
        <ele>1605.3</ele>
        <time>2020-02-09T09:30:21Z</time>
      </trkpt>
      <trkpt lat="42.70278" lon="1.63699">
        <ele>1605.3</ele>
        <time>2020-02-09T09:30:23Z</time>
      </trkpt>
      <trkpt lat="42.70278" lon="1.63702">
        <ele>1605.3</ele>
        <time>2020-02-09T09:30:29Z</time>
      </trkpt>
      <trkpt lat="42.70278" lon="1.63705">
        <ele>1605.3</ele>
        <time>2020-02-09T09:30:31Z</time>
      </trkpt>
      <trkpt lat="42.70279" lon="1.63713">
        <ele>1605.1</ele>
        <time>2020-02-09T09:30:38Z</time>
      </trkpt>
      <trkpt lat="42.70279" lon="1.63713">
        <ele>1605.1</ele>
        <time>2020-02-09T09:30:41Z</time>
      </trkpt>
      <trkpt lat="42.70281" lon="1.63717">
        <ele>1605.1</ele>
        <time>2020-02-09T09:30:42Z</time>
      </trkpt>
      <trkpt lat="42.70281" lon="1.63722">
        <ele>1605</ele>
        <time>2020-02-09T09:30:46Z</time>
      </trkpt>
      <trkpt lat="42.70279" lon="1.63724">
        <ele>1604.9</ele>
        <time>2020-02-09T09:30:48Z</time>
      </trkpt>
      <trkpt lat="42.70278" lon="1.63725">
        <ele>1605.1</ele>
        <time>2020-02-09T09:30:51Z</time>
      </trkpt>
      <trkpt lat="42.70276" lon="1.63728">
        <ele>1605</ele>
        <time>2020-02-09T09:31:01Z</time>
      </trkpt>
      <trkpt lat="42.70275" lon="1.6373">
        <ele>1605.2</ele>
        <time>2020-02-09T09:31:03Z</time>
      </trkpt>
      <trkpt lat="42.70273" lon="1.63733">
        <ele>1605.1</ele>
        <time>2020-02-09T09:31:06Z</time>
      </trkpt>
      <trkpt lat="42.70272" lon="1.63736">
        <ele>1605</ele>
        <time>2020-02-09T09:31:10Z</time>
      </trkpt>
      <trkpt lat="42.70271" lon="1.63739">
        <ele>1605.2</ele>
        <time>2020-02-09T09:31:11Z</time>
      </trkpt>
      <trkpt lat="42.70269" lon="1.63744">
        <ele>1605</ele>
        <time>2020-02-09T09:31:15Z</time>
      </trkpt>
      <trkpt lat="42.70269" lon="1.63745">
        <ele>1605</ele>
        <time>2020-02-09T09:31:17Z</time>
      </trkpt>
      <trkpt lat="42.70269" lon="1.63747">
        <ele>1605.2</ele>
        <time>2020-02-09T09:31:20Z</time>
      </trkpt>
      <trkpt lat="42.70268" lon="1.63748">
        <ele>1605.1</ele>
        <time>2020-02-09T09:31:21Z</time>
      </trkpt>
      <trkpt lat="42.70269" lon="1.63752">
        <ele>1604.8</ele>
        <time>2020-02-09T09:31:24Z</time>
      </trkpt>
      <trkpt lat="42.7027" lon="1.63757">
        <ele>1604.7</ele>
        <time>2020-02-09T09:31:29Z</time>
      </trkpt>
      <trkpt lat="42.7027" lon="1.63757">
        <ele>1604.7</ele>
        <time>2020-02-09T09:31:31Z</time>
      </trkpt>
      <trkpt lat="42.70271" lon="1.63759">
        <ele>1604.7</ele>
        <time>2020-02-09T09:31:32Z</time>
      </trkpt>
      <trkpt lat="42.70272" lon="1.63762">
        <ele>1604.7</ele>
        <time>2020-02-09T09:31:36Z</time>
      </trkpt>
      <trkpt lat="42.70273" lon="1.63765">
        <ele>1604.4</ele>
        <time>2020-02-09T09:31:39Z</time>
      </trkpt>
      <trkpt lat="42.70273" lon="1.63765">
        <ele>1604.4</ele>
        <time>2020-02-09T09:31:41Z</time>
      </trkpt>
      <trkpt lat="42.70276" lon="1.63768">
        <ele>1604.3</ele>
        <time>2020-02-09T09:31:43Z</time>
      </trkpt>
      <trkpt lat="42.70276" lon="1.6377">
        <ele>1604.3</ele>
        <time>2020-02-09T09:31:46Z</time>
      </trkpt>
      <trkpt lat="42.70277" lon="1.63771">
        <ele>1604.3</ele>
        <time>2020-02-09T09:31:50Z</time>
      </trkpt>
      <trkpt lat="42.70278" lon="1.63772">
        <ele>1604.3</ele>
        <time>2020-02-09T09:31:51Z</time>
      </trkpt>
      <trkpt lat="42.70279" lon="1.63777">
        <ele>1604.3</ele>
        <time>2020-02-09T09:31:54Z</time>
      </trkpt>
      <trkpt lat="42.70279" lon="1.63778">
        <ele>1604.3</ele>
        <time>2020-02-09T09:32:00Z</time>
      </trkpt>
      <trkpt lat="42.70279" lon="1.6378">
        <ele>1604.3</ele>
        <time>2020-02-09T09:32:01Z</time>
      </trkpt>
      <trkpt lat="42.7028" lon="1.63782">
        <ele>1604.3</ele>
        <time>2020-02-09T09:32:03Z</time>
      </trkpt>
      <trkpt lat="42.70283" lon="1.63786">
        <ele>1604.3</ele>
        <time>2020-02-09T09:32:08Z</time>
      </trkpt>
      <trkpt lat="42.70283" lon="1.63786">
        <ele>1604.3</ele>
        <time>2020-02-09T09:32:11Z</time>
      </trkpt>
      <trkpt lat="42.70283" lon="1.63788">
        <ele>1604.4</ele>
        <time>2020-02-09T09:32:21Z</time>
      </trkpt>
      <trkpt lat="42.70282" lon="1.6379">
        <ele>1604.4</ele>
        <time>2020-02-09T09:32:25Z</time>
      </trkpt>
      <trkpt lat="42.70282" lon="1.63793">
        <ele>1604.4</ele>
        <time>2020-02-09T09:32:31Z</time>
      </trkpt>
      <trkpt lat="42.70282" lon="1.63795">
        <ele>1604.4</ele>
        <time>2020-02-09T09:32:41Z</time>
      </trkpt>
      <trkpt lat="42.70282" lon="1.63798">
        <ele>1604.4</ele>
        <time>2020-02-09T09:32:44Z</time>
      </trkpt>
      <trkpt lat="42.70282" lon="1.638">
        <ele>1604.4</ele>
        <time>2020-02-09T09:32:51Z</time>
      </trkpt>
      <trkpt lat="42.70282" lon="1.63803">
        <ele>1604.4</ele>
        <time>2020-02-09T09:32:53Z</time>
      </trkpt>
      <trkpt lat="42.70282" lon="1.63805">
        <ele>1604.5</ele>
        <time>2020-02-09T09:32:57Z</time>
      </trkpt>
      <trkpt lat="42.70282" lon="1.63808">
        <ele>1604.5</ele>
        <time>2020-02-09T09:33:01Z</time>
      </trkpt>
      <trkpt lat="42.70282" lon="1.6381">
        <ele>1604.5</ele>
        <time>2020-02-09T09:33:06Z</time>
      </trkpt>
      <trkpt lat="42.70282" lon="1.63813">
        <ele>1604.5</ele>
        <time>2020-02-09T09:33:10Z</time>
      </trkpt>
      <trkpt lat="42.70282" lon="1.63815">
        <ele>1604.5</ele>
        <time>2020-02-09T09:33:11Z</time>
      </trkpt>
      <trkpt lat="42.70281" lon="1.63819">
        <ele>1604.5</ele>
        <time>2020-02-09T09:33:14Z</time>
      </trkpt>
      <trkpt lat="42.7028" lon="1.63827">
        <ele>1604.4</ele>
        <time>2020-02-09T09:33:21Z</time>
      </trkpt>
      <trkpt lat="42.7028" lon="1.6383">
        <ele>1604.4</ele>
        <time>2020-02-09T09:33:26Z</time>
      </trkpt>
      <trkpt lat="42.70279" lon="1.63833">
        <ele>1604.4</ele>
        <time>2020-02-09T09:33:29Z</time>
      </trkpt>
      <trkpt lat="42.70279" lon="1.63833">
        <ele>1604.4</ele>
        <time>2020-02-09T09:33:31Z</time>
      </trkpt>
      <trkpt lat="42.70278" lon="1.63838">
        <ele>1604.3</ele>
        <time>2020-02-09T09:33:34Z</time>
      </trkpt>
      <trkpt lat="42.70278" lon="1.6384">
        <ele>1604.2</ele>
        <time>2020-02-09T09:33:38Z</time>
      </trkpt>
      <trkpt lat="42.70277" lon="1.63842">
        <ele>1604.2</ele>
        <time>2020-02-09T09:33:41Z</time>
      </trkpt>
      <trkpt lat="42.70277" lon="1.63844">
        <ele>1604.1</ele>
        <time>2020-02-09T09:33:44Z</time>
      </trkpt>
      <trkpt lat="42.70277" lon="1.63846">
        <ele>1604.1</ele>
        <time>2020-02-09T09:33:46Z</time>
      </trkpt>
      <trkpt lat="42.70276" lon="1.63848">
        <ele>1604</ele>
        <time>2020-02-09T09:33:50Z</time>
      </trkpt>
      <trkpt lat="42.70276" lon="1.6385">
        <ele>1604</ele>
        <time>2020-02-09T09:33:51Z</time>
      </trkpt>
      <trkpt lat="42.70273" lon="1.63856">
        <ele>1603.8</ele>
        <time>2020-02-09T09:33:59Z</time>
      </trkpt>
      <trkpt lat="42.70273" lon="1.63856">
        <ele>1603.8</ele>
        <time>2020-02-09T09:34:01Z</time>
      </trkpt>
      <trkpt lat="42.70272" lon="1.6386">
        <ele>1603.7</ele>
        <time>2020-02-09T09:34:03Z</time>
      </trkpt>
      <trkpt lat="42.70271" lon="1.63866">
        <ele>1603.7</ele>
        <time>2020-02-09T09:34:08Z</time>
      </trkpt>
      <trkpt lat="42.7027" lon="1.6387">
        <ele>1603.6</ele>
        <time>2020-02-09T09:34:11Z</time>
      </trkpt>
      <trkpt lat="42.70269" lon="1.63873">
        <ele>1603.7</ele>
        <time>2020-02-09T09:34:15Z</time>
      </trkpt>
      <trkpt lat="42.70267" lon="1.63874">
        <ele>1603.7</ele>
        <time>2020-02-09T09:34:18Z</time>
      </trkpt>
      <trkpt lat="42.70267" lon="1.63877">
        <ele>1603.6</ele>
        <time>2020-02-09T09:34:21Z</time>
      </trkpt>
      <trkpt lat="42.70268" lon="1.63882">
        <ele>1603.6</ele>
        <time>2020-02-09T09:34:24Z</time>
      </trkpt>
      <trkpt lat="42.70269" lon="1.63884">
        <ele>1603.4</ele>
        <time>2020-02-09T09:34:26Z</time>
      </trkpt>
      <trkpt lat="42.70269" lon="1.63886">
        <ele>1603.3</ele>
        <time>2020-02-09T09:34:30Z</time>
      </trkpt>
      <trkpt lat="42.70269" lon="1.63887">
        <ele>1603.3</ele>
        <time>2020-02-09T09:34:31Z</time>
      </trkpt>
      <trkpt lat="42.70271" lon="1.63892">
        <ele>1603.3</ele>
        <time>2020-02-09T09:34:33Z</time>
      </trkpt>
      <trkpt lat="42.70271" lon="1.63894">
        <ele>1603.3</ele>
        <time>2020-02-09T09:34:36Z</time>
      </trkpt>
      <trkpt lat="42.70272" lon="1.63896">
        <ele>1603.1</ele>
        <time>2020-02-09T09:34:40Z</time>
      </trkpt>
      <trkpt lat="42.70272" lon="1.63898">
        <ele>1603.1</ele>
        <time>2020-02-09T09:34:41Z</time>
      </trkpt>
      <trkpt lat="42.70274" lon="1.63901">
        <ele>1603.1</ele>
        <time>2020-02-09T09:34:43Z</time>
      </trkpt>
      <trkpt lat="42.70274" lon="1.63903">
        <ele>1603.1</ele>
        <time>2020-02-09T09:34:45Z</time>
      </trkpt>
      <trkpt lat="42.70277" lon="1.6391">
        <ele>1602.9</ele>
        <time>2020-02-09T09:34:51Z</time>
      </trkpt>
      <trkpt lat="42.70278" lon="1.63913">
        <ele>1602.8</ele>
        <time>2020-02-09T09:34:56Z</time>
      </trkpt>
      <trkpt lat="42.7028" lon="1.63914">
        <ele>1602.7</ele>
        <time>2020-02-09T09:34:58Z</time>
      </trkpt>
      <trkpt lat="42.7028" lon="1.63914">
        <ele>1602.7</ele>
        <time>2020-02-09T09:35:01Z</time>
      </trkpt>
      <trkpt lat="42.70282" lon="1.63916">
        <ele>1602.6</ele>
        <time>2020-02-09T09:35:02Z</time>
      </trkpt>
      <trkpt lat="42.70283" lon="1.63919">
        <ele>1602.6</ele>
        <time>2020-02-09T09:35:04Z</time>
      </trkpt>
      <trkpt lat="42.70285" lon="1.63924">
        <ele>1602.4</ele>
        <time>2020-02-09T09:35:09Z</time>
      </trkpt>
      <trkpt lat="42.70285" lon="1.63924">
        <ele>1602.4</ele>
        <time>2020-02-09T09:35:11Z</time>
      </trkpt>
      <trkpt lat="42.70287" lon="1.63927">
        <ele>1602.4</ele>
        <time>2020-02-09T09:35:12Z</time>
      </trkpt>
      <trkpt lat="42.70289" lon="1.63931">
        <ele>1602.4</ele>
        <time>2020-02-09T09:35:16Z</time>
      </trkpt>
      <trkpt lat="42.7029" lon="1.63935">
        <ele>1602.2</ele>
        <time>2020-02-09T09:35:19Z</time>
      </trkpt>
      <trkpt lat="42.70291" lon="1.63937">
        <ele>1602.2</ele>
        <time>2020-02-09T09:35:21Z</time>
      </trkpt>
      <trkpt lat="42.70292" lon="1.63949">
        <ele>1601.8</ele>
        <time>2020-02-09T09:35:30Z</time>
      </trkpt>
      <trkpt lat="42.70292" lon="1.63949">
        <ele>1601.8</ele>
        <time>2020-02-09T09:35:31Z</time>
      </trkpt>
      <trkpt lat="42.70293" lon="1.63963">
        <ele>1601</ele>
        <time>2020-02-09T09:35:38Z</time>
      </trkpt>
      <trkpt lat="42.70293" lon="1.63964">
        <ele>1601</ele>
        <time>2020-02-09T09:35:40Z</time>
      </trkpt>
      <trkpt lat="42.70293" lon="1.63966">
        <ele>1601</ele>
        <time>2020-02-09T09:35:41Z</time>
      </trkpt>
      <trkpt lat="42.70294" lon="1.63968">
        <ele>1600.8</ele>
        <time>2020-02-09T09:35:42Z</time>
      </trkpt>
      <trkpt lat="42.70296" lon="1.6397">
        <ele>1600.9</ele>
        <time>2020-02-09T09:35:45Z</time>
      </trkpt>
      <trkpt lat="42.70297" lon="1.63973">
        <ele>1600.8</ele>
        <time>2020-02-09T09:35:47Z</time>
      </trkpt>
      <trkpt lat="42.70297" lon="1.63977">
        <ele>1600.5</ele>
        <time>2020-02-09T09:35:51Z</time>
      </trkpt>
      <trkpt lat="42.70297" lon="1.63983">
        <ele>1600.3</ele>
        <time>2020-02-09T09:35:53Z</time>
      </trkpt>
      <trkpt lat="42.70297" lon="1.63986">
        <ele>1600</ele>
        <time>2020-02-09T09:35:55Z</time>
      </trkpt>
      <trkpt lat="42.70297" lon="1.63989">
        <ele>1599.8</ele>
        <time>2020-02-09T09:36:01Z</time>
      </trkpt>
      <trkpt lat="42.70297" lon="1.63992">
        <ele>1599.8</ele>
        <time>2020-02-09T09:36:02Z</time>
      </trkpt>
      <trkpt lat="42.70298" lon="1.63994">
        <ele>1599.5</ele>
        <time>2020-02-09T09:36:05Z</time>
      </trkpt>
      <trkpt lat="42.70298" lon="1.63997">
        <ele>1599.3</ele>
        <time>2020-02-09T09:36:07Z</time>
      </trkpt>
      <trkpt lat="42.70298" lon="1.64">
        <ele>1599.3</ele>
        <time>2020-02-09T09:36:09Z</time>
      </trkpt>
      <trkpt lat="42.70298" lon="1.64003">
        <ele>1599</ele>
        <time>2020-02-09T09:36:10Z</time>
      </trkpt>
      <trkpt lat="42.70298" lon="1.64006">
        <ele>1598.8</ele>
        <time>2020-02-09T09:36:11Z</time>
      </trkpt>
      <trkpt lat="42.70298" lon="1.64011">
        <ele>1598.6</ele>
        <time>2020-02-09T09:36:13Z</time>
      </trkpt>
      <trkpt lat="42.70298" lon="1.64013">
        <ele>1598.6</ele>
        <time>2020-02-09T09:36:20Z</time>
      </trkpt>
      <trkpt lat="42.70298" lon="1.64016">
        <ele>1598.3</ele>
        <time>2020-02-09T09:36:21Z</time>
      </trkpt>
      <trkpt lat="42.70297" lon="1.64021">
        <ele>1598.1</ele>
        <time>2020-02-09T09:36:24Z</time>
      </trkpt>
      <trkpt lat="42.70297" lon="1.64023">
        <ele>1597.9</ele>
        <time>2020-02-09T09:36:28Z</time>
      </trkpt>
      <trkpt lat="42.70297" lon="1.64025">
        <ele>1597.9</ele>
        <time>2020-02-09T09:36:30Z</time>
      </trkpt>
      <trkpt lat="42.70296" lon="1.64027">
        <ele>1597.7</ele>
        <time>2020-02-09T09:36:31Z</time>
      </trkpt>
      <trkpt lat="42.70297" lon="1.64032">
        <ele>1597.5</ele>
        <time>2020-02-09T09:36:33Z</time>
      </trkpt>
      <trkpt lat="42.70297" lon="1.64035">
        <ele>1597.5</ele>
        <time>2020-02-09T09:36:36Z</time>
      </trkpt>
      <trkpt lat="42.70297" lon="1.64037">
        <ele>1597.4</ele>
        <time>2020-02-09T09:36:38Z</time>
      </trkpt>
      <trkpt lat="42.70297" lon="1.6404">
        <ele>1597.3</ele>
        <time>2020-02-09T09:36:40Z</time>
      </trkpt>
      <trkpt lat="42.70297" lon="1.64042">
        <ele>1597.3</ele>
        <time>2020-02-09T09:36:41Z</time>
      </trkpt>
      <trkpt lat="42.70297" lon="1.64048">
        <ele>1597.1</ele>
        <time>2020-02-09T09:36:44Z</time>
      </trkpt>
      <trkpt lat="42.70298" lon="1.6405">
        <ele>1597</ele>
        <time>2020-02-09T09:36:50Z</time>
      </trkpt>
      <trkpt lat="42.70298" lon="1.64052">
        <ele>1597</ele>
        <time>2020-02-09T09:36:51Z</time>
      </trkpt>
      <trkpt lat="42.70298" lon="1.64059">
        <ele>1596.7</ele>
        <time>2020-02-09T09:36:55Z</time>
      </trkpt>
      <trkpt lat="42.70298" lon="1.64062">
        <ele>1596.6</ele>
        <time>2020-02-09T09:36:57Z</time>
      </trkpt>
      <trkpt lat="42.70298" lon="1.64062">
        <ele>1596.6</ele>
        <time>2020-02-09T09:37:01Z</time>
      </trkpt>
      <trkpt lat="42.70301" lon="1.64073">
        <ele>1596.3</ele>
        <time>2020-02-09T09:37:05Z</time>
      </trkpt>
      <trkpt lat="42.70303" lon="1.64077">
        <ele>1596.1</ele>
        <time>2020-02-09T09:37:09Z</time>
      </trkpt>
      <trkpt lat="42.70303" lon="1.64077">
        <ele>1596.1</ele>
        <time>2020-02-09T09:37:11Z</time>
      </trkpt>
      <trkpt lat="42.70307" lon="1.64082">
        <ele>1595.9</ele>
        <time>2020-02-09T09:37:14Z</time>
      </trkpt>
      <trkpt lat="42.70308" lon="1.64087">
        <ele>1595.7</ele>
        <time>2020-02-09T09:37:18Z</time>
      </trkpt>
      <trkpt lat="42.70308" lon="1.64087">
        <ele>1595.7</ele>
        <time>2020-02-09T09:37:21Z</time>
      </trkpt>
      <trkpt lat="42.70309" lon="1.64097">
        <ele>1595</ele>
        <time>2020-02-09T09:37:22Z</time>
      </trkpt>
      <trkpt lat="42.7031" lon="1.641">
        <ele>1594.6</ele>
        <time>2020-02-09T09:37:24Z</time>
      </trkpt>
      <trkpt lat="42.70311" lon="1.64103">
        <ele>1594.6</ele>
        <time>2020-02-09T09:37:25Z</time>
      </trkpt>
      <trkpt lat="42.70311" lon="1.64106">
        <ele>1594.4</ele>
        <time>2020-02-09T09:37:31Z</time>
      </trkpt>
      <trkpt lat="42.70312" lon="1.64109">
        <ele>1594.2</ele>
        <time>2020-02-09T09:37:34Z</time>
      </trkpt>
      <trkpt lat="42.70313" lon="1.64113">
        <ele>1593.9</ele>
        <time>2020-02-09T09:37:41Z</time>
      </trkpt>
      <trkpt lat="42.70314" lon="1.64116">
        <ele>1593.6</ele>
        <time>2020-02-09T09:37:43Z</time>
      </trkpt>
      <trkpt lat="42.70315" lon="1.64119">
        <ele>1593.4</ele>
        <time>2020-02-09T09:37:46Z</time>
      </trkpt>
      <trkpt lat="42.70315" lon="1.64122">
        <ele>1593.3</ele>
        <time>2020-02-09T09:37:50Z</time>
      </trkpt>
      <trkpt lat="42.70316" lon="1.64125">
        <ele>1593</ele>
        <time>2020-02-09T09:37:51Z</time>
      </trkpt>
      <trkpt lat="42.7032" lon="1.64129">
        <ele>1592.5</ele>
        <time>2020-02-09T09:37:54Z</time>
      </trkpt>
      <trkpt lat="42.70321" lon="1.64131">
        <ele>1592.4</ele>
        <time>2020-02-09T09:38:00Z</time>
      </trkpt>
      <trkpt lat="42.70321" lon="1.64133">
        <ele>1592.4</ele>
        <time>2020-02-09T09:38:01Z</time>
      </trkpt>
      <trkpt lat="42.70312" lon="1.64137">
        <ele>1593.4</ele>
        <time>2020-02-09T09:38:04Z</time>
      </trkpt>
      <trkpt lat="42.70308" lon="1.6414">
        <ele>1593.9</ele>
        <time>2020-02-09T09:38:11Z</time>
      </trkpt>
      <trkpt lat="42.70308" lon="1.6414">
        <ele>1593.9</ele>
        <time>2020-02-09T09:38:21Z</time>
      </trkpt>
      <trkpt lat="42.70307" lon="1.64153">
        <ele>1593.9</ele>
        <time>2020-02-09T09:38:22Z</time>
      </trkpt>
      <trkpt lat="42.70309" lon="1.64159">
        <ele>1594</ele>
        <time>2020-02-09T09:38:29Z</time>
      </trkpt>
      <trkpt lat="42.70309" lon="1.64159">
        <ele>1594</ele>
        <time>2020-02-09T09:38:31Z</time>
      </trkpt>
      <trkpt lat="42.70309" lon="1.64159">
        <ele>1594</ele>
        <time>2020-02-09T09:38:41Z</time>
      </trkpt>
      <trkpt lat="42.70309" lon="1.64159">
        <ele>1594</ele>
        <time>2020-02-09T09:38:51Z</time>
      </trkpt>
      <trkpt lat="42.7031" lon="1.64162">
        <ele>1593.5</ele>
        <time>2020-02-09T09:38:58Z</time>
      </trkpt>
      <trkpt lat="42.70311" lon="1.64165">
        <ele>1593.5</ele>
        <time>2020-02-09T09:39:01Z</time>
      </trkpt>
      <trkpt lat="42.70312" lon="1.64169">
        <ele>1593.6</ele>
        <time>2020-02-09T09:39:04Z</time>
      </trkpt>
      <trkpt lat="42.70313" lon="1.64171">
        <ele>1593.1</ele>
        <time>2020-02-09T09:39:06Z</time>
      </trkpt>
      <trkpt lat="42.70313" lon="1.64171">
        <ele>1593.1</ele>
        <time>2020-02-09T09:39:11Z</time>
      </trkpt>
      <trkpt lat="42.70313" lon="1.64178">
        <ele>1593.2</ele>
        <time>2020-02-09T09:39:12Z</time>
      </trkpt>
      <trkpt lat="42.70313" lon="1.64181">
        <ele>1593.2</ele>
        <time>2020-02-09T09:39:15Z</time>
      </trkpt>
      <trkpt lat="42.70314" lon="1.64184">
        <ele>1593.3</ele>
        <time>2020-02-09T09:39:19Z</time>
      </trkpt>
      <trkpt lat="42.70315" lon="1.64186">
        <ele>1593.3</ele>
        <time>2020-02-09T09:39:21Z</time>
      </trkpt>
      <trkpt lat="42.70317" lon="1.64188">
        <ele>1592.9</ele>
        <time>2020-02-09T09:39:25Z</time>
      </trkpt>
      <trkpt lat="42.70321" lon="1.64191">
        <ele>1592.6</ele>
        <time>2020-02-09T09:39:31Z</time>
      </trkpt>
      <trkpt lat="42.70322" lon="1.64194">
        <ele>1592.6</ele>
        <time>2020-02-09T09:39:33Z</time>
      </trkpt>
      <trkpt lat="42.70322" lon="1.64197">
        <ele>1592.7</ele>
        <time>2020-02-09T09:39:36Z</time>
      </trkpt>
      <trkpt lat="42.70322" lon="1.64197">
        <ele>1592.7</ele>
        <time>2020-02-09T09:39:41Z</time>
      </trkpt>
      <trkpt lat="42.70319" lon="1.64203">
        <ele>1593.4</ele>
        <time>2020-02-09T09:39:42Z</time>
      </trkpt>
      <trkpt lat="42.70319" lon="1.64206">
        <ele>1593.4</ele>
        <time>2020-02-09T09:39:46Z</time>
      </trkpt>
      <trkpt lat="42.7032" lon="1.64211">
        <ele>1593.1</ele>
        <time>2020-02-09T09:39:49Z</time>
      </trkpt>
      <trkpt lat="42.7032" lon="1.64211">
        <ele>1593.1</ele>
        <time>2020-02-09T09:39:51Z</time>
      </trkpt>
      <trkpt lat="42.70322" lon="1.64218">
        <ele>1593.5</ele>
        <time>2020-02-09T09:39:55Z</time>
      </trkpt>
      <trkpt lat="42.70323" lon="1.64221">
        <ele>1593.3</ele>
        <time>2020-02-09T09:39:58Z</time>
      </trkpt>
      <trkpt lat="42.70323" lon="1.64221">
        <ele>1593.3</ele>
        <time>2020-02-09T09:40:01Z</time>
      </trkpt>
      <trkpt lat="42.70324" lon="1.64228">
        <ele>1593.5</ele>
        <time>2020-02-09T09:40:05Z</time>
      </trkpt>
      <trkpt lat="42.70325" lon="1.64231">
        <ele>1593.8</ele>
        <time>2020-02-09T09:40:08Z</time>
      </trkpt>
      <trkpt lat="42.70325" lon="1.64231">
        <ele>1593.8</ele>
        <time>2020-02-09T09:40:11Z</time>
      </trkpt>
      <trkpt lat="42.70325" lon="1.64242">
        <ele>1594.8</ele>
        <time>2020-02-09T09:40:17Z</time>
      </trkpt>
      <trkpt lat="42.70325" lon="1.64245">
        <ele>1594.8</ele>
        <time>2020-02-09T09:40:21Z</time>
      </trkpt>
      <trkpt lat="42.70325" lon="1.64247">
        <ele>1594.5</ele>
        <time>2020-02-09T09:40:24Z</time>
      </trkpt>
      <trkpt lat="42.70326" lon="1.6425">
        <ele>1594.5</ele>
        <time>2020-02-09T09:40:26Z</time>
      </trkpt>
      <trkpt lat="42.70326" lon="1.64252">
        <ele>1594.9</ele>
        <time>2020-02-09T09:40:30Z</time>
      </trkpt>
      <trkpt lat="42.70326" lon="1.64255">
        <ele>1595.2</ele>
        <time>2020-02-09T09:40:31Z</time>
      </trkpt>
      <trkpt lat="42.70327" lon="1.64258">
        <ele>1595.2</ele>
        <time>2020-02-09T09:40:35Z</time>
      </trkpt>
      <trkpt lat="42.70327" lon="1.64258">
        <ele>1595.2</ele>
        <time>2020-02-09T09:40:41Z</time>
      </trkpt>
      <trkpt lat="42.70331" lon="1.64267">
        <ele>1595.3</ele>
        <time>2020-02-09T09:40:42Z</time>
      </trkpt>
      <trkpt lat="42.70334" lon="1.64268">
        <ele>1595.1</ele>
        <time>2020-02-09T09:40:43Z</time>
      </trkpt>
      <trkpt lat="42.70337" lon="1.64271">
        <ele>1594.5</ele>
        <time>2020-02-09T09:40:48Z</time>
      </trkpt>
      <trkpt lat="42.70337" lon="1.64271">
        <ele>1594.5</ele>
        <time>2020-02-09T09:40:51Z</time>
      </trkpt>
      <trkpt lat="42.7034" lon="1.64275">
        <ele>1594.3</ele>
        <time>2020-02-09T09:40:52Z</time>
      </trkpt>
      <trkpt lat="42.70344" lon="1.64277">
        <ele>1594.2</ele>
        <time>2020-02-09T09:40:56Z</time>
      </trkpt>
      <trkpt lat="42.70347" lon="1.6428">
        <ele>1594.2</ele>
        <time>2020-02-09T09:41:01Z</time>
      </trkpt>
      <trkpt lat="42.7035" lon="1.64284">
        <ele>1593.8</ele>
        <time>2020-02-09T09:41:05Z</time>
      </trkpt>
      <trkpt lat="42.70351" lon="1.64285">
        <ele>1593.9</ele>
        <time>2020-02-09T09:41:07Z</time>
      </trkpt>
      <trkpt lat="42.70352" lon="1.64286">
        <ele>1593.9</ele>
        <time>2020-02-09T09:41:10Z</time>
      </trkpt>
      <trkpt lat="42.70353" lon="1.64287">
        <ele>1593.9</ele>
        <time>2020-02-09T09:41:11Z</time>
      </trkpt>
      <trkpt lat="42.70355" lon="1.6429">
        <ele>1594</ele>
        <time>2020-02-09T09:41:13Z</time>
      </trkpt>
      <trkpt lat="42.70356" lon="1.64292">
        <ele>1594</ele>
        <time>2020-02-09T09:41:16Z</time>
      </trkpt>
      <trkpt lat="42.70357" lon="1.64294">
        <ele>1594.5</ele>
        <time>2020-02-09T09:41:20Z</time>
      </trkpt>
      <trkpt lat="42.70358" lon="1.64295">
        <ele>1594.1</ele>
        <time>2020-02-09T09:41:21Z</time>
      </trkpt>
      <trkpt lat="42.70361" lon="1.64302">
        <ele>1594.6</ele>
        <time>2020-02-09T09:41:28Z</time>
      </trkpt>
      <trkpt lat="42.70362" lon="1.64305">
        <ele>1594.6</ele>
        <time>2020-02-09T09:41:29Z</time>
      </trkpt>
      <trkpt lat="42.70362" lon="1.64305">
        <ele>1594.6</ele>
        <time>2020-02-09T09:41:31Z</time>
      </trkpt>
      <trkpt lat="42.70362" lon="1.64308">
        <ele>1595</ele>
        <time>2020-02-09T09:41:32Z</time>
      </trkpt>
      <trkpt lat="42.70362" lon="1.64311">
        <ele>1595.5</ele>
        <time>2020-02-09T09:41:34Z</time>
      </trkpt>
      <trkpt lat="42.70363" lon="1.64314">
        <ele>1595.5</ele>
        <time>2020-02-09T09:41:37Z</time>
      </trkpt>
      <trkpt lat="42.70363" lon="1.64314">
        <ele>1595.5</ele>
        <time>2020-02-09T09:41:41Z</time>
      </trkpt>
      <trkpt lat="42.70362" lon="1.64318">
        <ele>1595.9</ele>
        <time>2020-02-09T09:41:44Z</time>
      </trkpt>
      <trkpt lat="42.70362" lon="1.64318">
        <ele>1595.9</ele>
        <time>2020-02-09T09:41:51Z</time>
      </trkpt>
      <trkpt lat="42.70359" lon="1.64324">
        <ele>1597.5</ele>
        <time>2020-02-09T09:41:57Z</time>
      </trkpt>
      <trkpt lat="42.70359" lon="1.64324">
        <ele>1597.5</ele>
        <time>2020-02-09T09:42:01Z</time>
      </trkpt>
      <trkpt lat="42.70358" lon="1.64326">
        <ele>1597.5</ele>
        <time>2020-02-09T09:42:06Z</time>
      </trkpt>
      <trkpt lat="42.70357" lon="1.64328">
        <ele>1598.5</ele>
        <time>2020-02-09T09:42:11Z</time>
      </trkpt>
      <trkpt lat="42.70355" lon="1.6433">
        <ele>1598.5</ele>
        <time>2020-02-09T09:42:21Z</time>
      </trkpt>
      <trkpt lat="42.70355" lon="1.64333">
        <ele>1599.2</ele>
        <time>2020-02-09T09:42:25Z</time>
      </trkpt>
      <trkpt lat="42.70354" lon="1.64338">
        <ele>1599.8</ele>
        <time>2020-02-09T09:42:30Z</time>
      </trkpt>
      <trkpt lat="42.70354" lon="1.64338">
        <ele>1599.8</ele>
        <time>2020-02-09T09:42:31Z</time>
      </trkpt>
      <trkpt lat="42.70353" lon="1.6434">
        <ele>1600.2</ele>
        <time>2020-02-09T09:42:32Z</time>
      </trkpt>
      <trkpt lat="42.70351" lon="1.64341">
        <ele>1601.3</ele>
        <time>2020-02-09T09:42:36Z</time>
      </trkpt>
      <trkpt lat="42.70351" lon="1.64341">
        <ele>1601.3</ele>
        <time>2020-02-09T09:42:41Z</time>
      </trkpt>
      <trkpt lat="42.70349" lon="1.64343">
        <ele>1601.3</ele>
        <time>2020-02-09T09:42:44Z</time>
      </trkpt>
      <trkpt lat="42.70348" lon="1.64346">
        <ele>1601.9</ele>
        <time>2020-02-09T09:42:47Z</time>
      </trkpt>
      <trkpt lat="42.70348" lon="1.64346">
        <ele>1601.9</ele>
        <time>2020-02-09T09:42:51Z</time>
      </trkpt>
      <trkpt lat="42.70347" lon="1.64348">
        <ele>1602.4</ele>
        <time>2020-02-09T09:42:53Z</time>
      </trkpt>
      <trkpt lat="42.70346" lon="1.6435">
        <ele>1603.1</ele>
        <time>2020-02-09T09:43:00Z</time>
      </trkpt>
      <trkpt lat="42.70346" lon="1.6435">
        <ele>1603.1</ele>
        <time>2020-02-09T09:43:01Z</time>
      </trkpt>
      <trkpt lat="42.70345" lon="1.64355">
        <ele>1603.8</ele>
        <time>2020-02-09T09:43:02Z</time>
      </trkpt>
      <trkpt lat="42.70344" lon="1.64357">
        <ele>1603.8</ele>
        <time>2020-02-09T09:43:06Z</time>
      </trkpt>
      <trkpt lat="42.70344" lon="1.64358">
        <ele>1605.1</ele>
        <time>2020-02-09T09:43:10Z</time>
      </trkpt>
      <trkpt lat="42.70343" lon="1.6436">
        <ele>1605.1</ele>
        <time>2020-02-09T09:43:11Z</time>
      </trkpt>
      <trkpt lat="42.70339" lon="1.64363">
        <ele>1606.6</ele>
        <time>2020-02-09T09:43:19Z</time>
      </trkpt>
      <trkpt lat="42.70339" lon="1.64363">
        <ele>1606.6</ele>
        <time>2020-02-09T09:43:21Z</time>
      </trkpt>
      <trkpt lat="42.70337" lon="1.64366">
        <ele>1607.3</ele>
        <time>2020-02-09T09:43:22Z</time>
      </trkpt>
      <trkpt lat="42.70337" lon="1.64366">
        <ele>1607.3</ele>
        <time>2020-02-09T09:43:31Z</time>
      </trkpt>
      <trkpt lat="42.70326" lon="1.6437">
        <ele>1610.3</ele>
        <time>2020-02-09T09:43:35Z</time>
      </trkpt>
      <trkpt lat="42.70326" lon="1.6437">
        <ele>1610.3</ele>
        <time>2020-02-09T09:43:41Z</time>
      </trkpt>
      <trkpt lat="42.70327" lon="1.64368">
        <ele>1610.3</ele>
        <time>2020-02-09T09:43:42Z</time>
      </trkpt>
      <trkpt lat="42.70326" lon="1.64371">
        <ele>1611.2</ele>
        <time>2020-02-09T09:43:45Z</time>
      </trkpt>
      <trkpt lat="42.70324" lon="1.64373">
        <ele>1611.9</ele>
        <time>2020-02-09T09:43:49Z</time>
      </trkpt>
      <trkpt lat="42.70324" lon="1.64373">
        <ele>1611.9</ele>
        <time>2020-02-09T09:43:51Z</time>
      </trkpt>
      <trkpt lat="42.70323" lon="1.64375">
        <ele>1612.8</ele>
        <time>2020-02-09T09:43:53Z</time>
      </trkpt>
      <trkpt lat="42.70321" lon="1.64378">
        <ele>1613.5</ele>
        <time>2020-02-09T09:43:57Z</time>
      </trkpt>
      <trkpt lat="42.70321" lon="1.64378">
        <ele>1613.5</ele>
        <time>2020-02-09T09:44:01Z</time>
      </trkpt>
      <trkpt lat="42.70319" lon="1.64379">
        <ele>1614.5</ele>
        <time>2020-02-09T09:44:06Z</time>
      </trkpt>
      <trkpt lat="42.70319" lon="1.64379">
        <ele>1614.5</ele>
        <time>2020-02-09T09:44:11Z</time>
      </trkpt>
      <trkpt lat="42.70317" lon="1.64383">
        <ele>1616.2</ele>
        <time>2020-02-09T09:44:13Z</time>
      </trkpt>
      <trkpt lat="42.70317" lon="1.64383">
        <ele>1616.2</ele>
        <time>2020-02-09T09:44:21Z</time>
      </trkpt>
      <trkpt lat="42.70316" lon="1.64388">
        <ele>1618</ele>
        <time>2020-02-09T09:44:23Z</time>
      </trkpt>
      <trkpt lat="42.70314" lon="1.6439">
        <ele>1618</ele>
        <time>2020-02-09T09:44:25Z</time>
      </trkpt>
      <trkpt lat="42.70312" lon="1.64391">
        <ele>1618.8</ele>
        <time>2020-02-09T09:44:31Z</time>
      </trkpt>
      <trkpt lat="42.70312" lon="1.64391">
        <ele>1618.8</ele>
        <time>2020-02-09T09:44:41Z</time>
      </trkpt>
      <trkpt lat="42.7031" lon="1.64395">
        <ele>1619.7</ele>
        <time>2020-02-09T09:44:42Z</time>
      </trkpt>
      <trkpt lat="42.7031" lon="1.64395">
        <ele>1619.7</ele>
        <time>2020-02-09T09:44:51Z</time>
      </trkpt>
      <trkpt lat="42.7031" lon="1.64395">
        <ele>1619.7</ele>
        <time>2020-02-09T09:45:01Z</time>
      </trkpt>
      <trkpt lat="42.70308" lon="1.64396">
        <ele>1621.5</ele>
        <time>2020-02-09T09:45:06Z</time>
      </trkpt>
      <trkpt lat="42.70308" lon="1.64396">
        <ele>1621.5</ele>
        <time>2020-02-09T09:45:11Z</time>
      </trkpt>
      <trkpt lat="42.7031" lon="1.64398">
        <ele>1620.6</ele>
        <time>2020-02-09T09:45:12Z</time>
      </trkpt>
      <trkpt lat="42.7031" lon="1.64398">
        <ele>1620.6</ele>
        <time>2020-02-09T09:45:21Z</time>
      </trkpt>
      <trkpt lat="42.7031" lon="1.64398">
        <ele>1620.6</ele>
        <time>2020-02-09T09:45:31Z</time>
      </trkpt>
      <trkpt lat="42.70308" lon="1.64398">
        <ele>1621.5</ele>
        <time>2020-02-09T09:45:32Z</time>
      </trkpt>
      <trkpt lat="42.70308" lon="1.64398">
        <ele>1621.5</ele>
        <time>2020-02-09T09:45:41Z</time>
      </trkpt>
      <trkpt lat="42.70304" lon="1.64398">
        <ele>1622.4</ele>
        <time>2020-02-09T09:45:42Z</time>
      </trkpt>
      <trkpt lat="42.70304" lon="1.64398">
        <ele>1622.4</ele>
        <time>2020-02-09T09:45:51Z</time>
      </trkpt>
      <trkpt lat="42.70304" lon="1.64398">
        <ele>1622.4</ele>
        <time>2020-02-09T09:46:01Z</time>
      </trkpt>
      <trkpt lat="42.70304" lon="1.64398">
        <ele>1622.4</ele>
        <time>2020-02-09T09:46:11Z</time>
      </trkpt>
      <trkpt lat="42.70304" lon="1.64398">
        <ele>1622.4</ele>
        <time>2020-02-09T09:46:21Z</time>
      </trkpt>
      <trkpt lat="42.7031" lon="1.64393">
        <ele>1619.7</ele>
        <time>2020-02-09T09:46:27Z</time>
      </trkpt>
      <trkpt lat="42.7031" lon="1.64393">
        <ele>1619.7</ele>
        <time>2020-02-09T09:46:31Z</time>
      </trkpt>
      <trkpt lat="42.7031" lon="1.64393">
        <ele>1619.7</ele>
        <time>2020-02-09T09:46:41Z</time>
      </trkpt>
      <trkpt lat="42.7031" lon="1.64393">
        <ele>1619.7</ele>
        <time>2020-02-09T09:46:51Z</time>
      </trkpt>
      <trkpt lat="42.7031" lon="1.64393">
        <ele>1619.7</ele>
        <time>2020-02-09T09:47:01Z</time>
      </trkpt>
      <trkpt lat="42.70313" lon="1.64392">
        <ele>1618.9</ele>
        <time>2020-02-09T09:47:02Z</time>
      </trkpt>
      <trkpt lat="42.70313" lon="1.64392">
        <ele>1618.9</ele>
        <time>2020-02-09T09:47:11Z</time>
      </trkpt>
      <trkpt lat="42.70313" lon="1.64392">
        <ele>1618.9</ele>
        <time>2020-02-09T09:47:21Z</time>
      </trkpt>
      <trkpt lat="42.70312" lon="1.64395">
        <ele>1619.7</ele>
        <time>2020-02-09T09:47:30Z</time>
      </trkpt>
      <trkpt lat="42.70312" lon="1.64395">
        <ele>1619.7</ele>
        <time>2020-02-09T09:47:31Z</time>
      </trkpt>
      <trkpt lat="42.70312" lon="1.64395">
        <ele>1619.7</ele>
        <time>2020-02-09T09:47:41Z</time>
      </trkpt>
      <trkpt lat="42.70312" lon="1.64395">
        <ele>1619.7</ele>
        <time>2020-02-09T09:47:51Z</time>
      </trkpt>
      <trkpt lat="42.70312" lon="1.64395">
        <ele>1619.7</ele>
        <time>2020-02-09T09:48:01Z</time>
      </trkpt>
      <trkpt lat="42.70312" lon="1.64395">
        <ele>1619.7</ele>
        <time>2020-02-09T09:48:11Z</time>
      </trkpt>
      <trkpt lat="42.70312" lon="1.64395">
        <ele>1619.7</ele>
        <time>2020-02-09T09:48:21Z</time>
      </trkpt>
      <trkpt lat="42.70312" lon="1.64395">
        <ele>1619.7</ele>
        <time>2020-02-09T09:48:31Z</time>
      </trkpt>
      <trkpt lat="42.70315" lon="1.64396">
        <ele>1619.8</ele>
        <time>2020-02-09T09:48:36Z</time>
      </trkpt>
      <trkpt lat="42.70315" lon="1.64396">
        <ele>1619.8</ele>
        <time>2020-02-09T09:48:41Z</time>
      </trkpt>
      <trkpt lat="42.70308" lon="1.64394">
        <ele>1620.6</ele>
        <time>2020-02-09T09:48:51Z</time>
      </trkpt>
      <trkpt lat="42.70306" lon="1.64394">
        <ele>1621.5</ele>
        <time>2020-02-09T09:48:54Z</time>
      </trkpt>
      <trkpt lat="42.70304" lon="1.64396">
        <ele>1621.5</ele>
        <time>2020-02-09T09:48:59Z</time>
      </trkpt>
      <trkpt lat="42.70304" lon="1.64396">
        <ele>1621.5</ele>
        <time>2020-02-09T09:49:01Z</time>
      </trkpt>
      <trkpt lat="42.70302" lon="1.64396">
        <ele>1623.4</ele>
        <time>2020-02-09T09:49:05Z</time>
      </trkpt>
      <trkpt lat="42.70302" lon="1.64396">
        <ele>1623.4</ele>
        <time>2020-02-09T09:49:11Z</time>
      </trkpt>
      <trkpt lat="42.70297" lon="1.64402">
        <ele>1625.3</ele>
        <time>2020-02-09T09:49:16Z</time>
      </trkpt>
      <trkpt lat="42.70297" lon="1.64402">
        <ele>1625.3</ele>
        <time>2020-02-09T09:49:21Z</time>
      </trkpt>
      <trkpt lat="42.70296" lon="1.64407">
        <ele>1627.2</ele>
        <time>2020-02-09T09:49:24Z</time>
      </trkpt>
      <trkpt lat="42.70296" lon="1.6441">
        <ele>1628.1</ele>
        <time>2020-02-09T09:49:31Z</time>
      </trkpt>
      <trkpt lat="42.70293" lon="1.64411">
        <ele>1629</ele>
        <time>2020-02-09T09:49:38Z</time>
      </trkpt>
      <trkpt lat="42.70293" lon="1.64411">
        <ele>1629</ele>
        <time>2020-02-09T09:49:41Z</time>
      </trkpt>
      <trkpt lat="42.70293" lon="1.64414">
        <ele>1630</ele>
        <time>2020-02-09T09:49:43Z</time>
      </trkpt>
      <trkpt lat="42.70292" lon="1.64416">
        <ele>1630</ele>
        <time>2020-02-09T09:49:47Z</time>
      </trkpt>
      <trkpt lat="42.70292" lon="1.64416">
        <ele>1630</ele>
        <time>2020-02-09T09:49:51Z</time>
      </trkpt>
      <trkpt lat="42.7029" lon="1.64418">
        <ele>1631.9</ele>
        <time>2020-02-09T09:49:55Z</time>
      </trkpt>
      <trkpt lat="42.7029" lon="1.64418">
        <ele>1631.9</ele>
        <time>2020-02-09T09:50:01Z</time>
      </trkpt>
      <trkpt lat="42.70286" lon="1.64424">
        <ele>1633.7</ele>
        <time>2020-02-09T09:50:08Z</time>
      </trkpt>
      <trkpt lat="42.70286" lon="1.64424">
        <ele>1633.7</ele>
        <time>2020-02-09T09:50:11Z</time>
      </trkpt>
      <trkpt lat="42.70286" lon="1.64424">
        <ele>1633.7</ele>
        <time>2020-02-09T09:50:21Z</time>
      </trkpt>
      <trkpt lat="42.70281" lon="1.64433">
        <ele>1637.4</ele>
        <time>2020-02-09T09:50:30Z</time>
      </trkpt>
      <trkpt lat="42.70281" lon="1.64433">
        <ele>1637.4</ele>
        <time>2020-02-09T09:50:31Z</time>
      </trkpt>
      <trkpt lat="42.70281" lon="1.64433">
        <ele>1637.4</ele>
        <time>2020-02-09T09:50:41Z</time>
      </trkpt>
      <trkpt lat="42.70284" lon="1.64446">
        <ele>1638.8</ele>
        <time>2020-02-09T09:50:48Z</time>
      </trkpt>
      <trkpt lat="42.70284" lon="1.64446">
        <ele>1638.8</ele>
        <time>2020-02-09T09:50:51Z</time>
      </trkpt>
      <trkpt lat="42.70284" lon="1.64446">
        <ele>1638.8</ele>
        <time>2020-02-09T09:51:01Z</time>
      </trkpt>
      <trkpt lat="42.70282" lon="1.64458">
        <ele>1641.2</ele>
        <time>2020-02-09T09:51:08Z</time>
      </trkpt>
      <trkpt lat="42.70282" lon="1.64458">
        <ele>1641.2</ele>
        <time>2020-02-09T09:51:11Z</time>
      </trkpt>
      <trkpt lat="42.70282" lon="1.64458">
        <ele>1641.2</ele>
        <time>2020-02-09T09:51:21Z</time>
      </trkpt>
      <trkpt lat="42.70282" lon="1.64458">
        <ele>1641.2</ele>
        <time>2020-02-09T09:51:31Z</time>
      </trkpt>
      <trkpt lat="42.70274" lon="1.64479">
        <ele>1648.4</ele>
        <time>2020-02-09T09:51:36Z</time>
      </trkpt>
      <trkpt lat="42.70274" lon="1.64479">
        <ele>1648.4</ele>
        <time>2020-02-09T09:51:41Z</time>
      </trkpt>
      <trkpt lat="42.70283" lon="1.64481">
        <ele>1645.5</ele>
        <time>2020-02-09T09:51:50Z</time>
      </trkpt>
      <trkpt lat="42.70283" lon="1.64481">
        <ele>1645.5</ele>
        <time>2020-02-09T09:51:51Z</time>
      </trkpt>
      <trkpt lat="42.70274" lon="1.64485">
        <ele>1649.1</ele>
        <time>2020-02-09T09:51:55Z</time>
      </trkpt>
      <trkpt lat="42.70274" lon="1.64485">
        <ele>1649.1</ele>
        <time>2020-02-09T09:52:01Z</time>
      </trkpt>
      <trkpt lat="42.70274" lon="1.64485">
        <ele>1649.1</ele>
        <time>2020-02-09T09:52:11Z</time>
      </trkpt>
      <trkpt lat="42.7026" lon="1.64487">
        <ele>1653.4</ele>
        <time>2020-02-09T09:52:18Z</time>
      </trkpt>
      <trkpt lat="42.7026" lon="1.64487">
        <ele>1653.4</ele>
        <time>2020-02-09T09:52:21Z</time>
      </trkpt>
      <trkpt lat="42.7026" lon="1.64487">
        <ele>1653.4</ele>
        <time>2020-02-09T09:52:31Z</time>
      </trkpt>
      <trkpt lat="42.70259" lon="1.645">
        <ele>1655.4</ele>
        <time>2020-02-09T09:52:35Z</time>
      </trkpt>
      <trkpt lat="42.70259" lon="1.645">
        <ele>1655.4</ele>
        <time>2020-02-09T09:52:41Z</time>
      </trkpt>
      <trkpt lat="42.70259" lon="1.645">
        <ele>1655.4</ele>
        <time>2020-02-09T09:52:51Z</time>
      </trkpt>
      <trkpt lat="42.70257" lon="1.64512">
        <ele>1658.4</ele>
        <time>2020-02-09T09:52:56Z</time>
      </trkpt>
      <trkpt lat="42.70257" lon="1.64512">
        <ele>1658.4</ele>
        <time>2020-02-09T09:53:01Z</time>
      </trkpt>
      <trkpt lat="42.70257" lon="1.64512">
        <ele>1658.4</ele>
        <time>2020-02-09T09:53:11Z</time>
      </trkpt>
      <trkpt lat="42.70259" lon="1.64514">
        <ele>1658.4</ele>
        <time>2020-02-09T09:53:12Z</time>
      </trkpt>
      <trkpt lat="42.70259" lon="1.64514">
        <ele>1658.4</ele>
        <time>2020-02-09T09:53:21Z</time>
      </trkpt>
      <trkpt lat="42.70259" lon="1.64514">
        <ele>1658.4</ele>
        <time>2020-02-09T09:53:31Z</time>
      </trkpt>
      <trkpt lat="42.70259" lon="1.64514">
        <ele>1658.4</ele>
        <time>2020-02-09T09:53:41Z</time>
      </trkpt>
      <trkpt lat="42.70263" lon="1.64526">
        <ele>1659.3</ele>
        <time>2020-02-09T09:53:46Z</time>
      </trkpt>
      <trkpt lat="42.70263" lon="1.64526">
        <ele>1659.3</ele>
        <time>2020-02-09T09:53:51Z</time>
      </trkpt>
      <trkpt lat="42.70263" lon="1.64529">
        <ele>1659.3</ele>
        <time>2020-02-09T09:53:55Z</time>
      </trkpt>
      <trkpt lat="42.70263" lon="1.64529">
        <ele>1659.3</ele>
        <time>2020-02-09T09:54:01Z</time>
      </trkpt>
      <trkpt lat="42.70263" lon="1.64529">
        <ele>1659.3</ele>
        <time>2020-02-09T09:54:11Z</time>
      </trkpt>
      <trkpt lat="42.70254" lon="1.64532">
        <ele>1661.8</ele>
        <time>2020-02-09T09:54:13Z</time>
      </trkpt>
      <trkpt lat="42.70253" lon="1.64534">
        <ele>1663.2</ele>
        <time>2020-02-09T09:54:19Z</time>
      </trkpt>
      <trkpt lat="42.70253" lon="1.64534">
        <ele>1663.2</ele>
        <time>2020-02-09T09:54:21Z</time>
      </trkpt>
      <trkpt lat="42.70253" lon="1.64534">
        <ele>1663.2</ele>
        <time>2020-02-09T09:54:31Z</time>
      </trkpt>
      <trkpt lat="42.70256" lon="1.64537">
        <ele>1661.8</ele>
        <time>2020-02-09T09:54:39Z</time>
      </trkpt>
      <trkpt lat="42.70256" lon="1.64537">
        <ele>1661.8</ele>
        <time>2020-02-09T09:54:41Z</time>
      </trkpt>
      <trkpt lat="42.70254" lon="1.64542">
        <ele>1663.8</ele>
        <time>2020-02-09T09:54:50Z</time>
      </trkpt>
      <trkpt lat="42.70254" lon="1.64542">
        <ele>1663.8</ele>
        <time>2020-02-09T09:54:51Z</time>
      </trkpt>
      <trkpt lat="42.70251" lon="1.64544">
        <ele>1664.4</ele>
        <time>2020-02-09T09:54:58Z</time>
      </trkpt>
      <trkpt lat="42.70251" lon="1.64544">
        <ele>1664.4</ele>
        <time>2020-02-09T09:55:01Z</time>
      </trkpt>
      <trkpt lat="42.70249" lon="1.64547">
        <ele>1665.7</ele>
        <time>2020-02-09T09:55:06Z</time>
      </trkpt>
      <trkpt lat="42.70249" lon="1.64547">
        <ele>1665.7</ele>
        <time>2020-02-09T09:55:11Z</time>
      </trkpt>
      <trkpt lat="42.70249" lon="1.64547">
        <ele>1665.7</ele>
        <time>2020-02-09T09:55:21Z</time>
      </trkpt>
      <trkpt lat="42.7024" lon="1.6455">
        <ele>1667.4</ele>
        <time>2020-02-09T09:55:29Z</time>
      </trkpt>
      <trkpt lat="42.7024" lon="1.6455">
        <ele>1667.4</ele>
        <time>2020-02-09T09:55:31Z</time>
      </trkpt>
      <trkpt lat="42.7024" lon="1.6455">
        <ele>1667.4</ele>
        <time>2020-02-09T09:55:41Z</time>
      </trkpt>
      <trkpt lat="42.7024" lon="1.6455">
        <ele>1667.4</ele>
        <time>2020-02-09T09:55:51Z</time>
      </trkpt>
      <trkpt lat="42.7024" lon="1.6455">
        <ele>1667.4</ele>
        <time>2020-02-09T09:56:01Z</time>
      </trkpt>
      <trkpt lat="42.7024" lon="1.6455">
        <ele>1667.4</ele>
        <time>2020-02-09T09:56:11Z</time>
      </trkpt>
      <trkpt lat="42.70234" lon="1.64556">
        <ele>1669.6</ele>
        <time>2020-02-09T09:56:16Z</time>
      </trkpt>
      <trkpt lat="42.70234" lon="1.64556">
        <ele>1669.6</ele>
        <time>2020-02-09T09:56:21Z</time>
      </trkpt>
      <trkpt lat="42.70233" lon="1.64558">
        <ele>1669.6</ele>
        <time>2020-02-09T09:56:25Z</time>
      </trkpt>
      <trkpt lat="42.70231" lon="1.64559">
        <ele>1670.2</ele>
        <time>2020-02-09T09:56:31Z</time>
      </trkpt>
      <trkpt lat="42.70228" lon="1.6456">
        <ele>1670.8</ele>
        <time>2020-02-09T09:56:41Z</time>
      </trkpt>
      <trkpt lat="42.70226" lon="1.6456">
        <ele>1671.4</ele>
        <time>2020-02-09T09:56:49Z</time>
      </trkpt>
      <trkpt lat="42.70226" lon="1.6456">
        <ele>1671.4</ele>
        <time>2020-02-09T09:56:51Z</time>
      </trkpt>
      <trkpt lat="42.70221" lon="1.64558">
        <ele>1671.6</ele>
        <time>2020-02-09T09:56:58Z</time>
      </trkpt>
      <trkpt lat="42.70221" lon="1.64558">
        <ele>1671.6</ele>
        <time>2020-02-09T09:57:01Z</time>
      </trkpt>
      <trkpt lat="42.7022" lon="1.6456">
        <ele>1672.8</ele>
        <time>2020-02-09T09:57:03Z</time>
      </trkpt>
      <trkpt lat="42.7022" lon="1.6456">
        <ele>1672.8</ele>
        <time>2020-02-09T09:57:11Z</time>
      </trkpt>
      <trkpt lat="42.70216" lon="1.64563">
        <ele>1673.4</ele>
        <time>2020-02-09T09:57:14Z</time>
      </trkpt>
      <trkpt lat="42.70216" lon="1.64563">
        <ele>1673.4</ele>
        <time>2020-02-09T09:57:21Z</time>
      </trkpt>
      <trkpt lat="42.70216" lon="1.64563">
        <ele>1673.4</ele>
        <time>2020-02-09T09:57:31Z</time>
      </trkpt>
      <trkpt lat="42.70212" lon="1.64566">
        <ele>1674.9</ele>
        <time>2020-02-09T09:57:36Z</time>
      </trkpt>
      <trkpt lat="42.70212" lon="1.64566">
        <ele>1674.9</ele>
        <time>2020-02-09T09:57:41Z</time>
      </trkpt>
      <trkpt lat="42.7021" lon="1.64567">
        <ele>1674.9</ele>
        <time>2020-02-09T09:57:45Z</time>
      </trkpt>
      <trkpt lat="42.70207" lon="1.64569">
        <ele>1675.7</ele>
        <time>2020-02-09T09:57:51Z</time>
      </trkpt>
      <trkpt lat="42.70209" lon="1.64572">
        <ele>1675.7</ele>
        <time>2020-02-09T09:58:01Z</time>
      </trkpt>
      <trkpt lat="42.70208" lon="1.64574">
        <ele>1675.9</ele>
        <time>2020-02-09T09:58:07Z</time>
      </trkpt>
      <trkpt lat="42.70208" lon="1.64574">
        <ele>1675.9</ele>
        <time>2020-02-09T09:58:11Z</time>
      </trkpt>
      <trkpt lat="42.70207" lon="1.64577">
        <ele>1676.1</ele>
        <time>2020-02-09T09:58:12Z</time>
      </trkpt>
      <trkpt lat="42.70207" lon="1.6458">
        <ele>1676.1</ele>
        <time>2020-02-09T09:58:15Z</time>
      </trkpt>
      <trkpt lat="42.70205" lon="1.64584">
        <ele>1676.7</ele>
        <time>2020-02-09T09:58:20Z</time>
      </trkpt>
      <trkpt lat="42.70205" lon="1.64584">
        <ele>1676.7</ele>
        <time>2020-02-09T09:58:21Z</time>
      </trkpt>
      <trkpt lat="42.70204" lon="1.64587">
        <ele>1676.9</ele>
        <time>2020-02-09T09:58:23Z</time>
      </trkpt>
      <trkpt lat="42.70204" lon="1.64589">
        <ele>1677.1</ele>
        <time>2020-02-09T09:58:27Z</time>
      </trkpt>
      <trkpt lat="42.70204" lon="1.64593">
        <ele>1677.1</ele>
        <time>2020-02-09T09:58:31Z</time>
      </trkpt>
      <trkpt lat="42.70204" lon="1.64593">
        <ele>1677.1</ele>
        <time>2020-02-09T09:58:41Z</time>
      </trkpt>
      <trkpt lat="42.70194" lon="1.64596">
        <ele>1678.3</ele>
        <time>2020-02-09T09:58:46Z</time>
      </trkpt>
      <trkpt lat="42.70194" lon="1.64596">
        <ele>1678.3</ele>
        <time>2020-02-09T09:58:51Z</time>
      </trkpt>
      <trkpt lat="42.70197" lon="1.64599">
        <ele>1678</ele>
        <time>2020-02-09T09:58:55Z</time>
      </trkpt>
      <trkpt lat="42.70197" lon="1.646">
        <ele>1678</ele>
        <time>2020-02-09T09:59:01Z</time>
      </trkpt>
      <trkpt lat="42.70198" lon="1.64602">
        <ele>1678.2</ele>
        <time>2020-02-09T09:59:05Z</time>
      </trkpt>
      <trkpt lat="42.70199" lon="1.64604">
        <ele>1678.2</ele>
        <time>2020-02-09T09:59:06Z</time>
      </trkpt>
      <trkpt lat="42.702" lon="1.64606">
        <ele>1677.9</ele>
        <time>2020-02-09T09:59:10Z</time>
      </trkpt>
      <trkpt lat="42.702" lon="1.64607">
        <ele>1678.1</ele>
        <time>2020-02-09T09:59:11Z</time>
      </trkpt>
      <trkpt lat="42.70202" lon="1.64612">
        <ele>1678.1</ele>
        <time>2020-02-09T09:59:13Z</time>
      </trkpt>
      <trkpt lat="42.70203" lon="1.64614">
        <ele>1678.1</ele>
        <time>2020-02-09T09:59:16Z</time>
      </trkpt>
      <trkpt lat="42.70204" lon="1.64616">
        <ele>1678.3</ele>
        <time>2020-02-09T09:59:20Z</time>
      </trkpt>
      <trkpt lat="42.70205" lon="1.64617">
        <ele>1678.3</ele>
        <time>2020-02-09T09:59:21Z</time>
      </trkpt>
      <trkpt lat="42.70208" lon="1.64621">
        <ele>1678.4</ele>
        <time>2020-02-09T09:59:24Z</time>
      </trkpt>
      <trkpt lat="42.70209" lon="1.64623">
        <ele>1678.3</ele>
        <time>2020-02-09T09:59:27Z</time>
      </trkpt>
      <trkpt lat="42.7021" lon="1.64624">
        <ele>1678.6</ele>
        <time>2020-02-09T09:59:30Z</time>
      </trkpt>
      <trkpt lat="42.70211" lon="1.64625">
        <ele>1678.6</ele>
        <time>2020-02-09T09:59:31Z</time>
      </trkpt>
      <trkpt lat="42.70213" lon="1.64628">
        <ele>1678.8</ele>
        <time>2020-02-09T09:59:34Z</time>
      </trkpt>
      <trkpt lat="42.70214" lon="1.64632">
        <ele>1679</ele>
        <time>2020-02-09T09:59:38Z</time>
      </trkpt>
      <trkpt lat="42.70214" lon="1.64632">
        <ele>1679</ele>
        <time>2020-02-09T09:59:41Z</time>
      </trkpt>
      <trkpt lat="42.70222" lon="1.64641">
        <ele>1679.9</ele>
        <time>2020-02-09T09:59:50Z</time>
      </trkpt>
      <trkpt lat="42.70222" lon="1.64641">
        <ele>1679.9</ele>
        <time>2020-02-09T09:59:51Z</time>
      </trkpt>
      <trkpt lat="42.70222" lon="1.64641">
        <ele>1679.9</ele>
        <time>2020-02-09T10:00:01Z</time>
      </trkpt>
      <trkpt lat="42.70227" lon="1.64651">
        <ele>1680.5</ele>
        <time>2020-02-09T10:00:03Z</time>
      </trkpt>
      <trkpt lat="42.70227" lon="1.64651">
        <ele>1680.5</ele>
        <time>2020-02-09T10:00:11Z</time>
      </trkpt>
      <trkpt lat="42.70234" lon="1.64658">
        <ele>1681.2</ele>
        <time>2020-02-09T10:00:12Z</time>
      </trkpt>
      <trkpt lat="42.70241" lon="1.64668">
        <ele>1681.5</ele>
        <time>2020-02-09T10:00:21Z</time>
      </trkpt>
      <trkpt lat="42.70241" lon="1.64668">
        <ele>1681.5</ele>
        <time>2020-02-09T10:00:31Z</time>
      </trkpt>
      <trkpt lat="42.70248" lon="1.64677">
        <ele>1682.2</ele>
        <time>2020-02-09T10:00:34Z</time>
      </trkpt>
      <trkpt lat="42.70248" lon="1.64677">
        <ele>1682.2</ele>
        <time>2020-02-09T10:00:41Z</time>
      </trkpt>
      <trkpt lat="42.70252" lon="1.64688">
        <ele>1683.5</ele>
        <time>2020-02-09T10:00:46Z</time>
      </trkpt>
      <trkpt lat="42.70252" lon="1.64688">
        <ele>1683.5</ele>
        <time>2020-02-09T10:00:51Z</time>
      </trkpt>
      <trkpt lat="42.70252" lon="1.64688">
        <ele>1683.5</ele>
        <time>2020-02-09T10:01:01Z</time>
      </trkpt>
      <trkpt lat="42.70259" lon="1.64686">
        <ele>1683.7</ele>
        <time>2020-02-09T10:01:07Z</time>
      </trkpt>
      <trkpt lat="42.70259" lon="1.64686">
        <ele>1683.7</ele>
        <time>2020-02-09T10:01:11Z</time>
      </trkpt>
      <trkpt lat="42.7026" lon="1.64689">
        <ele>1684.3</ele>
        <time>2020-02-09T10:01:17Z</time>
      </trkpt>
      <trkpt lat="42.7026" lon="1.64689">
        <ele>1684.3</ele>
        <time>2020-02-09T10:01:21Z</time>
      </trkpt>
      <trkpt lat="42.7026" lon="1.64691">
        <ele>1684.3</ele>
        <time>2020-02-09T10:01:22Z</time>
      </trkpt>
      <trkpt lat="42.7026" lon="1.64695">
        <ele>1684.8</ele>
        <time>2020-02-09T10:01:28Z</time>
      </trkpt>
      <trkpt lat="42.70261" lon="1.64697">
        <ele>1685.2</ele>
        <time>2020-02-09T10:01:31Z</time>
      </trkpt>
      <trkpt lat="42.70262" lon="1.647">
        <ele>1685.2</ele>
        <time>2020-02-09T10:01:34Z</time>
      </trkpt>
      <trkpt lat="42.70262" lon="1.647">
        <ele>1685.2</ele>
        <time>2020-02-09T10:01:41Z</time>
      </trkpt>
      <trkpt lat="42.70266" lon="1.6471">
        <ele>1686.6</ele>
        <time>2020-02-09T10:01:45Z</time>
      </trkpt>
      <trkpt lat="42.70266" lon="1.6471">
        <ele>1686.6</ele>
        <time>2020-02-09T10:01:51Z</time>
      </trkpt>
      <trkpt lat="42.70272" lon="1.6472">
        <ele>1687.4</ele>
        <time>2020-02-09T10:01:54Z</time>
      </trkpt>
      <trkpt lat="42.70272" lon="1.6472">
        <ele>1687.4</ele>
        <time>2020-02-09T10:02:01Z</time>
      </trkpt>
      <trkpt lat="42.70278" lon="1.6473">
        <ele>1688.1</ele>
        <time>2020-02-09T10:02:03Z</time>
      </trkpt>
      <trkpt lat="42.70278" lon="1.6473">
        <ele>1688.1</ele>
        <time>2020-02-09T10:02:11Z</time>
      </trkpt>
      <trkpt lat="42.70283" lon="1.6474">
        <ele>1689.2</ele>
        <time>2020-02-09T10:02:14Z</time>
      </trkpt>
      <trkpt lat="42.70283" lon="1.6474">
        <ele>1689.2</ele>
        <time>2020-02-09T10:02:21Z</time>
      </trkpt>
      <trkpt lat="42.70288" lon="1.64751">
        <ele>1690</ele>
        <time>2020-02-09T10:02:22Z</time>
      </trkpt>
      <trkpt lat="42.70288" lon="1.64751">
        <ele>1690</ele>
        <time>2020-02-09T10:02:31Z</time>
      </trkpt>
      <trkpt lat="42.70293" lon="1.64761">
        <ele>1690.7</ele>
        <time>2020-02-09T10:02:33Z</time>
      </trkpt>
      <trkpt lat="42.70293" lon="1.64761">
        <ele>1690.7</ele>
        <time>2020-02-09T10:02:41Z</time>
      </trkpt>
      <trkpt lat="42.70299" lon="1.64771">
        <ele>1691.5</ele>
        <time>2020-02-09T10:02:44Z</time>
      </trkpt>
      <trkpt lat="42.703" lon="1.64772">
        <ele>1691.8</ele>
        <time>2020-02-09T10:02:46Z</time>
      </trkpt>
      <trkpt lat="42.703" lon="1.64772">
        <ele>1691.8</ele>
        <time>2020-02-09T10:02:51Z</time>
      </trkpt>
      <trkpt lat="42.70307" lon="1.64782">
        <ele>1692.8</ele>
        <time>2020-02-09T10:02:57Z</time>
      </trkpt>
      <trkpt lat="42.70307" lon="1.64782">
        <ele>1692.8</ele>
        <time>2020-02-09T10:03:01Z</time>
      </trkpt>
      <trkpt lat="42.70315" lon="1.64798">
        <ele>1694.4</ele>
        <time>2020-02-09T10:03:10Z</time>
      </trkpt>
      <trkpt lat="42.70318" lon="1.64803">
        <ele>1694.9</ele>
        <time>2020-02-09T10:03:11Z</time>
      </trkpt>
      <trkpt lat="42.70321" lon="1.64808">
        <ele>1695.5</ele>
        <time>2020-02-09T10:03:21Z</time>
      </trkpt>
      <trkpt lat="42.70323" lon="1.64813">
        <ele>1695.8</ele>
        <time>2020-02-09T10:03:31Z</time>
      </trkpt>
      <trkpt lat="42.70326" lon="1.64818">
        <ele>1696.1</ele>
        <time>2020-02-09T10:03:40Z</time>
      </trkpt>
      <trkpt lat="42.70329" lon="1.64823">
        <ele>1696.4</ele>
        <time>2020-02-09T10:03:41Z</time>
      </trkpt>
      <trkpt lat="42.70333" lon="1.64835">
        <ele>1696.5</ele>
        <time>2020-02-09T10:03:50Z</time>
      </trkpt>
      <trkpt lat="42.70333" lon="1.64835">
        <ele>1696.5</ele>
        <time>2020-02-09T10:03:51Z</time>
      </trkpt>
      <trkpt lat="42.70333" lon="1.64835">
        <ele>1696.5</ele>
        <time>2020-02-09T10:04:01Z</time>
      </trkpt>
      <trkpt lat="42.70336" lon="1.64846">
        <ele>1696.5</ele>
        <time>2020-02-09T10:04:02Z</time>
      </trkpt>
      <trkpt lat="42.70336" lon="1.64846">
        <ele>1696.5</ele>
        <time>2020-02-09T10:04:11Z</time>
      </trkpt>
      <trkpt lat="42.70339" lon="1.64859">
        <ele>1696</ele>
        <time>2020-02-09T10:04:12Z</time>
      </trkpt>
      <trkpt lat="42.70339" lon="1.64859">
        <ele>1696</ele>
        <time>2020-02-09T10:04:21Z</time>
      </trkpt>
      <trkpt lat="42.70346" lon="1.64868">
        <ele>1695.4</ele>
        <time>2020-02-09T10:04:29Z</time>
      </trkpt>
      <trkpt lat="42.70349" lon="1.64868">
        <ele>1695.8</ele>
        <time>2020-02-09T10:04:31Z</time>
      </trkpt>
      <trkpt lat="42.70349" lon="1.64868">
        <ele>1695.8</ele>
        <time>2020-02-09T10:04:41Z</time>
      </trkpt>
      <trkpt lat="42.70354" lon="1.64871">
        <ele>1696.3</ele>
        <time>2020-02-09T10:04:43Z</time>
      </trkpt>
      <trkpt lat="42.70354" lon="1.64871">
        <ele>1696.3</ele>
        <time>2020-02-09T10:04:51Z</time>
      </trkpt>
      <trkpt lat="42.70363" lon="1.64869">
        <ele>1696.8</ele>
        <time>2020-02-09T10:05:01Z</time>
      </trkpt>
      <trkpt lat="42.70363" lon="1.64869">
        <ele>1696.8</ele>
        <time>2020-02-09T10:05:11Z</time>
      </trkpt>
      <trkpt lat="42.70373" lon="1.64872">
        <ele>1697.1</ele>
        <time>2020-02-09T10:05:14Z</time>
      </trkpt>
      <trkpt lat="42.70373" lon="1.64872">
        <ele>1697.1</ele>
        <time>2020-02-09T10:05:21Z</time>
      </trkpt>
      <trkpt lat="42.70382" lon="1.64872">
        <ele>1697.7</ele>
        <time>2020-02-09T10:05:25Z</time>
      </trkpt>
      <trkpt lat="42.70382" lon="1.64872">
        <ele>1697.7</ele>
        <time>2020-02-09T10:05:31Z</time>
      </trkpt>
      <trkpt lat="42.70391" lon="1.64876">
        <ele>1697.6</ele>
        <time>2020-02-09T10:05:39Z</time>
      </trkpt>
      <trkpt lat="42.70391" lon="1.64876">
        <ele>1697.6</ele>
        <time>2020-02-09T10:05:41Z</time>
      </trkpt>
      <trkpt lat="42.70391" lon="1.64876">
        <ele>1697.6</ele>
        <time>2020-02-09T10:05:51Z</time>
      </trkpt>
      <trkpt lat="42.704" lon="1.64879">
        <ele>1697.2</ele>
        <time>2020-02-09T10:05:52Z</time>
      </trkpt>
      <trkpt lat="42.704" lon="1.64879">
        <ele>1697.2</ele>
        <time>2020-02-09T10:06:01Z</time>
      </trkpt>
      <trkpt lat="42.70409" lon="1.6488">
        <ele>1696.2</ele>
        <time>2020-02-09T10:06:03Z</time>
      </trkpt>
      <trkpt lat="42.70409" lon="1.6488">
        <ele>1696.2</ele>
        <time>2020-02-09T10:06:11Z</time>
      </trkpt>
      <trkpt lat="42.70409" lon="1.6488">
        <ele>1696.2</ele>
        <time>2020-02-09T10:06:21Z</time>
      </trkpt>
      <trkpt lat="42.70417" lon="1.64889">
        <ele>1695</ele>
        <time>2020-02-09T10:06:24Z</time>
      </trkpt>
      <trkpt lat="42.7041" lon="1.64881">
        <ele>1696.2</ele>
        <time>2020-02-09T10:06:27Z</time>
      </trkpt>
      <trkpt lat="42.7041" lon="1.64881">
        <ele>1696.2</ele>
        <time>2020-02-09T10:06:31Z</time>
      </trkpt>
      <trkpt lat="42.70411" lon="1.64879">
        <ele>1695.7</ele>
        <time>2020-02-09T10:06:36Z</time>
      </trkpt>
      <trkpt lat="42.70411" lon="1.64879">
        <ele>1695.7</ele>
        <time>2020-02-09T10:06:41Z</time>
      </trkpt>
      <trkpt lat="42.70411" lon="1.64879">
        <ele>1695.7</ele>
        <time>2020-02-09T10:06:51Z</time>
      </trkpt>
      <trkpt lat="42.70411" lon="1.64879">
        <ele>1695.7</ele>
        <time>2020-02-09T10:07:01Z</time>
      </trkpt>
      <trkpt lat="42.70411" lon="1.64882">
        <ele>1695.7</ele>
        <time>2020-02-09T10:07:03Z</time>
      </trkpt>
      <trkpt lat="42.70411" lon="1.64882">
        <ele>1695.7</ele>
        <time>2020-02-09T10:07:11Z</time>
      </trkpt>
      <trkpt lat="42.70411" lon="1.64882">
        <ele>1695.7</ele>
        <time>2020-02-09T10:07:21Z</time>
      </trkpt>
      <trkpt lat="42.70412" lon="1.6488">
        <ele>1695.7</ele>
        <time>2020-02-09T10:07:31Z</time>
      </trkpt>
      <trkpt lat="42.70414" lon="1.64881">
        <ele>1695.2</ele>
        <time>2020-02-09T10:07:39Z</time>
      </trkpt>
      <trkpt lat="42.70414" lon="1.64881">
        <ele>1695.2</ele>
        <time>2020-02-09T10:07:41Z</time>
      </trkpt>
      <trkpt lat="42.70414" lon="1.64881">
        <ele>1695.2</ele>
        <time>2020-02-09T10:07:51Z</time>
      </trkpt>
      <trkpt lat="42.70414" lon="1.64881">
        <ele>1695.2</ele>
        <time>2020-02-09T10:08:01Z</time>
      </trkpt>
      <trkpt lat="42.70413" lon="1.64878">
        <ele>1695.7</ele>
        <time>2020-02-09T10:08:02Z</time>
      </trkpt>
      <trkpt lat="42.7041" lon="1.64878">
        <ele>1696.2</ele>
        <time>2020-02-09T10:08:07Z</time>
      </trkpt>
      <trkpt lat="42.7041" lon="1.64878">
        <ele>1696.2</ele>
        <time>2020-02-09T10:08:11Z</time>
      </trkpt>
      <trkpt lat="42.70408" lon="1.64877">
        <ele>1696.2</ele>
        <time>2020-02-09T10:08:15Z</time>
      </trkpt>
      <trkpt lat="42.70406" lon="1.64877">
        <ele>1696.7</ele>
        <time>2020-02-09T10:08:18Z</time>
      </trkpt>
      <trkpt lat="42.70406" lon="1.64877">
        <ele>1696.7</ele>
        <time>2020-02-09T10:08:21Z</time>
      </trkpt>
      <trkpt lat="42.70404" lon="1.64877">
        <ele>1696.7</ele>
        <time>2020-02-09T10:08:22Z</time>
      </trkpt>
      <trkpt lat="42.70403" lon="1.64877">
        <ele>1697</ele>
        <time>2020-02-09T10:08:24Z</time>
      </trkpt>
      <trkpt lat="42.70395" lon="1.64875">
        <ele>1697.4</ele>
        <time>2020-02-09T10:08:29Z</time>
      </trkpt>
      <trkpt lat="42.70393" lon="1.64874">
        <ele>1697.5</ele>
        <time>2020-02-09T10:08:31Z</time>
      </trkpt>
      <trkpt lat="42.7039" lon="1.64874">
        <ele>1697.6</ele>
        <time>2020-02-09T10:08:33Z</time>
      </trkpt>
      <trkpt lat="42.70388" lon="1.64873">
        <ele>1697.6</ele>
        <time>2020-02-09T10:08:35Z</time>
      </trkpt>
      <trkpt lat="42.70386" lon="1.64872">
        <ele>1697.7</ele>
        <time>2020-02-09T10:08:37Z</time>
      </trkpt>
      <trkpt lat="42.70384" lon="1.64872">
        <ele>1697.8</ele>
        <time>2020-02-09T10:08:38Z</time>
      </trkpt>
      <trkpt lat="42.70382" lon="1.64872">
        <ele>1697.7</ele>
        <time>2020-02-09T10:08:41Z</time>
      </trkpt>
      <trkpt lat="42.70379" lon="1.64871">
        <ele>1697.7</ele>
        <time>2020-02-09T10:08:45Z</time>
      </trkpt>
      <trkpt lat="42.70379" lon="1.64871">
        <ele>1697.7</ele>
        <time>2020-02-09T10:08:51Z</time>
      </trkpt>
      <trkpt lat="42.70378" lon="1.64872">
        <ele>1697.7</ele>
        <time>2020-02-09T10:09:01Z</time>
      </trkpt>
      <trkpt lat="42.70375" lon="1.64871">
        <ele>1697.6</ele>
        <time>2020-02-09T10:09:03Z</time>
      </trkpt>
      <trkpt lat="42.70373" lon="1.64871">
        <ele>1697.6</ele>
        <time>2020-02-09T10:09:05Z</time>
      </trkpt>
      <trkpt lat="42.7037" lon="1.6487">
        <ele>1697.4</ele>
        <time>2020-02-09T10:09:08Z</time>
      </trkpt>
      <trkpt lat="42.70367" lon="1.6487">
        <ele>1697.3</ele>
        <time>2020-02-09T10:09:11Z</time>
      </trkpt>
      <trkpt lat="42.70362" lon="1.6487">
        <ele>1696.8</ele>
        <time>2020-02-09T10:09:16Z</time>
      </trkpt>
      <trkpt lat="42.70361" lon="1.6487">
        <ele>1696.8</ele>
        <time>2020-02-09T10:09:17Z</time>
      </trkpt>
      <trkpt lat="42.7036" lon="1.6487">
        <ele>1696.8</ele>
        <time>2020-02-09T10:09:20Z</time>
      </trkpt>
      <trkpt lat="42.70359" lon="1.6487">
        <ele>1696.6</ele>
        <time>2020-02-09T10:09:21Z</time>
      </trkpt>
      <trkpt lat="42.70358" lon="1.64872">
        <ele>1696.2</ele>
        <time>2020-02-09T10:09:24Z</time>
      </trkpt>
      <trkpt lat="42.70358" lon="1.64872">
        <ele>1696.2</ele>
        <time>2020-02-09T10:09:31Z</time>
      </trkpt>
      <trkpt lat="42.70356" lon="1.64879">
        <ele>1695.4</ele>
        <time>2020-02-09T10:09:33Z</time>
      </trkpt>
      <trkpt lat="42.70353" lon="1.64882">
        <ele>1694.6</ele>
        <time>2020-02-09T10:09:37Z</time>
      </trkpt>
      <trkpt lat="42.70352" lon="1.64884">
        <ele>1694.6</ele>
        <time>2020-02-09T10:09:41Z</time>
      </trkpt>
      <trkpt lat="42.70349" lon="1.64883">
        <ele>1694.4</ele>
        <time>2020-02-09T10:09:44Z</time>
      </trkpt>
      <trkpt lat="42.70347" lon="1.64882">
        <ele>1694</ele>
        <time>2020-02-09T10:09:50Z</time>
      </trkpt>
      <trkpt lat="42.70346" lon="1.6488">
        <ele>1694.5</ele>
        <time>2020-02-09T10:09:51Z</time>
      </trkpt>
      <trkpt lat="42.70344" lon="1.64879">
        <ele>1694.1</ele>
        <time>2020-02-09T10:09:52Z</time>
      </trkpt>
      <trkpt lat="42.70341" lon="1.64877">
        <ele>1694.1</ele>
        <time>2020-02-09T10:09:56Z</time>
      </trkpt>
      <trkpt lat="42.70341" lon="1.64877">
        <ele>1694.1</ele>
        <time>2020-02-09T10:10:01Z</time>
      </trkpt>
      <trkpt lat="42.70334" lon="1.64867">
        <ele>1694.3</ele>
        <time>2020-02-09T10:10:02Z</time>
      </trkpt>
      <trkpt lat="42.70332" lon="1.64865">
        <ele>1693.9</ele>
        <time>2020-02-09T10:10:04Z</time>
      </trkpt>
      <trkpt lat="42.70329" lon="1.64862">
        <ele>1694.3</ele>
        <time>2020-02-09T10:10:11Z</time>
      </trkpt>
      <trkpt lat="42.70327" lon="1.6486">
        <ele>1693.9</ele>
        <time>2020-02-09T10:10:12Z</time>
      </trkpt>
      <trkpt lat="42.70325" lon="1.64858">
        <ele>1693.9</ele>
        <time>2020-02-09T10:10:18Z</time>
      </trkpt>
      <trkpt lat="42.70323" lon="1.64855">
        <ele>1693.9</ele>
        <time>2020-02-09T10:10:20Z</time>
      </trkpt>
      <trkpt lat="42.70321" lon="1.64853">
        <ele>1693.9</ele>
        <time>2020-02-09T10:10:21Z</time>
      </trkpt>
      <trkpt lat="42.70311" lon="1.64843">
        <ele>1693.1</ele>
        <time>2020-02-09T10:10:31Z</time>
      </trkpt>
      <trkpt lat="42.70308" lon="1.64839">
        <ele>1692.9</ele>
        <time>2020-02-09T10:10:41Z</time>
      </trkpt>
      <trkpt lat="42.70305" lon="1.64835">
        <ele>1692.6</ele>
        <time>2020-02-09T10:10:43Z</time>
      </trkpt>
      <trkpt lat="42.70302" lon="1.64831">
        <ele>1692.3</ele>
        <time>2020-02-09T10:10:51Z</time>
      </trkpt>
      <trkpt lat="42.703" lon="1.64827">
        <ele>1691.8</ele>
        <time>2020-02-09T10:10:54Z</time>
      </trkpt>
      <trkpt lat="42.70297" lon="1.64823">
        <ele>1691.4</ele>
        <time>2020-02-09T10:11:01Z</time>
      </trkpt>
      <trkpt lat="42.70294" lon="1.64819">
        <ele>1691.5</ele>
        <time>2020-02-09T10:11:04Z</time>
      </trkpt>
      <trkpt lat="42.70291" lon="1.64815">
        <ele>1690.9</ele>
        <time>2020-02-09T10:11:11Z</time>
      </trkpt>
      <trkpt lat="42.70288" lon="1.64811">
        <ele>1690.5</ele>
        <time>2020-02-09T10:11:12Z</time>
      </trkpt>
      <trkpt lat="42.70286" lon="1.64807">
        <ele>1690</ele>
        <time>2020-02-09T10:11:14Z</time>
      </trkpt>
      <trkpt lat="42.70283" lon="1.64803">
        <ele>1689.5</ele>
        <time>2020-02-09T10:11:21Z</time>
      </trkpt>
      <trkpt lat="42.7028" lon="1.64798">
        <ele>1689</ele>
        <time>2020-02-09T10:11:22Z</time>
      </trkpt>
      <trkpt lat="42.70277" lon="1.64794">
        <ele>1688.5</ele>
        <time>2020-02-09T10:11:30Z</time>
      </trkpt>
      <trkpt lat="42.70274" lon="1.6479">
        <ele>1687.9</ele>
        <time>2020-02-09T10:11:31Z</time>
      </trkpt>
      <trkpt lat="42.70265" lon="1.64791">
        <ele>1686</ele>
        <time>2020-02-09T10:11:39Z</time>
      </trkpt>
      <trkpt lat="42.70265" lon="1.64791">
        <ele>1686</ele>
        <time>2020-02-09T10:11:41Z</time>
      </trkpt>
      <trkpt lat="42.70257" lon="1.64773">
        <ele>1685.5</ele>
        <time>2020-02-09T10:11:51Z</time>
      </trkpt>
      <trkpt lat="42.70256" lon="1.64763">
        <ele>1685.8</ele>
        <time>2020-02-09T10:11:59Z</time>
      </trkpt>
      <trkpt lat="42.70256" lon="1.64753">
        <ele>1686</ele>
        <time>2020-02-09T10:12:01Z</time>
      </trkpt>
      <trkpt lat="42.70249" lon="1.64743">
        <ele>1684.7</ele>
        <time>2020-02-09T10:12:07Z</time>
      </trkpt>
      <trkpt lat="42.70249" lon="1.64743">
        <ele>1684.7</ele>
        <time>2020-02-09T10:12:11Z</time>
      </trkpt>
      <trkpt lat="42.70246" lon="1.64734">
        <ele>1684.4</ele>
        <time>2020-02-09T10:12:13Z</time>
      </trkpt>
      <trkpt lat="42.70243" lon="1.64732">
        <ele>1683.9</ele>
        <time>2020-02-09T10:12:17Z</time>
      </trkpt>
      <trkpt lat="42.70241" lon="1.64731">
        <ele>1683.9</ele>
        <time>2020-02-09T10:12:21Z</time>
      </trkpt>
      <trkpt lat="42.70235" lon="1.64728">
        <ele>1683.1</ele>
        <time>2020-02-09T10:12:27Z</time>
      </trkpt>
      <trkpt lat="42.70235" lon="1.64727">
        <ele>1683.1</ele>
        <time>2020-02-09T10:12:30Z</time>
      </trkpt>
      <trkpt lat="42.70234" lon="1.64727">
        <ele>1682.6</ele>
        <time>2020-02-09T10:12:31Z</time>
      </trkpt>
      <trkpt lat="42.70226" lon="1.6472">
        <ele>1681.9</ele>
        <time>2020-02-09T10:12:40Z</time>
      </trkpt>
      <trkpt lat="42.70226" lon="1.6472">
        <ele>1681.9</ele>
        <time>2020-02-09T10:12:41Z</time>
      </trkpt>
      <trkpt lat="42.70219" lon="1.64714">
        <ele>1681.1</ele>
        <time>2020-02-09T10:12:48Z</time>
      </trkpt>
      <trkpt lat="42.70215" lon="1.64712">
        <ele>1680.8</ele>
        <time>2020-02-09T10:12:51Z</time>
      </trkpt>
      <trkpt lat="42.70206" lon="1.64707">
        <ele>1679.5</ele>
        <time>2020-02-09T10:12:59Z</time>
      </trkpt>
      <trkpt lat="42.70206" lon="1.64707">
        <ele>1679.5</ele>
        <time>2020-02-09T10:13:01Z</time>
      </trkpt>
      <trkpt lat="42.70197" lon="1.64699">
        <ele>1678.2</ele>
        <time>2020-02-09T10:13:10Z</time>
      </trkpt>
      <trkpt lat="42.70197" lon="1.64699">
        <ele>1678.2</ele>
        <time>2020-02-09T10:13:11Z</time>
      </trkpt>
      <trkpt lat="42.70197" lon="1.64699">
        <ele>1678.2</ele>
        <time>2020-02-09T10:13:21Z</time>
      </trkpt>
      <trkpt lat="42.7019" lon="1.64699">
        <ele>1677.1</ele>
        <time>2020-02-09T10:13:31Z</time>
      </trkpt>
      <trkpt lat="42.70187" lon="1.64701">
        <ele>1676.2</ele>
        <time>2020-02-09T10:13:34Z</time>
      </trkpt>
      <trkpt lat="42.70183" lon="1.64704">
        <ele>1675.1</ele>
        <time>2020-02-09T10:13:39Z</time>
      </trkpt>
      <trkpt lat="42.70183" lon="1.64704">
        <ele>1675.1</ele>
        <time>2020-02-09T10:13:41Z</time>
      </trkpt>
      <trkpt lat="42.7018" lon="1.64704">
        <ele>1674.6</ele>
        <time>2020-02-09T10:13:46Z</time>
      </trkpt>
      <trkpt lat="42.70181" lon="1.64691">
        <ele>1676.2</ele>
        <time>2020-02-09T10:13:50Z</time>
      </trkpt>
      <trkpt lat="42.70181" lon="1.64691">
        <ele>1676.2</ele>
        <time>2020-02-09T10:13:51Z</time>
      </trkpt>
      <trkpt lat="42.7018" lon="1.64696">
        <ele>1675.4</ele>
        <time>2020-02-09T10:13:58Z</time>
      </trkpt>
      <trkpt lat="42.7018" lon="1.64696">
        <ele>1675.4</ele>
        <time>2020-02-09T10:14:01Z</time>
      </trkpt>
      <trkpt lat="42.70175" lon="1.64698">
        <ele>1674.6</ele>
        <time>2020-02-09T10:14:10Z</time>
      </trkpt>
      <trkpt lat="42.70175" lon="1.64698">
        <ele>1674.6</ele>
        <time>2020-02-09T10:14:11Z</time>
      </trkpt>
      <trkpt lat="42.70173" lon="1.64702">
        <ele>1673.7</ele>
        <time>2020-02-09T10:14:12Z</time>
      </trkpt>
      <trkpt lat="42.70169" lon="1.64706">
        <ele>1672.8</ele>
        <time>2020-02-09T10:14:16Z</time>
      </trkpt>
      <trkpt lat="42.70167" lon="1.64707">
        <ele>1672.4</ele>
        <time>2020-02-09T10:14:18Z</time>
      </trkpt>
      <trkpt lat="42.70167" lon="1.64707">
        <ele>1672.4</ele>
        <time>2020-02-09T10:14:21Z</time>
      </trkpt>
      <trkpt lat="42.70159" lon="1.64708">
        <ele>1671.8</ele>
        <time>2020-02-09T10:14:23Z</time>
      </trkpt>
      <trkpt lat="42.70157" lon="1.64708">
        <ele>1671.5</ele>
        <time>2020-02-09T10:14:30Z</time>
      </trkpt>
      <trkpt lat="42.70156" lon="1.64708">
        <ele>1671.5</ele>
        <time>2020-02-09T10:14:31Z</time>
      </trkpt>
      <trkpt lat="42.70154" lon="1.64708">
        <ele>1671.3</ele>
        <time>2020-02-09T10:14:32Z</time>
      </trkpt>
      <trkpt lat="42.70154" lon="1.64708">
        <ele>1671.3</ele>
        <time>2020-02-09T10:14:41Z</time>
      </trkpt>
      <trkpt lat="42.70148" lon="1.64707">
        <ele>1671</ele>
        <time>2020-02-09T10:14:43Z</time>
      </trkpt>
      <trkpt lat="42.70151" lon="1.64693">
        <ele>1673.3</ele>
        <time>2020-02-09T10:14:51Z</time>
      </trkpt>
      <trkpt lat="42.70152" lon="1.64691">
        <ele>1674.1</ele>
        <time>2020-02-09T10:14:56Z</time>
      </trkpt>
      <trkpt lat="42.70152" lon="1.64691">
        <ele>1674.1</ele>
        <time>2020-02-09T10:15:01Z</time>
      </trkpt>
      <trkpt lat="42.70148" lon="1.64698">
        <ele>1672.4</ele>
        <time>2020-02-09T10:15:09Z</time>
      </trkpt>
      <trkpt lat="42.70148" lon="1.64698">
        <ele>1672.4</ele>
        <time>2020-02-09T10:15:11Z</time>
      </trkpt>
      <trkpt lat="42.70146" lon="1.64699">
        <ele>1672.4</ele>
        <time>2020-02-09T10:15:16Z</time>
      </trkpt>
      <trkpt lat="42.70146" lon="1.64699">
        <ele>1672.4</ele>
        <time>2020-02-09T10:15:21Z</time>
      </trkpt>
      <trkpt lat="42.70146" lon="1.64699">
        <ele>1672.4</ele>
        <time>2020-02-09T10:15:31Z</time>
      </trkpt>
      <trkpt lat="42.7015" lon="1.64697">
        <ele>1672.5</ele>
        <time>2020-02-09T10:15:41Z</time>
      </trkpt>
      <trkpt lat="42.7015" lon="1.64697">
        <ele>1672.5</ele>
        <time>2020-02-09T10:15:51Z</time>
      </trkpt>
      <trkpt lat="42.7015" lon="1.64697">
        <ele>1672.5</ele>
        <time>2020-02-09T10:16:01Z</time>
      </trkpt>
      <trkpt lat="42.70149" lon="1.64701">
        <ele>1671.7</ele>
        <time>2020-02-09T10:16:10Z</time>
      </trkpt>
      <trkpt lat="42.70149" lon="1.64701">
        <ele>1671.7</ele>
        <time>2020-02-09T10:16:11Z</time>
      </trkpt>
      <trkpt lat="42.70149" lon="1.64701">
        <ele>1671.7</ele>
        <time>2020-02-09T10:16:21Z</time>
      </trkpt>
      <trkpt lat="42.70144" lon="1.64706">
        <ele>1670.9</ele>
        <time>2020-02-09T10:16:30Z</time>
      </trkpt>
      <trkpt lat="42.70144" lon="1.64706">
        <ele>1670.9</ele>
        <time>2020-02-09T10:16:31Z</time>
      </trkpt>
      <trkpt lat="42.70144" lon="1.64706">
        <ele>1670.9</ele>
        <time>2020-02-09T10:16:41Z</time>
      </trkpt>
      <trkpt lat="42.70142" lon="1.64704">
        <ele>1671.6</ele>
        <time>2020-02-09T10:16:45Z</time>
      </trkpt>
      <trkpt lat="42.70142" lon="1.64704">
        <ele>1671.6</ele>
        <time>2020-02-09T10:16:51Z</time>
      </trkpt>
      <trkpt lat="42.70142" lon="1.64704">
        <ele>1671.6</ele>
        <time>2020-02-09T10:17:01Z</time>
      </trkpt>
      <trkpt lat="42.70144" lon="1.647">
        <ele>1672.4</ele>
        <time>2020-02-09T10:17:04Z</time>
      </trkpt>
      <trkpt lat="42.70142" lon="1.64698">
        <ele>1672.4</ele>
        <time>2020-02-09T10:17:09Z</time>
      </trkpt>
      <trkpt lat="42.70142" lon="1.64698">
        <ele>1672.4</ele>
        <time>2020-02-09T10:17:11Z</time>
      </trkpt>
      <trkpt lat="42.70138" lon="1.64695">
        <ele>1673.4</ele>
        <time>2020-02-09T10:17:13Z</time>
      </trkpt>
      <trkpt lat="42.70135" lon="1.64693">
        <ele>1673.5</ele>
        <time>2020-02-09T10:17:17Z</time>
      </trkpt>
      <trkpt lat="42.70135" lon="1.64693">
        <ele>1673.5</ele>
        <time>2020-02-09T10:17:21Z</time>
      </trkpt>
      <trkpt lat="42.70139" lon="1.64676">
        <ele>1676.8</ele>
        <time>2020-02-09T10:17:25Z</time>
      </trkpt>
      <trkpt lat="42.70139" lon="1.64676">
        <ele>1676.8</ele>
        <time>2020-02-09T10:17:31Z</time>
      </trkpt>
      <trkpt lat="42.70131" lon="1.64681">
        <ele>1676.6</ele>
        <time>2020-02-09T10:17:37Z</time>
      </trkpt>
      <trkpt lat="42.70131" lon="1.64681">
        <ele>1676.6</ele>
        <time>2020-02-09T10:17:41Z</time>
      </trkpt>
      <trkpt lat="42.70128" lon="1.64683">
        <ele>1676.9</ele>
        <time>2020-02-09T10:17:48Z</time>
      </trkpt>
      <trkpt lat="42.70128" lon="1.64683">
        <ele>1676.9</ele>
        <time>2020-02-09T10:17:51Z</time>
      </trkpt>
      <trkpt lat="42.70126" lon="1.64681">
        <ele>1677.2</ele>
        <time>2020-02-09T10:17:53Z</time>
      </trkpt>
      <trkpt lat="42.70122" lon="1.6468">
        <ele>1677.6</ele>
        <time>2020-02-09T10:17:59Z</time>
      </trkpt>
      <trkpt lat="42.70122" lon="1.6468">
        <ele>1677.6</ele>
        <time>2020-02-09T10:18:01Z</time>
      </trkpt>
      <trkpt lat="42.70119" lon="1.64679">
        <ele>1679</ele>
        <time>2020-02-09T10:18:06Z</time>
      </trkpt>
      <trkpt lat="42.70119" lon="1.64679">
        <ele>1679</ele>
        <time>2020-02-09T10:18:11Z</time>
      </trkpt>
      <trkpt lat="42.70117" lon="1.64679">
        <ele>1679.5</ele>
        <time>2020-02-09T10:18:12Z</time>
      </trkpt>
      <trkpt lat="42.70117" lon="1.64679">
        <ele>1679.5</ele>
        <time>2020-02-09T10:18:21Z</time>
      </trkpt>
      <trkpt lat="42.70112" lon="1.64682">
        <ele>1679</ele>
        <time>2020-02-09T10:18:27Z</time>
      </trkpt>
      <trkpt lat="42.70109" lon="1.64683">
        <ele>1679.6</ele>
        <time>2020-02-09T10:18:31Z</time>
      </trkpt>
      <trkpt lat="42.70107" lon="1.64683">
        <ele>1680.1</ele>
        <time>2020-02-09T10:18:32Z</time>
      </trkpt>
      <trkpt lat="42.70106" lon="1.64684">
        <ele>1679.1</ele>
        <time>2020-02-09T10:18:38Z</time>
      </trkpt>
      <trkpt lat="42.70105" lon="1.64687">
        <ele>1679.1</ele>
        <time>2020-02-09T10:18:41Z</time>
      </trkpt>
      <trkpt lat="42.70104" lon="1.64689">
        <ele>1678.5</ele>
        <time>2020-02-09T10:18:46Z</time>
      </trkpt>
      <trkpt lat="42.70104" lon="1.64689">
        <ele>1678.5</ele>
        <time>2020-02-09T10:18:51Z</time>
      </trkpt>
      <trkpt lat="42.70102" lon="1.64691">
        <ele>1678.5</ele>
        <time>2020-02-09T10:18:52Z</time>
      </trkpt>
      <trkpt lat="42.701" lon="1.64693">
        <ele>1677.9</ele>
        <time>2020-02-09T10:18:58Z</time>
      </trkpt>
      <trkpt lat="42.701" lon="1.64693">
        <ele>1677.9</ele>
        <time>2020-02-09T10:19:01Z</time>
      </trkpt>
      <trkpt lat="42.701" lon="1.64693">
        <ele>1677.9</ele>
        <time>2020-02-09T10:19:11Z</time>
      </trkpt>
      <trkpt lat="42.701" lon="1.64696">
        <ele>1677.9</ele>
        <time>2020-02-09T10:19:16Z</time>
      </trkpt>
      <trkpt lat="42.701" lon="1.64696">
        <ele>1677.9</ele>
        <time>2020-02-09T10:19:21Z</time>
      </trkpt>
      <trkpt lat="42.70096" lon="1.64707">
        <ele>1675.2</ele>
        <time>2020-02-09T10:19:24Z</time>
      </trkpt>
      <trkpt lat="42.70098" lon="1.64704">
        <ele>1676.3</ele>
        <time>2020-02-09T10:19:31Z</time>
      </trkpt>
      <trkpt lat="42.70096" lon="1.64707">
        <ele>1675.2</ele>
        <time>2020-02-09T10:19:39Z</time>
      </trkpt>
      <trkpt lat="42.70096" lon="1.64707">
        <ele>1675.2</ele>
        <time>2020-02-09T10:19:41Z</time>
      </trkpt>
      <trkpt lat="42.70094" lon="1.64709">
        <ele>1675.8</ele>
        <time>2020-02-09T10:19:44Z</time>
      </trkpt>
      <trkpt lat="42.70092" lon="1.64711">
        <ele>1674.8</ele>
        <time>2020-02-09T10:19:49Z</time>
      </trkpt>
      <trkpt lat="42.70092" lon="1.64711">
        <ele>1674.8</ele>
        <time>2020-02-09T10:19:51Z</time>
      </trkpt>
      <trkpt lat="42.70091" lon="1.64712">
        <ele>1675.4</ele>
        <time>2020-02-09T10:19:53Z</time>
      </trkpt>
      <trkpt lat="42.70089" lon="1.64714">
        <ele>1675</ele>
        <time>2020-02-09T10:19:58Z</time>
      </trkpt>
      <trkpt lat="42.70089" lon="1.64714">
        <ele>1675</ele>
        <time>2020-02-09T10:20:01Z</time>
      </trkpt>
      <trkpt lat="42.70086" lon="1.64716">
        <ele>1675</ele>
        <time>2020-02-09T10:20:05Z</time>
      </trkpt>
      <trkpt lat="42.70086" lon="1.64716">
        <ele>1675</ele>
        <time>2020-02-09T10:20:11Z</time>
      </trkpt>
      <trkpt lat="42.70084" lon="1.64719">
        <ele>1674.6</ele>
        <time>2020-02-09T10:20:12Z</time>
      </trkpt>
      <trkpt lat="42.70084" lon="1.64722">
        <ele>1674.6</ele>
        <time>2020-02-09T10:20:17Z</time>
      </trkpt>
      <trkpt lat="42.70081" lon="1.64725">
        <ele>1674.1</ele>
        <time>2020-02-09T10:20:21Z</time>
      </trkpt>
      <trkpt lat="42.70079" lon="1.64726">
        <ele>1674.7</ele>
        <time>2020-02-09T10:20:22Z</time>
      </trkpt>
      <trkpt lat="42.70077" lon="1.64729">
        <ele>1673.5</ele>
        <time>2020-02-09T10:20:27Z</time>
      </trkpt>
      <trkpt lat="42.70077" lon="1.64729">
        <ele>1673.5</ele>
        <time>2020-02-09T10:20:31Z</time>
      </trkpt>
      <trkpt lat="42.70077" lon="1.64729">
        <ele>1673.5</ele>
        <time>2020-02-09T10:20:41Z</time>
      </trkpt>
      <trkpt lat="42.70071" lon="1.64739">
        <ele>1670.9</ele>
        <time>2020-02-09T10:20:42Z</time>
      </trkpt>
      <trkpt lat="42.70068" lon="1.64739">
        <ele>1672.7</ele>
        <time>2020-02-09T10:20:46Z</time>
      </trkpt>
      <trkpt lat="42.70067" lon="1.6474">
        <ele>1672</ele>
        <time>2020-02-09T10:20:51Z</time>
      </trkpt>
      <trkpt lat="42.70063" lon="1.64742">
        <ele>1672.5</ele>
        <time>2020-02-09T10:21:01Z</time>
      </trkpt>
      <trkpt lat="42.70059" lon="1.64744">
        <ele>1671.7</ele>
        <time>2020-02-09T10:21:04Z</time>
      </trkpt>
      <trkpt lat="42.70056" lon="1.64746">
        <ele>1672.2</ele>
        <time>2020-02-09T10:21:10Z</time>
      </trkpt>
      <trkpt lat="42.70052" lon="1.64748">
        <ele>1671.3</ele>
        <time>2020-02-09T10:21:11Z</time>
      </trkpt>
      <trkpt lat="42.7005" lon="1.6475">
        <ele>1671.7</ele>
        <time>2020-02-09T10:21:15Z</time>
      </trkpt>
      <trkpt lat="42.70047" lon="1.64753">
        <ele>1670.9</ele>
        <time>2020-02-09T10:21:19Z</time>
      </trkpt>
      <trkpt lat="42.70047" lon="1.64753">
        <ele>1670.9</ele>
        <time>2020-02-09T10:21:21Z</time>
      </trkpt>
      <trkpt lat="42.70045" lon="1.64754">
        <ele>1670.9</ele>
        <time>2020-02-09T10:21:22Z</time>
      </trkpt>
      <trkpt lat="42.70044" lon="1.64755">
        <ele>1671.3</ele>
        <time>2020-02-09T10:21:25Z</time>
      </trkpt>
      <trkpt lat="42.70041" lon="1.64755">
        <ele>1671.7</ele>
        <time>2020-02-09T10:21:28Z</time>
      </trkpt>
      <trkpt lat="42.70039" lon="1.64754">
        <ele>1671.7</ele>
        <time>2020-02-09T10:21:31Z</time>
      </trkpt>
      <trkpt lat="42.70034" lon="1.6475">
        <ele>1673.7</ele>
        <time>2020-02-09T10:21:38Z</time>
      </trkpt>
      <trkpt lat="42.70034" lon="1.6475">
        <ele>1673.7</ele>
        <time>2020-02-09T10:21:41Z</time>
      </trkpt>
      <trkpt lat="42.70033" lon="1.64748">
        <ele>1674.9</ele>
        <time>2020-02-09T10:21:44Z</time>
      </trkpt>
      <trkpt lat="42.70029" lon="1.64746">
        <ele>1675.3</ele>
        <time>2020-02-09T10:21:48Z</time>
      </trkpt>
      <trkpt lat="42.70029" lon="1.64746">
        <ele>1675.3</ele>
        <time>2020-02-09T10:21:51Z</time>
      </trkpt>
      <trkpt lat="42.70027" lon="1.64747">
        <ele>1675.7</ele>
        <time>2020-02-09T10:21:52Z</time>
      </trkpt>
      <trkpt lat="42.70024" lon="1.64747">
        <ele>1676</ele>
        <time>2020-02-09T10:21:58Z</time>
      </trkpt>
      <trkpt lat="42.70024" lon="1.64747">
        <ele>1676</ele>
        <time>2020-02-09T10:22:01Z</time>
      </trkpt>
      <trkpt lat="42.70027" lon="1.64735">
        <ele>1678.3</ele>
        <time>2020-02-09T10:22:02Z</time>
      </trkpt>
      <trkpt lat="42.70024" lon="1.6473">
        <ele>1681.3</ele>
        <time>2020-02-09T10:22:11Z</time>
      </trkpt>
      <trkpt lat="42.70023" lon="1.64727">
        <ele>1681.3</ele>
        <time>2020-02-09T10:22:21Z</time>
      </trkpt>
      <trkpt lat="42.70022" lon="1.64726">
        <ele>1682.9</ele>
        <time>2020-02-09T10:22:31Z</time>
      </trkpt>
      <trkpt lat="42.7002" lon="1.64725">
        <ele>1682.9</ele>
        <time>2020-02-09T10:22:36Z</time>
      </trkpt>
      <trkpt lat="42.70018" lon="1.64725">
        <ele>1683.2</ele>
        <time>2020-02-09T10:22:38Z</time>
      </trkpt>
      <trkpt lat="42.70018" lon="1.64725">
        <ele>1683.2</ele>
        <time>2020-02-09T10:22:41Z</time>
      </trkpt>
      <trkpt lat="42.70016" lon="1.64727">
        <ele>1681.8</ele>
        <time>2020-02-09T10:22:42Z</time>
      </trkpt>
      <trkpt lat="42.70014" lon="1.6473">
        <ele>1682.1</ele>
        <time>2020-02-09T10:22:45Z</time>
      </trkpt>
      <trkpt lat="42.70012" lon="1.64731">
        <ele>1680.9</ele>
        <time>2020-02-09T10:22:47Z</time>
      </trkpt>
      <trkpt lat="42.70012" lon="1.64731">
        <ele>1680.9</ele>
        <time>2020-02-09T10:22:51Z</time>
      </trkpt>
      <trkpt lat="42.70008" lon="1.64731">
        <ele>1681.1</ele>
        <time>2020-02-09T10:22:54Z</time>
      </trkpt>
      <trkpt lat="42.70005" lon="1.64731">
        <ele>1681.2</ele>
        <time>2020-02-09T10:22:58Z</time>
      </trkpt>
      <trkpt lat="42.70005" lon="1.64731">
        <ele>1681.2</ele>
        <time>2020-02-09T10:23:01Z</time>
      </trkpt>
      <trkpt lat="42.70002" lon="1.6473">
        <ele>1682.6</ele>
        <time>2020-02-09T10:23:04Z</time>
      </trkpt>
      <trkpt lat="42.7" lon="1.6473">
        <ele>1682.7</ele>
        <time>2020-02-09T10:23:08Z</time>
      </trkpt>
      <trkpt lat="42.7" lon="1.6473">
        <ele>1682.7</ele>
        <time>2020-02-09T10:23:11Z</time>
      </trkpt>
      <trkpt lat="42.7" lon="1.6473">
        <ele>1682.7</ele>
        <time>2020-02-09T10:23:21Z</time>
      </trkpt>
      <trkpt lat="42.7" lon="1.64725">
        <ele>1684</ele>
        <time>2020-02-09T10:23:24Z</time>
      </trkpt>
      <trkpt lat="42.7" lon="1.64725">
        <ele>1684</ele>
        <time>2020-02-09T10:23:31Z</time>
      </trkpt>
      <trkpt lat="42.7" lon="1.64725">
        <ele>1684</ele>
        <time>2020-02-09T10:23:41Z</time>
      </trkpt>
      <trkpt lat="42.7" lon="1.64728">
        <ele>1682.7</ele>
        <time>2020-02-09T10:23:47Z</time>
      </trkpt>
      <trkpt lat="42.7" lon="1.64728">
        <ele>1682.7</ele>
        <time>2020-02-09T10:23:51Z</time>
      </trkpt>
      <trkpt lat="42.69998" lon="1.6473">
        <ele>1682.7</ele>
        <time>2020-02-09T10:23:54Z</time>
      </trkpt>
      <trkpt lat="42.69998" lon="1.6473">
        <ele>1682.7</ele>
        <time>2020-02-09T10:24:01Z</time>
      </trkpt>
      <trkpt lat="42.69993" lon="1.64723">
        <ele>1684.1</ele>
        <time>2020-02-09T10:24:03Z</time>
      </trkpt>
      <trkpt lat="42.69993" lon="1.64723">
        <ele>1684.1</ele>
        <time>2020-02-09T10:24:11Z</time>
      </trkpt>
      <trkpt lat="42.69993" lon="1.64723">
        <ele>1684.1</ele>
        <time>2020-02-09T10:24:21Z</time>
      </trkpt>
      <trkpt lat="42.69993" lon="1.64723">
        <ele>1684.1</ele>
        <time>2020-02-09T10:24:31Z</time>
      </trkpt>
      <trkpt lat="42.69994" lon="1.64737">
        <ele>1680.3</ele>
        <time>2020-02-09T10:24:35Z</time>
      </trkpt>
      <trkpt lat="42.69994" lon="1.64737">
        <ele>1680.3</ele>
        <time>2020-02-09T10:24:41Z</time>
      </trkpt>
      <trkpt lat="42.69995" lon="1.64741">
        <ele>1679</ele>
        <time>2020-02-09T10:24:46Z</time>
      </trkpt>
      <trkpt lat="42.69995" lon="1.64741">
        <ele>1679</ele>
        <time>2020-02-09T10:24:51Z</time>
      </trkpt>
      <trkpt lat="42.69995" lon="1.64741">
        <ele>1679</ele>
        <time>2020-02-09T10:25:01Z</time>
      </trkpt>
      <trkpt lat="42.6999" lon="1.64741">
        <ele>1679.1</ele>
        <time>2020-02-09T10:25:06Z</time>
      </trkpt>
      <trkpt lat="42.6999" lon="1.64741">
        <ele>1679.1</ele>
        <time>2020-02-09T10:25:11Z</time>
      </trkpt>
      <trkpt lat="42.6999" lon="1.64741">
        <ele>1679.1</ele>
        <time>2020-02-09T10:25:21Z</time>
      </trkpt>
      <trkpt lat="42.6999" lon="1.64741">
        <ele>1679.1</ele>
        <time>2020-02-09T10:25:31Z</time>
      </trkpt>
      <trkpt lat="42.6999" lon="1.64741">
        <ele>1679.1</ele>
        <time>2020-02-09T10:25:41Z</time>
      </trkpt>
      <trkpt lat="42.6999" lon="1.64741">
        <ele>1679.1</ele>
        <time>2020-02-09T10:25:51Z</time>
      </trkpt>
      <trkpt lat="42.69981" lon="1.64736">
        <ele>1680.3</ele>
        <time>2020-02-09T10:25:59Z</time>
      </trkpt>
      <trkpt lat="42.69981" lon="1.64736">
        <ele>1680.3</ele>
        <time>2020-02-09T10:26:01Z</time>
      </trkpt>
      <trkpt lat="42.69979" lon="1.64737">
        <ele>1680.3</ele>
        <time>2020-02-09T10:26:03Z</time>
      </trkpt>
      <trkpt lat="42.69975" lon="1.64736">
        <ele>1680.2</ele>
        <time>2020-02-09T10:26:09Z</time>
      </trkpt>
      <trkpt lat="42.69975" lon="1.64736">
        <ele>1680.2</ele>
        <time>2020-02-09T10:26:11Z</time>
      </trkpt>
      <trkpt lat="42.69972" lon="1.64735">
        <ele>1681.3</ele>
        <time>2020-02-09T10:26:14Z</time>
      </trkpt>
      <trkpt lat="42.6997" lon="1.64735">
        <ele>1680.1</ele>
        <time>2020-02-09T10:26:16Z</time>
      </trkpt>
      <trkpt lat="42.6997" lon="1.64735">
        <ele>1680.1</ele>
        <time>2020-02-09T10:26:21Z</time>
      </trkpt>
      <trkpt lat="42.69968" lon="1.64736">
        <ele>1680</ele>
        <time>2020-02-09T10:26:28Z</time>
      </trkpt>
      <trkpt lat="42.69968" lon="1.64736">
        <ele>1680</ele>
        <time>2020-02-09T10:26:31Z</time>
      </trkpt>
      <trkpt lat="42.69965" lon="1.64733">
        <ele>1681.1</ele>
        <time>2020-02-09T10:26:35Z</time>
      </trkpt>
      <trkpt lat="42.69963" lon="1.64733">
        <ele>1681.1</ele>
        <time>2020-02-09T10:26:41Z</time>
      </trkpt>
      <trkpt lat="42.69961" lon="1.64735">
        <ele>1680.9</ele>
        <time>2020-02-09T10:26:46Z</time>
      </trkpt>
      <trkpt lat="42.6996" lon="1.64736">
        <ele>1679.6</ele>
        <time>2020-02-09T10:26:49Z</time>
      </trkpt>
      <trkpt lat="42.6996" lon="1.64736">
        <ele>1679.6</ele>
        <time>2020-02-09T10:26:51Z</time>
      </trkpt>
      <trkpt lat="42.69954" lon="1.64737">
        <ele>1679.4</ele>
        <time>2020-02-09T10:26:56Z</time>
      </trkpt>
      <trkpt lat="42.69952" lon="1.64736">
        <ele>1679.2</ele>
        <time>2020-02-09T10:26:57Z</time>
      </trkpt>
      <trkpt lat="42.69952" lon="1.64736">
        <ele>1679.2</ele>
        <time>2020-02-09T10:27:01Z</time>
      </trkpt>
      <trkpt lat="42.69943" lon="1.64733">
        <ele>1679.5</ele>
        <time>2020-02-09T10:27:02Z</time>
      </trkpt>
      <trkpt lat="42.69936" lon="1.64732">
        <ele>1678.8</ele>
        <time>2020-02-09T10:27:11Z</time>
      </trkpt>
      <trkpt lat="42.69934" lon="1.64734">
        <ele>1678.5</ele>
        <time>2020-02-09T10:27:13Z</time>
      </trkpt>
      <trkpt lat="42.69932" lon="1.64736">
        <ele>1677.5</ele>
        <time>2020-02-09T10:27:15Z</time>
      </trkpt>
      <trkpt lat="42.69931" lon="1.64738">
        <ele>1677.5</ele>
        <time>2020-02-09T10:27:17Z</time>
      </trkpt>
      <trkpt lat="42.69931" lon="1.64738">
        <ele>1677.5</ele>
        <time>2020-02-09T10:27:21Z</time>
      </trkpt>
      <trkpt lat="42.6993" lon="1.6474">
        <ele>1676.2</ele>
        <time>2020-02-09T10:27:23Z</time>
      </trkpt>
      <trkpt lat="42.6993" lon="1.6474">
        <ele>1676.2</ele>
        <time>2020-02-09T10:27:31Z</time>
      </trkpt>
      <trkpt lat="42.6993" lon="1.6474">
        <ele>1676.2</ele>
        <time>2020-02-09T10:27:41Z</time>
      </trkpt>
      <trkpt lat="42.6993" lon="1.6474">
        <ele>1676.2</ele>
        <time>2020-02-09T10:27:51Z</time>
      </trkpt>
      <trkpt lat="42.69938" lon="1.64734">
        <ele>1679.1</ele>
        <time>2020-02-09T10:27:54Z</time>
      </trkpt>
      <trkpt lat="42.69938" lon="1.64734">
        <ele>1679.1</ele>
        <time>2020-02-09T10:28:01Z</time>
      </trkpt>
      <trkpt lat="42.69938" lon="1.64734">
        <ele>1679.1</ele>
        <time>2020-02-09T10:28:11Z</time>
      </trkpt>
      <trkpt lat="42.69938" lon="1.64734">
        <ele>1679.1</ele>
        <time>2020-02-09T10:28:21Z</time>
      </trkpt>
      <trkpt lat="42.69938" lon="1.64734">
        <ele>1679.1</ele>
        <time>2020-02-09T10:28:31Z</time>
      </trkpt>
      <trkpt lat="42.69935" lon="1.6474">
        <ele>1676.7</ele>
        <time>2020-02-09T10:28:40Z</time>
      </trkpt>
      <trkpt lat="42.69935" lon="1.6474">
        <ele>1676.7</ele>
        <time>2020-02-09T10:28:41Z</time>
      </trkpt>
      <trkpt lat="42.69935" lon="1.6474">
        <ele>1676.7</ele>
        <time>2020-02-09T10:28:51Z</time>
      </trkpt>
      <trkpt lat="42.69935" lon="1.6474">
        <ele>1676.7</ele>
        <time>2020-02-09T10:29:01Z</time>
      </trkpt>
      <trkpt lat="42.69935" lon="1.6474">
        <ele>1676.7</ele>
        <time>2020-02-09T10:29:11Z</time>
      </trkpt>
      <trkpt lat="42.69935" lon="1.6474">
        <ele>1676.7</ele>
        <time>2020-02-09T10:29:21Z</time>
      </trkpt>
      <trkpt lat="42.69935" lon="1.6474">
        <ele>1676.7</ele>
        <time>2020-02-09T10:29:31Z</time>
      </trkpt>
      <trkpt lat="42.69925" lon="1.64738">
        <ele>1676.8</ele>
        <time>2020-02-09T10:29:41Z</time>
      </trkpt>
      <trkpt lat="42.69923" lon="1.64735">
        <ele>1676.4</ele>
        <time>2020-02-09T10:29:49Z</time>
      </trkpt>
      <trkpt lat="42.69923" lon="1.64735">
        <ele>1676.4</ele>
        <time>2020-02-09T10:29:51Z</time>
      </trkpt>
      <trkpt lat="42.69923" lon="1.64735">
        <ele>1676.4</ele>
        <time>2020-02-09T10:30:01Z</time>
      </trkpt>
      <trkpt lat="42.69915" lon="1.64734">
        <ele>1676.2</ele>
        <time>2020-02-09T10:30:11Z</time>
      </trkpt>
      <trkpt lat="42.69915" lon="1.64734">
        <ele>1676.2</ele>
        <time>2020-02-09T10:30:21Z</time>
      </trkpt>
      <trkpt lat="42.69907" lon="1.64739">
        <ele>1674.4</ele>
        <time>2020-02-09T10:30:27Z</time>
      </trkpt>
      <trkpt lat="42.69907" lon="1.64739">
        <ele>1674.4</ele>
        <time>2020-02-09T10:30:31Z</time>
      </trkpt>
      <trkpt lat="42.69902" lon="1.64745">
        <ele>1671.9</ele>
        <time>2020-02-09T10:30:35Z</time>
      </trkpt>
      <trkpt lat="42.69902" lon="1.64745">
        <ele>1671.9</ele>
        <time>2020-02-09T10:30:41Z</time>
      </trkpt>
      <trkpt lat="42.69893" lon="1.64748">
        <ele>1670.5</ele>
        <time>2020-02-09T10:30:45Z</time>
      </trkpt>
      <trkpt lat="42.69889" lon="1.6475">
        <ele>1669.2</ele>
        <time>2020-02-09T10:30:49Z</time>
      </trkpt>
      <trkpt lat="42.69889" lon="1.6475">
        <ele>1669.2</ele>
        <time>2020-02-09T10:30:51Z</time>
      </trkpt>
      <trkpt lat="42.69884" lon="1.64754">
        <ele>1667.9</ele>
        <time>2020-02-09T10:30:53Z</time>
      </trkpt>
      <trkpt lat="42.69882" lon="1.64754">
        <ele>1667.3</ele>
        <time>2020-02-09T10:30:56Z</time>
      </trkpt>
      <trkpt lat="42.6988" lon="1.64755">
        <ele>1666.7</ele>
        <time>2020-02-09T10:31:00Z</time>
      </trkpt>
      <trkpt lat="42.69878" lon="1.64756">
        <ele>1666.2</ele>
        <time>2020-02-09T10:31:01Z</time>
      </trkpt>
      <trkpt lat="42.69878" lon="1.64756">
        <ele>1666.2</ele>
        <time>2020-02-09T10:31:11Z</time>
      </trkpt>
      <trkpt lat="42.6987" lon="1.6476">
        <ele>1664.5</ele>
        <time>2020-02-09T10:31:13Z</time>
      </trkpt>
      <trkpt lat="42.6987" lon="1.6476">
        <ele>1664.5</ele>
        <time>2020-02-09T10:31:21Z</time>
      </trkpt>
      <trkpt lat="42.69865" lon="1.64759">
        <ele>1664</ele>
        <time>2020-02-09T10:31:23Z</time>
      </trkpt>
      <trkpt lat="42.69865" lon="1.64759">
        <ele>1664</ele>
        <time>2020-02-09T10:31:31Z</time>
      </trkpt>
      <trkpt lat="42.69863" lon="1.64759">
        <ele>1663.4</ele>
        <time>2020-02-09T10:31:36Z</time>
      </trkpt>
      <trkpt lat="42.69863" lon="1.64759">
        <ele>1663.4</ele>
        <time>2020-02-09T10:31:41Z</time>
      </trkpt>
      <trkpt lat="42.69857" lon="1.64763">
        <ele>1661.1</ele>
        <time>2020-02-09T10:31:48Z</time>
      </trkpt>
      <trkpt lat="42.69857" lon="1.64763">
        <ele>1661.1</ele>
        <time>2020-02-09T10:31:51Z</time>
      </trkpt>
      <trkpt lat="42.69855" lon="1.64767">
        <ele>1659.8</ele>
        <time>2020-02-09T10:31:52Z</time>
      </trkpt>
      <trkpt lat="42.69854" lon="1.64769">
        <ele>1659.8</ele>
        <time>2020-02-09T10:32:01Z</time>
      </trkpt>
      <trkpt lat="42.69854" lon="1.6477">
        <ele>1659.2</ele>
        <time>2020-02-09T10:32:08Z</time>
      </trkpt>
      <trkpt lat="42.69854" lon="1.64772">
        <ele>1659.2</ele>
        <time>2020-02-09T10:32:11Z</time>
      </trkpt>
      <trkpt lat="42.69854" lon="1.64774">
        <ele>1658.5</ele>
        <time>2020-02-09T10:32:15Z</time>
      </trkpt>
      <trkpt lat="42.69854" lon="1.64776">
        <ele>1658.5</ele>
        <time>2020-02-09T10:32:18Z</time>
      </trkpt>
      <trkpt lat="42.69854" lon="1.64778">
        <ele>1657.8</ele>
        <time>2020-02-09T10:32:20Z</time>
      </trkpt>
      <trkpt lat="42.69854" lon="1.6478">
        <ele>1657.8</ele>
        <time>2020-02-09T10:32:21Z</time>
      </trkpt>
      <trkpt lat="42.69851" lon="1.64785">
        <ele>1656.6</ele>
        <time>2020-02-09T10:32:27Z</time>
      </trkpt>
      <trkpt lat="42.6985" lon="1.64786">
        <ele>1656.6</ele>
        <time>2020-02-09T10:32:29Z</time>
      </trkpt>
      <trkpt lat="42.69849" lon="1.64787">
        <ele>1655.9</ele>
        <time>2020-02-09T10:32:30Z</time>
      </trkpt>
      <trkpt lat="42.69849" lon="1.64789">
        <ele>1655.4</ele>
        <time>2020-02-09T10:32:31Z</time>
      </trkpt>
      <trkpt lat="42.69848" lon="1.64794">
        <ele>1654.8</ele>
        <time>2020-02-09T10:32:35Z</time>
      </trkpt>
      <trkpt lat="42.69848" lon="1.64798">
        <ele>1653.9</ele>
        <time>2020-02-09T10:32:39Z</time>
      </trkpt>
      <trkpt lat="42.69848" lon="1.64798">
        <ele>1653.9</ele>
        <time>2020-02-09T10:32:41Z</time>
      </trkpt>
      <trkpt lat="42.69845" lon="1.64796">
        <ele>1653.4</ele>
        <time>2020-02-09T10:32:42Z</time>
      </trkpt>
      <trkpt lat="42.69843" lon="1.64792">
        <ele>1654.3</ele>
        <time>2020-02-09T10:32:45Z</time>
      </trkpt>
      <trkpt lat="42.69842" lon="1.64788">
        <ele>1654.3</ele>
        <time>2020-02-09T10:32:49Z</time>
      </trkpt>
      <trkpt lat="42.6984" lon="1.64784">
        <ele>1654.9</ele>
        <time>2020-02-09T10:32:51Z</time>
      </trkpt>
      <trkpt lat="42.69841" lon="1.64788">
        <ele>1654.3</ele>
        <time>2020-02-09T10:32:55Z</time>
      </trkpt>
      <trkpt lat="42.6984" lon="1.64792">
        <ele>1653.7</ele>
        <time>2020-02-09T10:32:57Z</time>
      </trkpt>
      <trkpt lat="42.69839" lon="1.64794">
        <ele>1653.1</ele>
        <time>2020-02-09T10:32:59Z</time>
      </trkpt>
      <trkpt lat="42.69839" lon="1.64794">
        <ele>1653.1</ele>
        <time>2020-02-09T10:33:01Z</time>
      </trkpt>
      <trkpt lat="42.69838" lon="1.64796">
        <ele>1652.3</ele>
        <time>2020-02-09T10:33:02Z</time>
      </trkpt>
      <trkpt lat="42.69836" lon="1.64797">
        <ele>1651.6</ele>
        <time>2020-02-09T10:33:05Z</time>
      </trkpt>
      <trkpt lat="42.69835" lon="1.64799">
        <ele>1651.6</ele>
        <time>2020-02-09T10:33:09Z</time>
      </trkpt>
      <trkpt lat="42.69835" lon="1.64799">
        <ele>1651.6</ele>
        <time>2020-02-09T10:33:11Z</time>
      </trkpt>
      <trkpt lat="42.69832" lon="1.64799">
        <ele>1650.9</ele>
        <time>2020-02-09T10:33:12Z</time>
      </trkpt>
      <trkpt lat="42.69829" lon="1.64797">
        <ele>1650.2</ele>
        <time>2020-02-09T10:33:17Z</time>
      </trkpt>
      <trkpt lat="42.69829" lon="1.64797">
        <ele>1650.2</ele>
        <time>2020-02-09T10:33:21Z</time>
      </trkpt>
      <trkpt lat="42.69829" lon="1.64797">
        <ele>1650.2</ele>
        <time>2020-02-09T10:33:31Z</time>
      </trkpt>
      <trkpt lat="42.69822" lon="1.64805">
        <ele>1648.2</ele>
        <time>2020-02-09T10:33:35Z</time>
      </trkpt>
      <trkpt lat="42.69822" lon="1.64805">
        <ele>1648.2</ele>
        <time>2020-02-09T10:33:41Z</time>
      </trkpt>
      <trkpt lat="42.69814" lon="1.64806">
        <ele>1646.3</ele>
        <time>2020-02-09T10:33:51Z</time>
      </trkpt>
      <trkpt lat="42.69814" lon="1.64806">
        <ele>1646.3</ele>
        <time>2020-02-09T10:34:01Z</time>
      </trkpt>
      <trkpt lat="42.69804" lon="1.6481">
        <ele>1643.6</ele>
        <time>2020-02-09T10:34:03Z</time>
      </trkpt>
      <trkpt lat="42.69804" lon="1.6481">
        <ele>1643.6</ele>
        <time>2020-02-09T10:34:11Z</time>
      </trkpt>
      <trkpt lat="42.69794" lon="1.6481">
        <ele>1641.5</ele>
        <time>2020-02-09T10:34:15Z</time>
      </trkpt>
      <trkpt lat="42.69794" lon="1.6481">
        <ele>1641.5</ele>
        <time>2020-02-09T10:34:21Z</time>
      </trkpt>
      <trkpt lat="42.69794" lon="1.6481">
        <ele>1641.5</ele>
        <time>2020-02-09T10:34:31Z</time>
      </trkpt>
      <trkpt lat="42.69784" lon="1.64813">
        <ele>1638.9</ele>
        <time>2020-02-09T10:34:38Z</time>
      </trkpt>
      <trkpt lat="42.69784" lon="1.64813">
        <ele>1638.9</ele>
        <time>2020-02-09T10:34:41Z</time>
      </trkpt>
      <trkpt lat="42.69777" lon="1.64821">
        <ele>1636.9</ele>
        <time>2020-02-09T10:34:50Z</time>
      </trkpt>
      <trkpt lat="42.69777" lon="1.64821">
        <ele>1636.9</ele>
        <time>2020-02-09T10:34:51Z</time>
      </trkpt>
      <trkpt lat="42.69777" lon="1.64821">
        <ele>1636.9</ele>
        <time>2020-02-09T10:35:01Z</time>
      </trkpt>
      <trkpt lat="42.69772" lon="1.64826">
        <ele>1634.7</ele>
        <time>2020-02-09T10:35:03Z</time>
      </trkpt>
      <trkpt lat="42.69772" lon="1.64826">
        <ele>1634.7</ele>
        <time>2020-02-09T10:35:11Z</time>
      </trkpt>
      <trkpt lat="42.69772" lon="1.64818">
        <ele>1635.6</ele>
        <time>2020-02-09T10:35:19Z</time>
      </trkpt>
      <trkpt lat="42.69772" lon="1.64818">
        <ele>1635.6</ele>
        <time>2020-02-09T10:35:21Z</time>
      </trkpt>
      <trkpt lat="42.69768" lon="1.64815">
        <ele>1635.4</ele>
        <time>2020-02-09T10:35:27Z</time>
      </trkpt>
      <trkpt lat="42.69768" lon="1.64815">
        <ele>1635.4</ele>
        <time>2020-02-09T10:35:31Z</time>
      </trkpt>
      <trkpt lat="42.69768" lon="1.64815">
        <ele>1635.4</ele>
        <time>2020-02-09T10:35:41Z</time>
      </trkpt>
      <trkpt lat="42.69758" lon="1.64813">
        <ele>1633.7</ele>
        <time>2020-02-09T10:35:49Z</time>
      </trkpt>
      <trkpt lat="42.69758" lon="1.64813">
        <ele>1633.7</ele>
        <time>2020-02-09T10:35:51Z</time>
      </trkpt>
      <trkpt lat="42.69748" lon="1.64807">
        <ele>1632.8</ele>
        <time>2020-02-09T10:35:55Z</time>
      </trkpt>
      <trkpt lat="42.69748" lon="1.64807">
        <ele>1632.8</ele>
        <time>2020-02-09T10:36:01Z</time>
      </trkpt>
      <trkpt lat="42.69743" lon="1.64807">
        <ele>1631.6</ele>
        <time>2020-02-09T10:36:02Z</time>
      </trkpt>
      <trkpt lat="42.69741" lon="1.64807">
        <ele>1631.1</ele>
        <time>2020-02-09T10:36:08Z</time>
      </trkpt>
      <trkpt lat="42.69741" lon="1.64807">
        <ele>1631.1</ele>
        <time>2020-02-09T10:36:11Z</time>
      </trkpt>
      <trkpt lat="42.69741" lon="1.64807">
        <ele>1631.1</ele>
        <time>2020-02-09T10:36:21Z</time>
      </trkpt>
      <trkpt lat="42.69741" lon="1.64807">
        <ele>1631.1</ele>
        <time>2020-02-09T10:36:31Z</time>
      </trkpt>
      <trkpt lat="42.69737" lon="1.64818">
        <ele>1629.7</ele>
        <time>2020-02-09T10:36:38Z</time>
      </trkpt>
      <trkpt lat="42.69737" lon="1.64818">
        <ele>1629.7</ele>
        <time>2020-02-09T10:36:41Z</time>
      </trkpt>
      <trkpt lat="42.69734" lon="1.6482">
        <ele>1629.3</ele>
        <time>2020-02-09T10:36:49Z</time>
      </trkpt>
      <trkpt lat="42.69734" lon="1.6482">
        <ele>1629.3</ele>
        <time>2020-02-09T10:36:51Z</time>
      </trkpt>
      <trkpt lat="42.69731" lon="1.6482">
        <ele>1628.8</ele>
        <time>2020-02-09T10:36:53Z</time>
      </trkpt>
      <trkpt lat="42.69729" lon="1.6482">
        <ele>1628.3</ele>
        <time>2020-02-09T10:36:55Z</time>
      </trkpt>
      <trkpt lat="42.69725" lon="1.64821">
        <ele>1627.8</ele>
        <time>2020-02-09T10:36:59Z</time>
      </trkpt>
      <trkpt lat="42.69723" lon="1.64821">
        <ele>1627.6</ele>
        <time>2020-02-09T10:37:01Z</time>
      </trkpt>
      <trkpt lat="42.69719" lon="1.64821">
        <ele>1626.5</ele>
        <time>2020-02-09T10:37:04Z</time>
      </trkpt>
      <trkpt lat="42.69717" lon="1.64821">
        <ele>1626.5</ele>
        <time>2020-02-09T10:37:07Z</time>
      </trkpt>
      <trkpt lat="42.69715" lon="1.64821">
        <ele>1625.9</ele>
        <time>2020-02-09T10:37:10Z</time>
      </trkpt>
      <trkpt lat="42.69713" lon="1.64821">
        <ele>1625.5</ele>
        <time>2020-02-09T10:37:11Z</time>
      </trkpt>
      <trkpt lat="42.69707" lon="1.6482">
        <ele>1624.8</ele>
        <time>2020-02-09T10:37:14Z</time>
      </trkpt>
      <trkpt lat="42.69705" lon="1.6482">
        <ele>1624.8</ele>
        <time>2020-02-09T10:37:16Z</time>
      </trkpt>
      <trkpt lat="42.69704" lon="1.64819">
        <ele>1624.4</ele>
        <time>2020-02-09T10:37:20Z</time>
      </trkpt>
      <trkpt lat="42.69702" lon="1.64819">
        <ele>1624.4</ele>
        <time>2020-02-09T10:37:21Z</time>
      </trkpt>
      <trkpt lat="42.69701" lon="1.64819">
        <ele>1623.9</ele>
        <time>2020-02-09T10:37:22Z</time>
      </trkpt>
      <trkpt lat="42.69699" lon="1.64818">
        <ele>1623.9</ele>
        <time>2020-02-09T10:37:24Z</time>
      </trkpt>
      <trkpt lat="42.69696" lon="1.64821">
        <ele>1623.2</ele>
        <time>2020-02-09T10:37:28Z</time>
      </trkpt>
      <trkpt lat="42.69694" lon="1.64821">
        <ele>1622.7</ele>
        <time>2020-02-09T10:37:31Z</time>
      </trkpt>
      <trkpt lat="42.69687" lon="1.64821">
        <ele>1621.7</ele>
        <time>2020-02-09T10:37:32Z</time>
      </trkpt>
      <trkpt lat="42.69683" lon="1.6482">
        <ele>1621.2</ele>
        <time>2020-02-09T10:37:41Z</time>
      </trkpt>
      <trkpt lat="42.69679" lon="1.6482">
        <ele>1620.3</ele>
        <time>2020-02-09T10:37:48Z</time>
      </trkpt>
      <trkpt lat="42.69675" lon="1.6482">
        <ele>1619.7</ele>
        <time>2020-02-09T10:37:50Z</time>
      </trkpt>
      <trkpt lat="42.69671" lon="1.64819">
        <ele>1619.1</ele>
        <time>2020-02-09T10:37:51Z</time>
      </trkpt>
      <trkpt lat="42.69664" lon="1.64819">
        <ele>1617.8</ele>
        <time>2020-02-09T10:37:54Z</time>
      </trkpt>
      <trkpt lat="42.69661" lon="1.64819">
        <ele>1617.2</ele>
        <time>2020-02-09T10:38:00Z</time>
      </trkpt>
      <trkpt lat="42.69658" lon="1.64818">
        <ele>1616.6</ele>
        <time>2020-02-09T10:38:01Z</time>
      </trkpt>
      <trkpt lat="42.69649" lon="1.64821">
        <ele>1614.8</ele>
        <time>2020-02-09T10:38:05Z</time>
      </trkpt>
      <trkpt lat="42.69646" lon="1.64822">
        <ele>1614.1</ele>
        <time>2020-02-09T10:38:10Z</time>
      </trkpt>
      <trkpt lat="42.69642" lon="1.64823">
        <ele>1613.4</ele>
        <time>2020-02-09T10:38:11Z</time>
      </trkpt>
      <trkpt lat="42.69641" lon="1.64823">
        <ele>1612.6</ele>
        <time>2020-02-09T10:38:12Z</time>
      </trkpt>
      <trkpt lat="42.69641" lon="1.64823">
        <ele>1612.6</ele>
        <time>2020-02-09T10:38:21Z</time>
      </trkpt>
      <trkpt lat="42.69631" lon="1.64823">
        <ele>1610.4</ele>
        <time>2020-02-09T10:38:23Z</time>
      </trkpt>
      <trkpt lat="42.69625" lon="1.64822">
        <ele>1609.6</ele>
        <time>2020-02-09T10:38:27Z</time>
      </trkpt>
      <trkpt lat="42.69622" lon="1.64822">
        <ele>1608.9</ele>
        <time>2020-02-09T10:38:31Z</time>
      </trkpt>
      <trkpt lat="42.69621" lon="1.64819">
        <ele>1608.2</ele>
        <time>2020-02-09T10:38:33Z</time>
      </trkpt>
      <trkpt lat="42.69619" lon="1.64816">
        <ele>1608.2</ele>
        <time>2020-02-09T10:38:36Z</time>
      </trkpt>
      <trkpt lat="42.69617" lon="1.64815">
        <ele>1607.4</ele>
        <time>2020-02-09T10:38:39Z</time>
      </trkpt>
      <trkpt lat="42.69617" lon="1.64815">
        <ele>1607.4</ele>
        <time>2020-02-09T10:38:41Z</time>
      </trkpt>
      <trkpt lat="42.69616" lon="1.64813">
        <ele>1606.7</ele>
        <time>2020-02-09T10:38:42Z</time>
      </trkpt>
      <trkpt lat="42.69613" lon="1.64812">
        <ele>1606.6</ele>
        <time>2020-02-09T10:38:44Z</time>
      </trkpt>
      <trkpt lat="42.69613" lon="1.64809">
        <ele>1606.6</ele>
        <time>2020-02-09T10:38:46Z</time>
      </trkpt>
      <trkpt lat="42.69613" lon="1.64809">
        <ele>1606.6</ele>
        <time>2020-02-09T10:38:51Z</time>
      </trkpt>
      <trkpt lat="42.6961" lon="1.64802">
        <ele>1605.8</ele>
        <time>2020-02-09T10:38:54Z</time>
      </trkpt>
      <trkpt lat="42.69608" lon="1.648">
        <ele>1604.9</ele>
        <time>2020-02-09T10:38:57Z</time>
      </trkpt>
      <trkpt lat="42.69608" lon="1.648">
        <ele>1604.9</ele>
        <time>2020-02-09T10:39:01Z</time>
      </trkpt>
      <trkpt lat="42.69602" lon="1.64792">
        <ele>1603.1</ele>
        <time>2020-02-09T10:39:07Z</time>
      </trkpt>
      <trkpt lat="42.696" lon="1.64792">
        <ele>1603.1</ele>
        <time>2020-02-09T10:39:09Z</time>
      </trkpt>
      <trkpt lat="42.696" lon="1.64792">
        <ele>1603.1</ele>
        <time>2020-02-09T10:39:11Z</time>
      </trkpt>
      <trkpt lat="42.69593" lon="1.64782">
        <ele>1600.7</ele>
        <time>2020-02-09T10:39:21Z</time>
      </trkpt>
      <trkpt lat="42.69592" lon="1.64779">
        <ele>1600.7</ele>
        <time>2020-02-09T10:39:27Z</time>
      </trkpt>
      <trkpt lat="42.69591" lon="1.64776">
        <ele>1600.6</ele>
        <time>2020-02-09T10:39:30Z</time>
      </trkpt>
      <trkpt lat="42.69589" lon="1.64774">
        <ele>1599.9</ele>
        <time>2020-02-09T10:39:31Z</time>
      </trkpt>
      <trkpt lat="42.69587" lon="1.6477">
        <ele>1599.1</ele>
        <time>2020-02-09T10:39:35Z</time>
      </trkpt>
      <trkpt lat="42.69584" lon="1.64763">
        <ele>1598.3</ele>
        <time>2020-02-09T10:39:41Z</time>
      </trkpt>
      <trkpt lat="42.69582" lon="1.64758">
        <ele>1598.3</ele>
        <time>2020-02-09T10:39:47Z</time>
      </trkpt>
      <trkpt lat="42.69582" lon="1.64758">
        <ele>1598.3</ele>
        <time>2020-02-09T10:39:51Z</time>
      </trkpt>
      <trkpt lat="42.6958" lon="1.64756">
        <ele>1597.6</ele>
        <time>2020-02-09T10:39:53Z</time>
      </trkpt>
      <trkpt lat="42.69576" lon="1.64753">
        <ele>1597</ele>
        <time>2020-02-09T10:39:58Z</time>
      </trkpt>
      <trkpt lat="42.69574" lon="1.6475">
        <ele>1596.5</ele>
        <time>2020-02-09T10:40:01Z</time>
      </trkpt>
      <trkpt lat="42.69573" lon="1.64747">
        <ele>1596.6</ele>
        <time>2020-02-09T10:40:02Z</time>
      </trkpt>
      <trkpt lat="42.6957" lon="1.64744">
        <ele>1596.1</ele>
        <time>2020-02-09T10:40:06Z</time>
      </trkpt>
      <trkpt lat="42.69569" lon="1.64742">
        <ele>1596.2</ele>
        <time>2020-02-09T10:40:09Z</time>
      </trkpt>
      <trkpt lat="42.69569" lon="1.64742">
        <ele>1596.2</ele>
        <time>2020-02-09T10:40:11Z</time>
      </trkpt>
      <trkpt lat="42.69563" lon="1.64733">
        <ele>1595.5</ele>
        <time>2020-02-09T10:40:13Z</time>
      </trkpt>
      <trkpt lat="42.69563" lon="1.64733">
        <ele>1595.5</ele>
        <time>2020-02-09T10:40:21Z</time>
      </trkpt>
      <trkpt lat="42.69561" lon="1.64735">
        <ele>1595</ele>
        <time>2020-02-09T10:40:28Z</time>
      </trkpt>
      <trkpt lat="42.69559" lon="1.64734">
        <ele>1595</ele>
        <time>2020-02-09T10:40:31Z</time>
      </trkpt>
      <trkpt lat="42.69558" lon="1.64733">
        <ele>1594.5</ele>
        <time>2020-02-09T10:40:34Z</time>
      </trkpt>
      <trkpt lat="42.69558" lon="1.64733">
        <ele>1594.5</ele>
        <time>2020-02-09T10:40:41Z</time>
      </trkpt>
      <trkpt lat="42.69558" lon="1.64733">
        <ele>1594.5</ele>
        <time>2020-02-09T10:40:51Z</time>
      </trkpt>
      <trkpt lat="42.69558" lon="1.64733">
        <ele>1594.5</ele>
        <time>2020-02-09T10:41:01Z</time>
      </trkpt>
      <trkpt lat="42.69549" lon="1.64741">
        <ele>1592.7</ele>
        <time>2020-02-09T10:41:04Z</time>
      </trkpt>
      <trkpt lat="42.69549" lon="1.64741">
        <ele>1592.7</ele>
        <time>2020-02-09T10:41:11Z</time>
      </trkpt>
      <trkpt lat="42.69549" lon="1.64741">
        <ele>1592.7</ele>
        <time>2020-02-09T10:41:21Z</time>
      </trkpt>
      <trkpt lat="42.69542" lon="1.64734">
        <ele>1592.1</ele>
        <time>2020-02-09T10:41:26Z</time>
      </trkpt>
      <trkpt lat="42.6954" lon="1.64732">
        <ele>1592.1</ele>
        <time>2020-02-09T10:41:28Z</time>
      </trkpt>
      <trkpt lat="42.6954" lon="1.64732">
        <ele>1592.1</ele>
        <time>2020-02-09T10:41:31Z</time>
      </trkpt>
      <trkpt lat="42.69535" lon="1.64731">
        <ele>1591.4</ele>
        <time>2020-02-09T10:41:34Z</time>
      </trkpt>
      <trkpt lat="42.69532" lon="1.64729">
        <ele>1590.9</ele>
        <time>2020-02-09T10:41:39Z</time>
      </trkpt>
      <trkpt lat="42.69532" lon="1.64729">
        <ele>1590.9</ele>
        <time>2020-02-09T10:41:41Z</time>
      </trkpt>
      <trkpt lat="42.69531" lon="1.64724">
        <ele>1590.6</ele>
        <time>2020-02-09T10:41:44Z</time>
      </trkpt>
      <trkpt lat="42.69531" lon="1.64724">
        <ele>1590.6</ele>
        <time>2020-02-09T10:41:51Z</time>
      </trkpt>
      <trkpt lat="42.69524" lon="1.6472">
        <ele>1589.9</ele>
        <time>2020-02-09T10:41:58Z</time>
      </trkpt>
      <trkpt lat="42.69524" lon="1.6472">
        <ele>1589.9</ele>
        <time>2020-02-09T10:42:01Z</time>
      </trkpt>
      <trkpt lat="42.69518" lon="1.64721">
        <ele>1589.5</ele>
        <time>2020-02-09T10:42:08Z</time>
      </trkpt>
      <trkpt lat="42.69518" lon="1.64721">
        <ele>1589.5</ele>
        <time>2020-02-09T10:42:11Z</time>
      </trkpt>
      <trkpt lat="42.69514" lon="1.64715">
        <ele>1589.1</ele>
        <time>2020-02-09T10:42:13Z</time>
      </trkpt>
      <trkpt lat="42.69512" lon="1.64712">
        <ele>1589.4</ele>
        <time>2020-02-09T10:42:16Z</time>
      </trkpt>
      <trkpt lat="42.69509" lon="1.64709">
        <ele>1589.4</ele>
        <time>2020-02-09T10:42:21Z</time>
      </trkpt>
      <trkpt lat="42.69507" lon="1.64705">
        <ele>1589</ele>
        <time>2020-02-09T10:42:24Z</time>
      </trkpt>
      <trkpt lat="42.69504" lon="1.64702">
        <ele>1589</ele>
        <time>2020-02-09T10:42:25Z</time>
      </trkpt>
      <trkpt lat="42.69502" lon="1.64699">
        <ele>1589.1</ele>
        <time>2020-02-09T10:42:31Z</time>
      </trkpt>
      <trkpt lat="42.69499" lon="1.64696">
        <ele>1589.1</ele>
        <time>2020-02-09T10:42:41Z</time>
      </trkpt>
      <trkpt lat="42.69496" lon="1.64693">
        <ele>1589.1</ele>
        <time>2020-02-09T10:42:43Z</time>
      </trkpt>
      <trkpt lat="42.69494" lon="1.6469">
        <ele>1589.3</ele>
        <time>2020-02-09T10:42:51Z</time>
      </trkpt>
      <trkpt lat="42.69491" lon="1.64686">
        <ele>1589.5</ele>
        <time>2020-02-09T10:42:52Z</time>
      </trkpt>
      <trkpt lat="42.69489" lon="1.64683">
        <ele>1589.6</ele>
        <time>2020-02-09T10:42:56Z</time>
      </trkpt>
      <trkpt lat="42.69486" lon="1.6468">
        <ele>1589.4</ele>
        <time>2020-02-09T10:43:00Z</time>
      </trkpt>
      <trkpt lat="42.69484" lon="1.64677">
        <ele>1589.8</ele>
        <time>2020-02-09T10:43:01Z</time>
      </trkpt>
      <trkpt lat="42.69477" lon="1.64671">
        <ele>1589.3</ele>
        <time>2020-02-09T10:43:08Z</time>
      </trkpt>
      <trkpt lat="42.69477" lon="1.64671">
        <ele>1589.3</ele>
        <time>2020-02-09T10:43:11Z</time>
      </trkpt>
      <trkpt lat="42.69468" lon="1.64666">
        <ele>1589.5</ele>
        <time>2020-02-09T10:43:15Z</time>
      </trkpt>
      <trkpt lat="42.69467" lon="1.64664">
        <ele>1589.2</ele>
        <time>2020-02-09T10:43:17Z</time>
      </trkpt>
      <trkpt lat="42.69466" lon="1.64661">
        <ele>1589.6</ele>
        <time>2020-02-09T10:43:21Z</time>
      </trkpt>
      <trkpt lat="42.69464" lon="1.64658">
        <ele>1589.3</ele>
        <time>2020-02-09T10:43:24Z</time>
      </trkpt>
      <trkpt lat="42.69463" lon="1.64656">
        <ele>1589.8</ele>
        <time>2020-02-09T10:43:27Z</time>
      </trkpt>
      <trkpt lat="42.69463" lon="1.64655">
        <ele>1589.8</ele>
        <time>2020-02-09T10:43:30Z</time>
      </trkpt>
      <trkpt lat="42.69462" lon="1.64654">
        <ele>1589.8</ele>
        <time>2020-02-09T10:43:31Z</time>
      </trkpt>
      <trkpt lat="42.69454" lon="1.64648">
        <ele>1590.1</ele>
        <time>2020-02-09T10:43:40Z</time>
      </trkpt>
      <trkpt lat="42.69454" lon="1.64648">
        <ele>1590.1</ele>
        <time>2020-02-09T10:43:41Z</time>
      </trkpt>
      <trkpt lat="42.69446" lon="1.64653">
        <ele>1588.9</ele>
        <time>2020-02-09T10:43:47Z</time>
      </trkpt>
      <trkpt lat="42.69446" lon="1.64653">
        <ele>1588.9</ele>
        <time>2020-02-09T10:43:51Z</time>
      </trkpt>
      <trkpt lat="42.69437" lon="1.64655">
        <ele>1587.5</ele>
        <time>2020-02-09T10:43:58Z</time>
      </trkpt>
      <trkpt lat="42.69437" lon="1.64655">
        <ele>1587.5</ele>
        <time>2020-02-09T10:44:01Z</time>
      </trkpt>
      <trkpt lat="42.69435" lon="1.64655">
        <ele>1587.3</ele>
        <time>2020-02-09T10:44:11Z</time>
      </trkpt>
      <trkpt lat="42.69434" lon="1.64654">
        <ele>1587.3</ele>
        <time>2020-02-09T10:44:21Z</time>
      </trkpt>
      <trkpt lat="42.69433" lon="1.64654">
        <ele>1587.3</ele>
        <time>2020-02-09T10:44:30Z</time>
      </trkpt>
      <trkpt lat="42.69432" lon="1.64653">
        <ele>1587.6</ele>
        <time>2020-02-09T10:44:31Z</time>
      </trkpt>
      <trkpt lat="42.69431" lon="1.64653">
        <ele>1587.6</ele>
        <time>2020-02-09T10:44:41Z</time>
      </trkpt>
      <trkpt lat="42.6943" lon="1.64652">
        <ele>1587.6</ele>
        <time>2020-02-09T10:44:44Z</time>
      </trkpt>
      <trkpt lat="42.69429" lon="1.64652">
        <ele>1587.4</ele>
        <time>2020-02-09T10:44:45Z</time>
      </trkpt>
      <trkpt lat="42.69428" lon="1.64652">
        <ele>1587.4</ele>
        <time>2020-02-09T10:44:48Z</time>
      </trkpt>
      <trkpt lat="42.69426" lon="1.64651">
        <ele>1587.1</ele>
        <time>2020-02-09T10:44:50Z</time>
      </trkpt>
      <trkpt lat="42.69425" lon="1.64651">
        <ele>1587.1</ele>
        <time>2020-02-09T10:44:51Z</time>
      </trkpt>
      <trkpt lat="42.69422" lon="1.64652">
        <ele>1586.9</ele>
        <time>2020-02-09T10:44:53Z</time>
      </trkpt>
      <trkpt lat="42.69421" lon="1.64653">
        <ele>1586.9</ele>
        <time>2020-02-09T10:44:55Z</time>
      </trkpt>
      <trkpt lat="42.6942" lon="1.64653">
        <ele>1586.6</ele>
        <time>2020-02-09T10:45:00Z</time>
      </trkpt>
      <trkpt lat="42.69418" lon="1.64654">
        <ele>1586</ele>
        <time>2020-02-09T10:45:01Z</time>
      </trkpt>
      <trkpt lat="42.69416" lon="1.64656">
        <ele>1585.7</ele>
        <time>2020-02-09T10:45:03Z</time>
      </trkpt>
      <trkpt lat="42.69415" lon="1.64657">
        <ele>1585.7</ele>
        <time>2020-02-09T10:45:04Z</time>
      </trkpt>
      <trkpt lat="42.69413" lon="1.64659">
        <ele>1584.9</ele>
        <time>2020-02-09T10:45:08Z</time>
      </trkpt>
      <trkpt lat="42.69413" lon="1.64659">
        <ele>1584.9</ele>
        <time>2020-02-09T10:45:11Z</time>
      </trkpt>
      <trkpt lat="42.69411" lon="1.6466">
        <ele>1584.9</ele>
        <time>2020-02-09T10:45:13Z</time>
      </trkpt>
      <trkpt lat="42.69413" lon="1.64662">
        <ele>1584.3</ele>
        <time>2020-02-09T10:45:20Z</time>
      </trkpt>
      <trkpt lat="42.69413" lon="1.64662">
        <ele>1584.3</ele>
        <time>2020-02-09T10:45:21Z</time>
      </trkpt>
      <trkpt lat="42.69411" lon="1.64665">
        <ele>1584.3</ele>
        <time>2020-02-09T10:45:27Z</time>
      </trkpt>
      <trkpt lat="42.69411" lon="1.64666">
        <ele>1584.1</ele>
        <time>2020-02-09T10:45:30Z</time>
      </trkpt>
      <trkpt lat="42.6941" lon="1.64667">
        <ele>1583.5</ele>
        <time>2020-02-09T10:45:31Z</time>
      </trkpt>
      <trkpt lat="42.69407" lon="1.6467">
        <ele>1583.4</ele>
        <time>2020-02-09T10:45:32Z</time>
      </trkpt>
      <trkpt lat="42.69406" lon="1.64671">
        <ele>1582.8</ele>
        <time>2020-02-09T10:45:36Z</time>
      </trkpt>
      <trkpt lat="42.69405" lon="1.64672">
        <ele>1582.8</ele>
        <time>2020-02-09T10:45:40Z</time>
      </trkpt>
      <trkpt lat="42.69404" lon="1.64672">
        <ele>1582.8</ele>
        <time>2020-02-09T10:45:41Z</time>
      </trkpt>
      <trkpt lat="42.69402" lon="1.64674">
        <ele>1582.6</ele>
        <time>2020-02-09T10:45:45Z</time>
      </trkpt>
      <trkpt lat="42.694" lon="1.64674">
        <ele>1582.5</ele>
        <time>2020-02-09T10:45:48Z</time>
      </trkpt>
      <trkpt lat="42.694" lon="1.64674">
        <ele>1582.5</ele>
        <time>2020-02-09T10:45:51Z</time>
      </trkpt>
      <trkpt lat="42.6939" lon="1.64672">
        <ele>1581.9</ele>
        <time>2020-02-09T10:45:58Z</time>
      </trkpt>
      <trkpt lat="42.6939" lon="1.64672">
        <ele>1581.9</ele>
        <time>2020-02-09T10:46:01Z</time>
      </trkpt>
      <trkpt lat="42.69382" lon="1.64677">
        <ele>1580.4</ele>
        <time>2020-02-09T10:46:02Z</time>
      </trkpt>
      <trkpt lat="42.69378" lon="1.64675">
        <ele>1581.1</ele>
        <time>2020-02-09T10:46:08Z</time>
      </trkpt>
      <trkpt lat="42.69376" lon="1.64676">
        <ele>1580</ele>
        <time>2020-02-09T10:46:09Z</time>
      </trkpt>
      <trkpt lat="42.69376" lon="1.64676">
        <ele>1580</ele>
        <time>2020-02-09T10:46:11Z</time>
      </trkpt>
      <trkpt lat="42.69374" lon="1.64678">
        <ele>1580</ele>
        <time>2020-02-09T10:46:14Z</time>
      </trkpt>
      <trkpt lat="42.69372" lon="1.64679">
        <ele>1578.8</ele>
        <time>2020-02-09T10:46:19Z</time>
      </trkpt>
      <trkpt lat="42.69372" lon="1.64679">
        <ele>1578.8</ele>
        <time>2020-02-09T10:46:21Z</time>
      </trkpt>
      <trkpt lat="42.69369" lon="1.64683">
        <ele>1578.5</ele>
        <time>2020-02-09T10:46:23Z</time>
      </trkpt>
      <trkpt lat="42.69367" lon="1.64682">
        <ele>1578.7</ele>
        <time>2020-02-09T10:46:28Z</time>
      </trkpt>
      <trkpt lat="42.69366" lon="1.64681">
        <ele>1578.5</ele>
        <time>2020-02-09T10:46:31Z</time>
      </trkpt>
      <trkpt lat="42.69363" lon="1.6468">
        <ele>1578.4</ele>
        <time>2020-02-09T10:46:36Z</time>
      </trkpt>
      <trkpt lat="42.69363" lon="1.6468">
        <ele>1578.5</ele>
        <time>2020-02-09T10:46:41Z</time>
      </trkpt>
      <trkpt lat="42.6936" lon="1.64679">
        <ele>1579.8</ele>
        <time>2020-02-09T10:46:42Z</time>
      </trkpt>
      <trkpt lat="42.69358" lon="1.6468">
        <ele>1578.6</ele>
        <time>2020-02-09T10:46:51Z</time>
      </trkpt>
      <trkpt lat="42.69361" lon="1.6468">
        <ele>1579</ele>
        <time>2020-02-09T10:46:55Z</time>
      </trkpt>
      <trkpt lat="42.69361" lon="1.6468">
        <ele>1579.2</ele>
        <time>2020-02-09T10:47:01Z</time>
      </trkpt>
      <trkpt lat="42.69357" lon="1.64681">
        <ele>1578.8</ele>
        <time>2020-02-09T10:47:09Z</time>
      </trkpt>
      <trkpt lat="42.69357" lon="1.64681">
        <ele>1578.9</ele>
        <time>2020-02-09T10:47:11Z</time>
      </trkpt>
      <trkpt lat="42.69356" lon="1.64683">
        <ele>1579.1</ele>
        <time>2020-02-09T10:47:18Z</time>
      </trkpt>
      <trkpt lat="42.69356" lon="1.64683">
        <ele>1579.2</ele>
        <time>2020-02-09T10:47:21Z</time>
      </trkpt>
      <trkpt lat="42.69357" lon="1.64688">
        <ele>1576.9</ele>
        <time>2020-02-09T10:47:25Z</time>
      </trkpt>
      <trkpt lat="42.69357" lon="1.64688">
        <ele>1577.1</ele>
        <time>2020-02-09T10:47:31Z</time>
      </trkpt>
      <trkpt lat="42.69357" lon="1.64692">
        <ele>1577.2</ele>
        <time>2020-02-09T10:47:32Z</time>
      </trkpt>
      <trkpt lat="42.69357" lon="1.64694">
        <ele>1576.5</ele>
        <time>2020-02-09T10:47:34Z</time>
      </trkpt>
      <trkpt lat="42.69358" lon="1.64697">
        <ele>1575.5</ele>
        <time>2020-02-09T10:47:38Z</time>
      </trkpt>
      <trkpt lat="42.69358" lon="1.64697">
        <ele>1575.6</ele>
        <time>2020-02-09T10:47:41Z</time>
      </trkpt>
      <trkpt lat="42.6936" lon="1.64698">
        <ele>1576.2</ele>
        <time>2020-02-09T10:47:49Z</time>
      </trkpt>
      <trkpt lat="42.6936" lon="1.64698">
        <ele>1576.3</ele>
        <time>2020-02-09T10:47:51Z</time>
      </trkpt>
      <trkpt lat="42.6936" lon="1.64698">
        <ele>1576.5</ele>
        <time>2020-02-09T10:48:01Z</time>
      </trkpt>
      <trkpt lat="42.6936" lon="1.64698">
        <ele>1576.7</ele>
        <time>2020-02-09T10:48:11Z</time>
      </trkpt>
      <trkpt lat="42.69365" lon="1.64693">
        <ele>1578.4</ele>
        <time>2020-02-09T10:48:21Z</time>
      </trkpt>
      <trkpt lat="42.69365" lon="1.64693">
        <ele>1578.6</ele>
        <time>2020-02-09T10:48:31Z</time>
      </trkpt>
      <trkpt lat="42.6936" lon="1.64681">
        <ele>1581.6</ele>
        <time>2020-02-09T10:48:41Z</time>
      </trkpt>
      <trkpt lat="42.6936" lon="1.64681">
        <ele>1581.8</ele>
        <time>2020-02-09T10:48:51Z</time>
      </trkpt>
      <trkpt lat="42.69361" lon="1.64695">
        <ele>1578.7</ele>
        <time>2020-02-09T10:48:54Z</time>
      </trkpt>
      <trkpt lat="42.69354" lon="1.64703">
        <ele>1575.2</ele>
        <time>2020-02-09T10:49:01Z</time>
      </trkpt>
      <trkpt lat="42.69354" lon="1.64703">
        <ele>1575.4</ele>
        <time>2020-02-09T10:49:11Z</time>
      </trkpt>
      <trkpt lat="42.69354" lon="1.64703">
        <ele>1575.6</ele>
        <time>2020-02-09T10:49:21Z</time>
      </trkpt>
      <trkpt lat="42.69354" lon="1.64703">
        <ele>1575.7</ele>
        <time>2020-02-09T10:49:31Z</time>
      </trkpt>
      <trkpt lat="42.69354" lon="1.64703">
        <ele>1575.9</ele>
        <time>2020-02-09T10:49:41Z</time>
      </trkpt>
      <trkpt lat="42.6936" lon="1.64692">
        <ele>1580.8</ele>
        <time>2020-02-09T10:49:47Z</time>
      </trkpt>
      <trkpt lat="42.6936" lon="1.64692">
        <ele>1581</ele>
        <time>2020-02-09T10:49:51Z</time>
      </trkpt>
      <trkpt lat="42.6936" lon="1.64692">
        <ele>1581.2</ele>
        <time>2020-02-09T10:50:01Z</time>
      </trkpt>
      <trkpt lat="42.6936" lon="1.64692">
        <ele>1581.3</ele>
        <time>2020-02-09T10:50:11Z</time>
      </trkpt>
      <trkpt lat="42.6936" lon="1.64692">
        <ele>1581.5</ele>
        <time>2020-02-09T10:50:21Z</time>
      </trkpt>
      <trkpt lat="42.6936" lon="1.64692">
        <ele>1581.7</ele>
        <time>2020-02-09T10:50:31Z</time>
      </trkpt>
      <trkpt lat="42.6936" lon="1.64692">
        <ele>1581.8</ele>
        <time>2020-02-09T10:50:41Z</time>
      </trkpt>
      <trkpt lat="42.6936" lon="1.64692">
        <ele>1582</ele>
        <time>2020-02-09T10:50:51Z</time>
      </trkpt>
      <trkpt lat="42.6936" lon="1.64692">
        <ele>1582.1</ele>
        <time>2020-02-09T10:51:01Z</time>
      </trkpt>
      <trkpt lat="42.69367" lon="1.64682">
        <ele>1585.3</ele>
        <time>2020-02-09T10:51:07Z</time>
      </trkpt>
      <trkpt lat="42.69367" lon="1.64682">
        <ele>1585.5</ele>
        <time>2020-02-09T10:51:11Z</time>
      </trkpt>
      <trkpt lat="42.69367" lon="1.64682">
        <ele>1585.6</ele>
        <time>2020-02-09T10:51:21Z</time>
      </trkpt>
      <trkpt lat="42.69363" lon="1.64671">
        <ele>1587.3</ele>
        <time>2020-02-09T10:51:25Z</time>
      </trkpt>
      <trkpt lat="42.69363" lon="1.64671">
        <ele>1587.5</ele>
        <time>2020-02-09T10:51:31Z</time>
      </trkpt>
      <trkpt lat="42.69363" lon="1.64671">
        <ele>1587.6</ele>
        <time>2020-02-09T10:51:41Z</time>
      </trkpt>
      <trkpt lat="42.69358" lon="1.64682">
        <ele>1585.4</ele>
        <time>2020-02-09T10:51:47Z</time>
      </trkpt>
      <trkpt lat="42.69358" lon="1.64682">
        <ele>1585.5</ele>
        <time>2020-02-09T10:51:51Z</time>
      </trkpt>
      <trkpt lat="42.69358" lon="1.64682">
        <ele>1585.7</ele>
        <time>2020-02-09T10:52:01Z</time>
      </trkpt>
      <trkpt lat="42.69358" lon="1.64682">
        <ele>1585.9</ele>
        <time>2020-02-09T10:52:11Z</time>
      </trkpt>
      <trkpt lat="42.69358" lon="1.64682">
        <ele>1586</ele>
        <time>2020-02-09T10:52:21Z</time>
      </trkpt>
      <trkpt lat="42.69361" lon="1.64684">
        <ele>1585.3</ele>
        <time>2020-02-09T10:52:30Z</time>
      </trkpt>
      <trkpt lat="42.69361" lon="1.64684">
        <ele>1585.4</ele>
        <time>2020-02-09T10:52:31Z</time>
      </trkpt>
      <trkpt lat="42.69361" lon="1.64684">
        <ele>1585.6</ele>
        <time>2020-02-09T10:52:41Z</time>
      </trkpt>
      <trkpt lat="42.69361" lon="1.64686">
        <ele>1585.8</ele>
        <time>2020-02-09T10:52:44Z</time>
      </trkpt>
      <trkpt lat="42.69361" lon="1.64686">
        <ele>1585.9</ele>
        <time>2020-02-09T10:52:51Z</time>
      </trkpt>
      <trkpt lat="42.69361" lon="1.64686">
        <ele>1586.1</ele>
        <time>2020-02-09T10:53:01Z</time>
      </trkpt>
      <trkpt lat="42.69361" lon="1.64686">
        <ele>1586.3</ele>
        <time>2020-02-09T10:53:11Z</time>
      </trkpt>
      <trkpt lat="42.69363" lon="1.64686">
        <ele>1586.4</ele>
        <time>2020-02-09T10:53:17Z</time>
      </trkpt>
      <trkpt lat="42.69363" lon="1.64686">
        <ele>1586.6</ele>
        <time>2020-02-09T10:53:21Z</time>
      </trkpt>
      <trkpt lat="42.69363" lon="1.64686">
        <ele>1586.7</ele>
        <time>2020-02-09T10:53:31Z</time>
      </trkpt>
      <trkpt lat="42.69365" lon="1.64684">
        <ele>1587.3</ele>
        <time>2020-02-09T10:53:37Z</time>
      </trkpt>
      <trkpt lat="42.69365" lon="1.64684">
        <ele>1587.4</ele>
        <time>2020-02-09T10:53:41Z</time>
      </trkpt>
      <trkpt lat="42.69364" lon="1.64686">
        <ele>1587.6</ele>
        <time>2020-02-09T10:53:43Z</time>
      </trkpt>
      <trkpt lat="42.69364" lon="1.64686">
        <ele>1587.8</ele>
        <time>2020-02-09T10:53:51Z</time>
      </trkpt>
      <trkpt lat="42.69366" lon="1.64689">
        <ele>1586.8</ele>
        <time>2020-02-09T10:54:00Z</time>
      </trkpt>
      <trkpt lat="42.69366" lon="1.64689">
        <ele>1586.9</ele>
        <time>2020-02-09T10:54:01Z</time>
      </trkpt>
      <trkpt lat="42.69366" lon="1.64689">
        <ele>1587.1</ele>
        <time>2020-02-09T10:54:11Z</time>
      </trkpt>
      <trkpt lat="42.69366" lon="1.64689">
        <ele>1587.2</ele>
        <time>2020-02-09T10:54:21Z</time>
      </trkpt>
      <trkpt lat="42.69366" lon="1.64692">
        <ele>1587.4</ele>
        <time>2020-02-09T10:54:29Z</time>
      </trkpt>
      <trkpt lat="42.69366" lon="1.64692">
        <ele>1587.6</ele>
        <time>2020-02-09T10:54:31Z</time>
      </trkpt>
      <trkpt lat="42.69365" lon="1.64694">
        <ele>1586.5</ele>
        <time>2020-02-09T10:54:35Z</time>
      </trkpt>
      <trkpt lat="42.69365" lon="1.64694">
        <ele>1586.7</ele>
        <time>2020-02-09T10:54:41Z</time>
      </trkpt>
      <trkpt lat="42.69366" lon="1.64692">
        <ele>1588</ele>
        <time>2020-02-09T10:54:47Z</time>
      </trkpt>
      <trkpt lat="42.69366" lon="1.64692">
        <ele>1588.2</ele>
        <time>2020-02-09T10:54:51Z</time>
      </trkpt>
      <trkpt lat="42.69367" lon="1.64689">
        <ele>1588.7</ele>
        <time>2020-02-09T10:54:53Z</time>
      </trkpt>
      <trkpt lat="42.69367" lon="1.64689">
        <ele>1588.8</ele>
        <time>2020-02-09T10:55:01Z</time>
      </trkpt>
      <trkpt lat="42.69365" lon="1.64691">
        <ele>1588.7</ele>
        <time>2020-02-09T10:55:09Z</time>
      </trkpt>
      <trkpt lat="42.69365" lon="1.64691">
        <ele>1588.9</ele>
        <time>2020-02-09T10:55:11Z</time>
      </trkpt>
      <trkpt lat="42.69364" lon="1.64693">
        <ele>1587.8</ele>
        <time>2020-02-09T10:55:20Z</time>
      </trkpt>
      <trkpt lat="42.69364" lon="1.64693">
        <ele>1588</ele>
        <time>2020-02-09T10:55:21Z</time>
      </trkpt>
      <trkpt lat="42.69364" lon="1.64693">
        <ele>1588.1</ele>
        <time>2020-02-09T10:55:31Z</time>
      </trkpt>
      <trkpt lat="42.69364" lon="1.64693">
        <ele>1588.3</ele>
        <time>2020-02-09T10:55:41Z</time>
      </trkpt>
      <trkpt lat="42.69364" lon="1.64693">
        <ele>1588.5</ele>
        <time>2020-02-09T10:55:51Z</time>
      </trkpt>
      <trkpt lat="42.69363" lon="1.64695">
        <ele>1588.2</ele>
        <time>2020-02-09T10:55:57Z</time>
      </trkpt>
      <trkpt lat="42.69363" lon="1.64695">
        <ele>1588.4</ele>
        <time>2020-02-09T10:56:01Z</time>
      </trkpt>
      <trkpt lat="42.69363" lon="1.64698">
        <ele>1587.4</ele>
        <time>2020-02-09T10:56:06Z</time>
      </trkpt>
      <trkpt lat="42.69363" lon="1.64698">
        <ele>1587.5</ele>
        <time>2020-02-09T10:56:11Z</time>
      </trkpt>
      <trkpt lat="42.69363" lon="1.64698">
        <ele>1587.7</ele>
        <time>2020-02-09T10:56:21Z</time>
      </trkpt>
      <trkpt lat="42.69363" lon="1.647">
        <ele>1587.8</ele>
        <time>2020-02-09T10:56:24Z</time>
      </trkpt>
      <trkpt lat="42.69363" lon="1.647">
        <ele>1588</ele>
        <time>2020-02-09T10:56:31Z</time>
      </trkpt>
      <trkpt lat="42.6936" lon="1.64701">
        <ele>1587</ele>
        <time>2020-02-09T10:56:36Z</time>
      </trkpt>
      <trkpt lat="42.6936" lon="1.64701">
        <ele>1587.1</ele>
        <time>2020-02-09T10:56:41Z</time>
      </trkpt>
      <trkpt lat="42.6936" lon="1.64701">
        <ele>1587.3</ele>
        <time>2020-02-09T10:56:51Z</time>
      </trkpt>
      <trkpt lat="42.69361" lon="1.64698">
        <ele>1588.7</ele>
        <time>2020-02-09T10:57:01Z</time>
      </trkpt>
      <trkpt lat="42.69361" lon="1.64698">
        <ele>1588.8</ele>
        <time>2020-02-09T10:57:11Z</time>
      </trkpt>
      <trkpt lat="42.69361" lon="1.64698">
        <ele>1589</ele>
        <time>2020-02-09T10:57:21Z</time>
      </trkpt>
      <trkpt lat="42.69361" lon="1.64696">
        <ele>1590.3</ele>
        <time>2020-02-09T10:57:27Z</time>
      </trkpt>
      <trkpt lat="42.69361" lon="1.64696">
        <ele>1590.5</ele>
        <time>2020-02-09T10:57:31Z</time>
      </trkpt>
      <trkpt lat="42.69361" lon="1.64696">
        <ele>1590.5</ele>
        <time>2020-02-09T10:57:41Z</time>
      </trkpt>
      <trkpt lat="42.69361" lon="1.64696">
        <ele>1590.5</ele>
        <time>2020-02-09T10:57:51Z</time>
      </trkpt>
      <trkpt lat="42.69365" lon="1.64687">
        <ele>1593.3</ele>
        <time>2020-02-09T10:57:54Z</time>
      </trkpt>
      <trkpt lat="42.69365" lon="1.64687">
        <ele>1593.3</ele>
        <time>2020-02-09T10:58:01Z</time>
      </trkpt>
      <trkpt lat="42.69365" lon="1.64687">
        <ele>1593.3</ele>
        <time>2020-02-09T10:58:11Z</time>
      </trkpt>
      <trkpt lat="42.69365" lon="1.64687">
        <ele>1593.3</ele>
        <time>2020-02-09T10:58:21Z</time>
      </trkpt>
      <trkpt lat="42.69365" lon="1.64687">
        <ele>1593.3</ele>
        <time>2020-02-09T10:58:31Z</time>
      </trkpt>
      <trkpt lat="42.69365" lon="1.64687">
        <ele>1593.3</ele>
        <time>2020-02-09T10:58:41Z</time>
      </trkpt>
      <trkpt lat="42.69365" lon="1.64687">
        <ele>1593.3</ele>
        <time>2020-02-09T10:58:51Z</time>
      </trkpt>
      <trkpt lat="42.69365" lon="1.64687">
        <ele>1593.3</ele>
        <time>2020-02-09T10:59:01Z</time>
      </trkpt>
      <trkpt lat="42.69361" lon="1.64695">
        <ele>1590.5</ele>
        <time>2020-02-09T10:59:10Z</time>
      </trkpt>
      <trkpt lat="42.69361" lon="1.64695">
        <ele>1590.5</ele>
        <time>2020-02-09T10:59:11Z</time>
      </trkpt>
      <trkpt lat="42.69361" lon="1.64695">
        <ele>1590.5</ele>
        <time>2020-02-09T10:59:21Z</time>
      </trkpt>
      <trkpt lat="42.69361" lon="1.64695">
        <ele>1590.5</ele>
        <time>2020-02-09T10:59:31Z</time>
      </trkpt>
      <trkpt lat="42.69361" lon="1.64695">
        <ele>1590.5</ele>
        <time>2020-02-09T10:59:41Z</time>
      </trkpt>
      <trkpt lat="42.69361" lon="1.64695">
        <ele>1590.5</ele>
        <time>2020-02-09T10:59:51Z</time>
      </trkpt>
      <trkpt lat="42.69361" lon="1.64695">
        <ele>1590.5</ele>
        <time>2020-02-09T11:00:01Z</time>
      </trkpt>
      <trkpt lat="42.69361" lon="1.64695">
        <ele>1590.5</ele>
        <time>2020-02-09T11:00:11Z</time>
      </trkpt>
      <trkpt lat="42.69361" lon="1.64695">
        <ele>1590.5</ele>
        <time>2020-02-09T11:00:21Z</time>
      </trkpt>
      <trkpt lat="42.69361" lon="1.64695">
        <ele>1590.5</ele>
        <time>2020-02-09T11:00:31Z</time>
      </trkpt>
      <trkpt lat="42.69361" lon="1.64695">
        <ele>1590.5</ele>
        <time>2020-02-09T11:00:41Z</time>
      </trkpt>
      <trkpt lat="42.69361" lon="1.64695">
        <ele>1590.5</ele>
        <time>2020-02-09T11:00:51Z</time>
      </trkpt>
      <trkpt lat="42.69361" lon="1.64695">
        <ele>1590.5</ele>
        <time>2020-02-09T11:01:01Z</time>
      </trkpt>
      <trkpt lat="42.69361" lon="1.64695">
        <ele>1590.5</ele>
        <time>2020-02-09T11:01:11Z</time>
      </trkpt>
      <trkpt lat="42.69361" lon="1.64695">
        <ele>1590.5</ele>
        <time>2020-02-09T11:01:21Z</time>
      </trkpt>
      <trkpt lat="42.69361" lon="1.64695">
        <ele>1590.5</ele>
        <time>2020-02-09T11:01:31Z</time>
      </trkpt>
      <trkpt lat="42.69361" lon="1.64695">
        <ele>1590.5</ele>
        <time>2020-02-09T11:01:41Z</time>
      </trkpt>
      <trkpt lat="42.69364" lon="1.6469">
        <ele>1592.1</ele>
        <time>2020-02-09T11:03:26Z</time>
      </trkpt>
      <trkpt lat="42.69364" lon="1.6469">
        <ele>1592.1</ele>
        <time>2020-02-09T11:03:33Z</time>
      </trkpt>
      <trkpt lat="42.69364" lon="1.6469">
        <ele>1592.1</ele>
        <time>2020-02-09T11:03:43Z</time>
      </trkpt>
      <trkpt lat="42.69362" lon="1.64691">
        <ele>1591.7</ele>
        <time>2020-02-09T11:03:48Z</time>
      </trkpt>
      <trkpt lat="42.69362" lon="1.64691">
        <ele>1591.7</ele>
        <time>2020-02-09T11:03:53Z</time>
      </trkpt>
      <trkpt lat="42.69362" lon="1.64691">
        <ele>1591.7</ele>
        <time>2020-02-09T11:04:03Z</time>
      </trkpt>
      <trkpt lat="42.69362" lon="1.64691">
        <ele>1591.7</ele>
        <time>2020-02-09T11:04:13Z</time>
      </trkpt>
      <trkpt lat="42.69362" lon="1.64691">
        <ele>1591.7</ele>
        <time>2020-02-09T11:04:23Z</time>
      </trkpt>
      <trkpt lat="42.69362" lon="1.64691">
        <ele>1591.7</ele>
        <time>2020-02-09T11:04:33Z</time>
      </trkpt>
      <trkpt lat="42.69362" lon="1.64691">
        <ele>1591.7</ele>
        <time>2020-02-09T11:04:43Z</time>
      </trkpt>
      <trkpt lat="42.69362" lon="1.64691">
        <ele>1591.7</ele>
        <time>2020-02-09T11:04:53Z</time>
      </trkpt>
      <trkpt lat="42.69362" lon="1.64691">
        <ele>1591.7</ele>
        <time>2020-02-09T11:05:03Z</time>
      </trkpt>
      <trkpt lat="42.69365" lon="1.64686">
        <ele>1593.3</ele>
        <time>2020-02-09T11:05:10Z</time>
      </trkpt>
      <trkpt lat="42.69365" lon="1.64686">
        <ele>1593.3</ele>
        <time>2020-02-09T11:05:13Z</time>
      </trkpt>
      <trkpt lat="42.69365" lon="1.64686">
        <ele>1593.3</ele>
        <time>2020-02-09T11:05:23Z</time>
      </trkpt>
      <trkpt lat="42.69365" lon="1.64686">
        <ele>1593.3</ele>
        <time>2020-02-09T11:05:33Z</time>
      </trkpt>
      <trkpt lat="42.69365" lon="1.64686">
        <ele>1593.3</ele>
        <time>2020-02-09T11:05:43Z</time>
      </trkpt>
      <trkpt lat="42.69365" lon="1.64686">
        <ele>1593.3</ele>
        <time>2020-02-09T11:05:53Z</time>
      </trkpt>
      <trkpt lat="42.69365" lon="1.64686">
        <ele>1593.3</ele>
        <time>2020-02-09T11:06:03Z</time>
      </trkpt>
      <trkpt lat="42.69365" lon="1.64686">
        <ele>1593.3</ele>
        <time>2020-02-09T11:06:13Z</time>
      </trkpt>
      <trkpt lat="42.69365" lon="1.64686">
        <ele>1593.3</ele>
        <time>2020-02-09T11:06:23Z</time>
      </trkpt>
      <trkpt lat="42.69365" lon="1.64686">
        <ele>1593.3</ele>
        <time>2020-02-09T11:06:33Z</time>
      </trkpt>
      <trkpt lat="42.69365" lon="1.64686">
        <ele>1593.3</ele>
        <time>2020-02-09T11:06:43Z</time>
      </trkpt>
      <trkpt lat="42.69366" lon="1.64673">
        <ele>1596.5</ele>
        <time>2020-02-09T11:06:45Z</time>
      </trkpt>
      <trkpt lat="42.69366" lon="1.64673">
        <ele>1596.5</ele>
        <time>2020-02-09T11:06:53Z</time>
      </trkpt>
      <trkpt lat="42.69366" lon="1.64673">
        <ele>1596.5</ele>
        <time>2020-02-09T11:07:03Z</time>
      </trkpt>
      <trkpt lat="42.69364" lon="1.64681">
        <ele>1594.4</ele>
        <time>2020-02-09T11:07:08Z</time>
      </trkpt>
      <trkpt lat="42.69364" lon="1.64681">
        <ele>1594.4</ele>
        <time>2020-02-09T11:07:13Z</time>
      </trkpt>
      <trkpt lat="42.69364" lon="1.64681">
        <ele>1594.4</ele>
        <time>2020-02-09T11:07:23Z</time>
      </trkpt>
      <trkpt lat="42.69364" lon="1.64681">
        <ele>1594.4</ele>
        <time>2020-02-09T11:07:33Z</time>
      </trkpt>
      <trkpt lat="42.69364" lon="1.64681">
        <ele>1594.4</ele>
        <time>2020-02-09T11:07:43Z</time>
      </trkpt>
      <trkpt lat="42.69356" lon="1.64673">
        <ele>1595.7</ele>
        <time>2020-02-09T11:07:47Z</time>
      </trkpt>
      <trkpt lat="42.69356" lon="1.64673">
        <ele>1595.7</ele>
        <time>2020-02-09T11:07:53Z</time>
      </trkpt>
      <trkpt lat="42.69356" lon="1.64673">
        <ele>1595.7</ele>
        <time>2020-02-09T11:08:03Z</time>
      </trkpt>
      <trkpt lat="42.69356" lon="1.64673">
        <ele>1595.7</ele>
        <time>2020-02-09T11:08:13Z</time>
      </trkpt>
      <trkpt lat="42.69348" lon="1.6468">
        <ele>1592.9</ele>
        <time>2020-02-09T11:08:15Z</time>
      </trkpt>
      <trkpt lat="42.69348" lon="1.6468">
        <ele>1592.9</ele>
        <time>2020-02-09T11:08:23Z</time>
      </trkpt>
      <trkpt lat="42.69348" lon="1.6468">
        <ele>1592.9</ele>
        <time>2020-02-09T11:08:33Z</time>
      </trkpt>
      <trkpt lat="42.69348" lon="1.6468">
        <ele>1592.9</ele>
        <time>2020-02-09T11:08:43Z</time>
      </trkpt>
      <trkpt lat="42.69339" lon="1.64676">
        <ele>1593.3</ele>
        <time>2020-02-09T11:08:44Z</time>
      </trkpt>
      <trkpt lat="42.69339" lon="1.64676">
        <ele>1593.3</ele>
        <time>2020-02-09T11:08:53Z</time>
      </trkpt>
      <trkpt lat="42.69328" lon="1.64674">
        <ele>1593.2</ele>
        <time>2020-02-09T11:08:59Z</time>
      </trkpt>
      <trkpt lat="42.69328" lon="1.64674">
        <ele>1593.2</ele>
        <time>2020-02-09T11:09:03Z</time>
      </trkpt>
      <trkpt lat="42.69319" lon="1.64677">
        <ele>1590.8</ele>
        <time>2020-02-09T11:09:06Z</time>
      </trkpt>
      <trkpt lat="42.69319" lon="1.64677">
        <ele>1590.8</ele>
        <time>2020-02-09T11:09:13Z</time>
      </trkpt>
      <trkpt lat="42.69319" lon="1.64677">
        <ele>1590.8</ele>
        <time>2020-02-09T11:09:23Z</time>
      </trkpt>
      <trkpt lat="42.69309" lon="1.64679">
        <ele>1587.9</ele>
        <time>2020-02-09T11:09:30Z</time>
      </trkpt>
      <trkpt lat="42.69309" lon="1.64679">
        <ele>1587.9</ele>
        <time>2020-02-09T11:09:33Z</time>
      </trkpt>
      <trkpt lat="42.69302" lon="1.6467">
        <ele>1590.5</ele>
        <time>2020-02-09T11:09:41Z</time>
      </trkpt>
      <trkpt lat="42.69302" lon="1.6467">
        <ele>1590.5</ele>
        <time>2020-02-09T11:09:43Z</time>
      </trkpt>
      <trkpt lat="42.69302" lon="1.6467">
        <ele>1590.5</ele>
        <time>2020-02-09T11:09:53Z</time>
      </trkpt>
      <trkpt lat="42.69294" lon="1.64664">
        <ele>1590.5</ele>
        <time>2020-02-09T11:09:54Z</time>
      </trkpt>
      <trkpt lat="42.69294" lon="1.64664">
        <ele>1590.5</ele>
        <time>2020-02-09T11:10:03Z</time>
      </trkpt>
      <trkpt lat="42.69294" lon="1.64664">
        <ele>1590.5</ele>
        <time>2020-02-09T11:10:13Z</time>
      </trkpt>
      <trkpt lat="42.69284" lon="1.64658">
        <ele>1590.5</ele>
        <time>2020-02-09T11:10:17Z</time>
      </trkpt>
      <trkpt lat="42.69274" lon="1.64658">
        <ele>1586.7</ele>
        <time>2020-02-09T11:10:23Z</time>
      </trkpt>
      <trkpt lat="42.69265" lon="1.64656">
        <ele>1586</ele>
        <time>2020-02-09T11:10:30Z</time>
      </trkpt>
      <trkpt lat="42.69265" lon="1.64656">
        <ele>1586</ele>
        <time>2020-02-09T11:10:33Z</time>
      </trkpt>
      <trkpt lat="42.69257" lon="1.6465">
        <ele>1586.1</ele>
        <time>2020-02-09T11:10:43Z</time>
      </trkpt>
      <trkpt lat="42.69257" lon="1.6465">
        <ele>1586.1</ele>
        <time>2020-02-09T11:10:53Z</time>
      </trkpt>
      <trkpt lat="42.69256" lon="1.64638">
        <ele>1590.2</ele>
        <time>2020-02-09T11:10:56Z</time>
      </trkpt>
      <trkpt lat="42.69256" lon="1.64638">
        <ele>1590.2</ele>
        <time>2020-02-09T11:11:03Z</time>
      </trkpt>
      <trkpt lat="42.69256" lon="1.64638">
        <ele>1590.2</ele>
        <time>2020-02-09T11:11:13Z</time>
      </trkpt>
      <trkpt lat="42.69247" lon="1.64633">
        <ele>1589.7</ele>
        <time>2020-02-09T11:11:20Z</time>
      </trkpt>
      <trkpt lat="42.69247" lon="1.64633">
        <ele>1589.7</ele>
        <time>2020-02-09T11:11:23Z</time>
      </trkpt>
      <trkpt lat="42.69247" lon="1.64633">
        <ele>1589.7</ele>
        <time>2020-02-09T11:11:33Z</time>
      </trkpt>
      <trkpt lat="42.69247" lon="1.64633">
        <ele>1589.7</ele>
        <time>2020-02-09T11:11:43Z</time>
      </trkpt>
      <trkpt lat="42.69237" lon="1.64636">
        <ele>1588.5</ele>
        <time>2020-02-09T11:11:48Z</time>
      </trkpt>
      <trkpt lat="42.69237" lon="1.64636">
        <ele>1588.5</ele>
        <time>2020-02-09T11:11:53Z</time>
      </trkpt>
      <trkpt lat="42.69237" lon="1.64636">
        <ele>1588.5</ele>
        <time>2020-02-09T11:12:03Z</time>
      </trkpt>
      <trkpt lat="42.69237" lon="1.64636">
        <ele>1588.5</ele>
        <time>2020-02-09T11:12:13Z</time>
      </trkpt>
      <trkpt lat="42.69237" lon="1.64636">
        <ele>1588.5</ele>
        <time>2020-02-09T11:12:23Z</time>
      </trkpt>
      <trkpt lat="42.6923" lon="1.64628">
        <ele>1588.2</ele>
        <time>2020-02-09T11:12:24Z</time>
      </trkpt>
      <trkpt lat="42.6923" lon="1.64628">
        <ele>1588.2</ele>
        <time>2020-02-09T11:12:33Z</time>
      </trkpt>
      <trkpt lat="42.6923" lon="1.64628">
        <ele>1588.2</ele>
        <time>2020-02-09T11:12:43Z</time>
      </trkpt>
      <trkpt lat="42.69222" lon="1.64634">
        <ele>1585.5</ele>
        <time>2020-02-09T11:12:45Z</time>
      </trkpt>
      <trkpt lat="42.69222" lon="1.64634">
        <ele>1585.5</ele>
        <time>2020-02-09T11:12:53Z</time>
      </trkpt>
      <trkpt lat="42.69213" lon="1.64637">
        <ele>1582.3</ele>
        <time>2020-02-09T11:12:58Z</time>
      </trkpt>
      <trkpt lat="42.69213" lon="1.64637">
        <ele>1582.3</ele>
        <time>2020-02-09T11:13:03Z</time>
      </trkpt>
      <trkpt lat="42.69213" lon="1.64637">
        <ele>1582.3</ele>
        <time>2020-02-09T11:13:13Z</time>
      </trkpt>
      <trkpt lat="42.69213" lon="1.64637">
        <ele>1582.3</ele>
        <time>2020-02-09T11:13:23Z</time>
      </trkpt>
      <trkpt lat="42.69204" lon="1.64638">
        <ele>1580.8</ele>
        <time>2020-02-09T11:13:28Z</time>
      </trkpt>
      <trkpt lat="42.69204" lon="1.64638">
        <ele>1580.8</ele>
        <time>2020-02-09T11:13:33Z</time>
      </trkpt>
      <trkpt lat="42.69204" lon="1.64638">
        <ele>1580.8</ele>
        <time>2020-02-09T11:13:43Z</time>
      </trkpt>
      <trkpt lat="42.69198" lon="1.64628">
        <ele>1583.1</ele>
        <time>2020-02-09T11:13:46Z</time>
      </trkpt>
      <trkpt lat="42.69198" lon="1.64628">
        <ele>1583.1</ele>
        <time>2020-02-09T11:13:53Z</time>
      </trkpt>
      <trkpt lat="42.69198" lon="1.64628">
        <ele>1583.1</ele>
        <time>2020-02-09T11:14:03Z</time>
      </trkpt>
      <trkpt lat="42.69188" lon="1.64627">
        <ele>1583</ele>
        <time>2020-02-09T11:14:08Z</time>
      </trkpt>
      <trkpt lat="42.69188" lon="1.64627">
        <ele>1583</ele>
        <time>2020-02-09T11:14:13Z</time>
      </trkpt>
      <trkpt lat="42.69188" lon="1.64627">
        <ele>1583</ele>
        <time>2020-02-09T11:14:23Z</time>
      </trkpt>
      <trkpt lat="42.69178" lon="1.64629">
        <ele>1579.9</ele>
        <time>2020-02-09T11:14:27Z</time>
      </trkpt>
      <trkpt lat="42.69178" lon="1.64629">
        <ele>1579.9</ele>
        <time>2020-02-09T11:14:33Z</time>
      </trkpt>
      <trkpt lat="42.69171" lon="1.64636">
        <ele>1574.3</ele>
        <time>2020-02-09T11:14:35Z</time>
      </trkpt>
      <trkpt lat="42.69171" lon="1.64636">
        <ele>1574.3</ele>
        <time>2020-02-09T11:14:43Z</time>
      </trkpt>
      <trkpt lat="42.69161" lon="1.64637">
        <ele>1571.7</ele>
        <time>2020-02-09T11:14:49Z</time>
      </trkpt>
      <trkpt lat="42.69161" lon="1.64637">
        <ele>1571.7</ele>
        <time>2020-02-09T11:14:53Z</time>
      </trkpt>
      <trkpt lat="42.69161" lon="1.64637">
        <ele>1571.7</ele>
        <time>2020-02-09T11:15:03Z</time>
      </trkpt>
      <trkpt lat="42.69152" lon="1.64635">
        <ele>1572.1</ele>
        <time>2020-02-09T11:15:13Z</time>
      </trkpt>
      <trkpt lat="42.69152" lon="1.64635">
        <ele>1572.1</ele>
        <time>2020-02-09T11:15:23Z</time>
      </trkpt>
      <trkpt lat="42.69144" lon="1.64632">
        <ele>1571.8</ele>
        <time>2020-02-09T11:15:30Z</time>
      </trkpt>
      <trkpt lat="42.69144" lon="1.64632">
        <ele>1571.8</ele>
        <time>2020-02-09T11:15:33Z</time>
      </trkpt>
      <trkpt lat="42.69137" lon="1.64622">
        <ele>1573.6</ele>
        <time>2020-02-09T11:15:40Z</time>
      </trkpt>
      <trkpt lat="42.69137" lon="1.64622">
        <ele>1573.6</ele>
        <time>2020-02-09T11:15:43Z</time>
      </trkpt>
      <trkpt lat="42.69137" lon="1.64622">
        <ele>1573.6</ele>
        <time>2020-02-09T11:15:53Z</time>
      </trkpt>
      <trkpt lat="42.6913" lon="1.64613">
        <ele>1575.6</ele>
        <time>2020-02-09T11:16:01Z</time>
      </trkpt>
      <trkpt lat="42.6913" lon="1.64613">
        <ele>1575.6</ele>
        <time>2020-02-09T11:16:03Z</time>
      </trkpt>
      <trkpt lat="42.6913" lon="1.64613">
        <ele>1575.6</ele>
        <time>2020-02-09T11:16:13Z</time>
      </trkpt>
      <trkpt lat="42.6913" lon="1.64613">
        <ele>1575.6</ele>
        <time>2020-02-09T11:16:23Z</time>
      </trkpt>
      <trkpt lat="42.69121" lon="1.64615">
        <ele>1572</ele>
        <time>2020-02-09T11:16:25Z</time>
      </trkpt>
      <trkpt lat="42.69121" lon="1.64615">
        <ele>1572</ele>
        <time>2020-02-09T11:16:33Z</time>
      </trkpt>
      <trkpt lat="42.69121" lon="1.64615">
        <ele>1572</ele>
        <time>2020-02-09T11:16:43Z</time>
      </trkpt>
      <trkpt lat="42.69112" lon="1.6462">
        <ele>1568.1</ele>
        <time>2020-02-09T11:16:53Z</time>
      </trkpt>
      <trkpt lat="42.69112" lon="1.6462">
        <ele>1568.1</ele>
        <time>2020-02-09T11:17:03Z</time>
      </trkpt>
      <trkpt lat="42.69103" lon="1.64619">
        <ele>1565.8</ele>
        <time>2020-02-09T11:17:13Z</time>
      </trkpt>
      <trkpt lat="42.69103" lon="1.64619">
        <ele>1565.8</ele>
        <time>2020-02-09T11:17:23Z</time>
      </trkpt>
      <trkpt lat="42.69103" lon="1.64619">
        <ele>1565.8</ele>
        <time>2020-02-09T11:17:33Z</time>
      </trkpt>
      <trkpt lat="42.69094" lon="1.64626">
        <ele>1561.8</ele>
        <time>2020-02-09T11:17:39Z</time>
      </trkpt>
      <trkpt lat="42.69094" lon="1.64626">
        <ele>1561.8</ele>
        <time>2020-02-09T11:17:43Z</time>
      </trkpt>
      <trkpt lat="42.69088" lon="1.64637">
        <ele>1554</ele>
        <time>2020-02-09T11:17:48Z</time>
      </trkpt>
      <trkpt lat="42.69088" lon="1.64637">
        <ele>1554</ele>
        <time>2020-02-09T11:17:53Z</time>
      </trkpt>
      <trkpt lat="42.69079" lon="1.64632">
        <ele>1553.7</ele>
        <time>2020-02-09T11:18:01Z</time>
      </trkpt>
      <trkpt lat="42.69079" lon="1.64632">
        <ele>1553.7</ele>
        <time>2020-02-09T11:18:03Z</time>
      </trkpt>
      <trkpt lat="42.69079" lon="1.64632">
        <ele>1553.7</ele>
        <time>2020-02-09T11:18:13Z</time>
      </trkpt>
      <trkpt lat="42.69074" lon="1.6462">
        <ele>1558.8</ele>
        <time>2020-02-09T11:18:19Z</time>
      </trkpt>
      <trkpt lat="42.69074" lon="1.6462">
        <ele>1558.8</ele>
        <time>2020-02-09T11:18:23Z</time>
      </trkpt>
      <trkpt lat="42.69074" lon="1.6462">
        <ele>1558.8</ele>
        <time>2020-02-09T11:18:33Z</time>
      </trkpt>
      <trkpt lat="42.69074" lon="1.6462">
        <ele>1558.8</ele>
        <time>2020-02-09T11:18:43Z</time>
      </trkpt>
      <trkpt lat="42.69074" lon="1.6462">
        <ele>1558.8</ele>
        <time>2020-02-09T11:18:53Z</time>
      </trkpt>
      <trkpt lat="42.69074" lon="1.6462">
        <ele>1558.8</ele>
        <time>2020-02-09T11:19:03Z</time>
      </trkpt>
      <trkpt lat="42.69083" lon="1.64617">
        <ele>1563.2</ele>
        <time>2020-02-09T11:19:07Z</time>
      </trkpt>
      <trkpt lat="42.69083" lon="1.64617">
        <ele>1563.2</ele>
        <time>2020-02-09T11:19:13Z</time>
      </trkpt>
      <trkpt lat="42.69083" lon="1.64617">
        <ele>1563.2</ele>
        <time>2020-02-09T11:19:23Z</time>
      </trkpt>
      <trkpt lat="42.69083" lon="1.64617">
        <ele>1563.2</ele>
        <time>2020-02-09T11:19:33Z</time>
      </trkpt>
      <trkpt lat="42.69078" lon="1.64627">
        <ele>1557.7</ele>
        <time>2020-02-09T11:19:42Z</time>
      </trkpt>
      <trkpt lat="42.69078" lon="1.64627">
        <ele>1557.7</ele>
        <time>2020-02-09T11:19:43Z</time>
      </trkpt>
      <trkpt lat="42.69078" lon="1.64627">
        <ele>1557.7</ele>
        <time>2020-02-09T11:19:53Z</time>
      </trkpt>
      <trkpt lat="42.69078" lon="1.64627">
        <ele>1557.7</ele>
        <time>2020-02-09T11:20:03Z</time>
      </trkpt>
      <trkpt lat="42.69078" lon="1.64627">
        <ele>1557.7</ele>
        <time>2020-02-09T11:20:13Z</time>
      </trkpt>
      <trkpt lat="42.69078" lon="1.64627">
        <ele>1557.7</ele>
        <time>2020-02-09T11:20:23Z</time>
      </trkpt>
      <trkpt lat="42.69075" lon="1.64616">
        <ele>1560.8</ele>
        <time>2020-02-09T11:20:25Z</time>
      </trkpt>
      <trkpt lat="42.69075" lon="1.64616">
        <ele>1560.8</ele>
        <time>2020-02-09T11:20:33Z</time>
      </trkpt>
      <trkpt lat="42.69075" lon="1.64616">
        <ele>1560.8</ele>
        <time>2020-02-09T11:20:43Z</time>
      </trkpt>
      <trkpt lat="42.69075" lon="1.64616">
        <ele>1560.8</ele>
        <time>2020-02-09T11:20:53Z</time>
      </trkpt>
      <trkpt lat="42.69075" lon="1.64616">
        <ele>1560.8</ele>
        <time>2020-02-09T11:21:03Z</time>
      </trkpt>
      <trkpt lat="42.69075" lon="1.64616">
        <ele>1560.8</ele>
        <time>2020-02-09T11:21:13Z</time>
      </trkpt>
      <trkpt lat="42.69075" lon="1.64616">
        <ele>1560.8</ele>
        <time>2020-02-09T11:21:23Z</time>
      </trkpt>
      <trkpt lat="42.69065" lon="1.64616">
        <ele>1558.4</ele>
        <time>2020-02-09T11:21:27Z</time>
      </trkpt>
      <trkpt lat="42.69065" lon="1.64616">
        <ele>1558.4</ele>
        <time>2020-02-09T11:21:33Z</time>
      </trkpt>
      <trkpt lat="42.69056" lon="1.64617">
        <ele>1556.1</ele>
        <time>2020-02-09T11:21:39Z</time>
      </trkpt>
      <trkpt lat="42.69056" lon="1.64617">
        <ele>1556.1</ele>
        <time>2020-02-09T11:21:43Z</time>
      </trkpt>
      <trkpt lat="42.69047" lon="1.6462">
        <ele>1551.4</ele>
        <time>2020-02-09T11:21:50Z</time>
      </trkpt>
      <trkpt lat="42.69047" lon="1.6462">
        <ele>1551.4</ele>
        <time>2020-02-09T11:21:53Z</time>
      </trkpt>
      <trkpt lat="42.69047" lon="1.6462">
        <ele>1551.4</ele>
        <time>2020-02-09T11:22:03Z</time>
      </trkpt>
      <trkpt lat="42.69041" lon="1.6463">
        <ele>1546.4</ele>
        <time>2020-02-09T11:22:04Z</time>
      </trkpt>
      <trkpt lat="42.69041" lon="1.6463">
        <ele>1546.4</ele>
        <time>2020-02-09T11:22:13Z</time>
      </trkpt>
      <trkpt lat="42.69041" lon="1.6463">
        <ele>1546.4</ele>
        <time>2020-02-09T11:22:23Z</time>
      </trkpt>
      <trkpt lat="42.69041" lon="1.64617">
        <ele>1551.9</ele>
        <time>2020-02-09T11:22:27Z</time>
      </trkpt>
      <trkpt lat="42.69041" lon="1.64617">
        <ele>1551.9</ele>
        <time>2020-02-09T11:22:33Z</time>
      </trkpt>
      <trkpt lat="42.69041" lon="1.64617">
        <ele>1551.9</ele>
        <time>2020-02-09T11:22:43Z</time>
      </trkpt>
      <trkpt lat="42.69041" lon="1.64617">
        <ele>1551.9</ele>
        <time>2020-02-09T11:22:53Z</time>
      </trkpt>
      <trkpt lat="42.6903" lon="1.64622">
        <ele>1548.1</ele>
        <time>2020-02-09T11:23:01Z</time>
      </trkpt>
      <trkpt lat="42.6903" lon="1.64622">
        <ele>1548.1</ele>
        <time>2020-02-09T11:23:03Z</time>
      </trkpt>
      <trkpt lat="42.6902" lon="1.64627">
        <ele>1543.8</ele>
        <time>2020-02-09T11:23:09Z</time>
      </trkpt>
      <trkpt lat="42.6902" lon="1.64627">
        <ele>1543.8</ele>
        <time>2020-02-09T11:23:13Z</time>
      </trkpt>
      <trkpt lat="42.6902" lon="1.64627">
        <ele>1543.8</ele>
        <time>2020-02-09T11:23:23Z</time>
      </trkpt>
      <trkpt lat="42.6902" lon="1.64627">
        <ele>1543.8</ele>
        <time>2020-02-09T11:23:33Z</time>
      </trkpt>
      <trkpt lat="42.69013" lon="1.64619">
        <ele>1543.6</ele>
        <time>2020-02-09T11:23:39Z</time>
      </trkpt>
      <trkpt lat="42.69013" lon="1.64619">
        <ele>1543.6</ele>
        <time>2020-02-09T11:23:43Z</time>
      </trkpt>
      <trkpt lat="42.69008" lon="1.64617">
        <ele>1544.9</ele>
        <time>2020-02-09T11:23:53Z</time>
      </trkpt>
      <trkpt lat="42.69002" lon="1.64615">
        <ele>1543.1</ele>
        <time>2020-02-09T11:23:56Z</time>
      </trkpt>
      <trkpt lat="42.68997" lon="1.64613">
        <ele>1543.5</ele>
        <time>2020-02-09T11:24:03Z</time>
      </trkpt>
      <trkpt lat="42.68992" lon="1.6461">
        <ele>1542.6</ele>
        <time>2020-02-09T11:24:11Z</time>
      </trkpt>
      <trkpt lat="42.68986" lon="1.64608">
        <ele>1543.5</ele>
        <time>2020-02-09T11:24:13Z</time>
      </trkpt>
      <trkpt lat="42.68979" lon="1.64616">
        <ele>1537</ele>
        <time>2020-02-09T11:24:18Z</time>
      </trkpt>
      <trkpt lat="42.68979" lon="1.64616">
        <ele>1537</ele>
        <time>2020-02-09T11:24:23Z</time>
      </trkpt>
      <trkpt lat="42.68979" lon="1.64616">
        <ele>1537</ele>
        <time>2020-02-09T11:24:33Z</time>
      </trkpt>
      <trkpt lat="42.68979" lon="1.64616">
        <ele>1537</ele>
        <time>2020-02-09T11:24:43Z</time>
      </trkpt>
      <trkpt lat="42.68975" lon="1.64604">
        <ele>1542.9</ele>
        <time>2020-02-09T11:24:53Z</time>
      </trkpt>
      <trkpt lat="42.68975" lon="1.64604">
        <ele>1542.9</ele>
        <time>2020-02-09T11:25:03Z</time>
      </trkpt>
      <trkpt lat="42.68975" lon="1.64604">
        <ele>1542.9</ele>
        <time>2020-02-09T11:25:13Z</time>
      </trkpt>
      <trkpt lat="42.68967" lon="1.64613">
        <ele>1536.1</ele>
        <time>2020-02-09T11:25:18Z</time>
      </trkpt>
      <trkpt lat="42.68967" lon="1.64613">
        <ele>1536.1</ele>
        <time>2020-02-09T11:25:23Z</time>
      </trkpt>
      <trkpt lat="42.68961" lon="1.64621">
        <ele>1530</ele>
        <time>2020-02-09T11:25:24Z</time>
      </trkpt>
      <trkpt lat="42.68961" lon="1.64621">
        <ele>1530</ele>
        <time>2020-02-09T11:25:33Z</time>
      </trkpt>
      <trkpt lat="42.68961" lon="1.64621">
        <ele>1530</ele>
        <time>2020-02-09T11:25:43Z</time>
      </trkpt>
      <trkpt lat="42.68963" lon="1.64609">
        <ele>1537.1</ele>
        <time>2020-02-09T11:25:47Z</time>
      </trkpt>
      <trkpt lat="42.68963" lon="1.64609">
        <ele>1537.1</ele>
        <time>2020-02-09T11:25:53Z</time>
      </trkpt>
      <trkpt lat="42.68963" lon="1.64609">
        <ele>1537.1</ele>
        <time>2020-02-09T11:26:03Z</time>
      </trkpt>
      <trkpt lat="42.68963" lon="1.64609">
        <ele>1537.1</ele>
        <time>2020-02-09T11:26:13Z</time>
      </trkpt>
      <trkpt lat="42.68963" lon="1.64609">
        <ele>1537.1</ele>
        <time>2020-02-09T11:26:23Z</time>
      </trkpt>
      <trkpt lat="42.68963" lon="1.64609">
        <ele>1537.1</ele>
        <time>2020-02-09T11:26:33Z</time>
      </trkpt>
      <trkpt lat="42.68963" lon="1.64609">
        <ele>1537.1</ele>
        <time>2020-02-09T11:26:43Z</time>
      </trkpt>
      <trkpt lat="42.68963" lon="1.64609">
        <ele>1537.1</ele>
        <time>2020-02-09T11:26:53Z</time>
      </trkpt>
      <trkpt lat="42.68963" lon="1.64624">
        <ele>1528.5</ele>
        <time>2020-02-09T11:27:03Z</time>
      </trkpt>
      <trkpt lat="42.68963" lon="1.64624">
        <ele>1528.5</ele>
        <time>2020-02-09T11:27:13Z</time>
      </trkpt>
      <trkpt lat="42.68963" lon="1.64624">
        <ele>1528.5</ele>
        <time>2020-02-09T11:27:23Z</time>
      </trkpt>
      <trkpt lat="42.68962" lon="1.64637">
        <ele>1520.8</ele>
        <time>2020-02-09T11:27:33Z</time>
      </trkpt>
      <trkpt lat="42.68956" lon="1.64647">
        <ele>1514.7</ele>
        <time>2020-02-09T11:27:40Z</time>
      </trkpt>
      <trkpt lat="42.68956" lon="1.64647">
        <ele>1514.7</ele>
        <time>2020-02-09T11:27:43Z</time>
      </trkpt>
      <trkpt lat="42.68948" lon="1.64654">
        <ele>1509.4</ele>
        <time>2020-02-09T11:27:49Z</time>
      </trkpt>
      <trkpt lat="42.68948" lon="1.64654">
        <ele>1509.4</ele>
        <time>2020-02-09T11:27:53Z</time>
      </trkpt>
      <trkpt lat="42.68948" lon="1.64654">
        <ele>1509.4</ele>
        <time>2020-02-09T11:28:03Z</time>
      </trkpt>
      <trkpt lat="42.68948" lon="1.64654">
        <ele>1509.4</ele>
        <time>2020-02-09T11:28:13Z</time>
      </trkpt>
      <trkpt lat="42.68948" lon="1.64654">
        <ele>1509.4</ele>
        <time>2020-02-09T11:28:23Z</time>
      </trkpt>
      <trkpt lat="42.68948" lon="1.64654">
        <ele>1509.4</ele>
        <time>2020-02-09T11:28:33Z</time>
      </trkpt>
      <trkpt lat="42.68948" lon="1.64654">
        <ele>1509.4</ele>
        <time>2020-02-09T11:28:43Z</time>
      </trkpt>
      <trkpt lat="42.6894" lon="1.64661">
        <ele>1506.4</ele>
        <time>2020-02-09T11:28:44Z</time>
      </trkpt>
      <trkpt lat="42.6894" lon="1.64661">
        <ele>1506.4</ele>
        <time>2020-02-09T11:28:53Z</time>
      </trkpt>
      <trkpt lat="42.68938" lon="1.64674">
        <ele>1501.4</ele>
        <time>2020-02-09T11:28:54Z</time>
      </trkpt>
      <trkpt lat="42.68938" lon="1.64674">
        <ele>1501.4</ele>
        <time>2020-02-09T11:29:03Z</time>
      </trkpt>
      <trkpt lat="42.68942" lon="1.64663">
        <ele>1505</ele>
        <time>2020-02-09T11:29:06Z</time>
      </trkpt>
      <trkpt lat="42.68942" lon="1.64663">
        <ele>1505</ele>
        <time>2020-02-09T11:29:13Z</time>
      </trkpt>
      <trkpt lat="42.68942" lon="1.64663">
        <ele>1505</ele>
        <time>2020-02-09T11:29:23Z</time>
      </trkpt>
      <trkpt lat="42.68942" lon="1.64663">
        <ele>1505</ele>
        <time>2020-02-09T11:29:33Z</time>
      </trkpt>
      <trkpt lat="42.68947" lon="1.64676">
        <ele>1500.7</ele>
        <time>2020-02-09T11:29:43Z</time>
      </trkpt>
      <trkpt lat="42.68947" lon="1.64676">
        <ele>1500.7</ele>
        <time>2020-02-09T11:29:53Z</time>
      </trkpt>
      <trkpt lat="42.68947" lon="1.64676">
        <ele>1500.7</ele>
        <time>2020-02-09T11:30:03Z</time>
      </trkpt>
      <trkpt lat="42.68943" lon="1.64689">
        <ele>1495.2</ele>
        <time>2020-02-09T11:30:05Z</time>
      </trkpt>
      <trkpt lat="42.68937" lon="1.64698">
        <ele>1491.9</ele>
        <time>2020-02-09T11:30:13Z</time>
      </trkpt>
      <trkpt lat="42.68935" lon="1.64684">
        <ele>1496.5</ele>
        <time>2020-02-09T11:30:23Z</time>
      </trkpt>
      <trkpt lat="42.68934" lon="1.64672">
        <ele>1501.1</ele>
        <time>2020-02-09T11:30:26Z</time>
      </trkpt>
      <trkpt lat="42.68934" lon="1.64672">
        <ele>1501.1</ele>
        <time>2020-02-09T11:30:33Z</time>
      </trkpt>
      <trkpt lat="42.68932" lon="1.64658">
        <ele>1506.1</ele>
        <time>2020-02-09T11:30:34Z</time>
      </trkpt>
      <trkpt lat="42.68937" lon="1.6467">
        <ele>1502.8</ele>
        <time>2020-02-09T11:30:39Z</time>
      </trkpt>
      <trkpt lat="42.68937" lon="1.6467">
        <ele>1502.8</ele>
        <time>2020-02-09T11:30:43Z</time>
      </trkpt>
      <trkpt lat="42.68933" lon="1.64682">
        <ele>1498</ele>
        <time>2020-02-09T11:30:48Z</time>
      </trkpt>
      <trkpt lat="42.68933" lon="1.64682">
        <ele>1498</ele>
        <time>2020-02-09T11:30:53Z</time>
      </trkpt>
      <trkpt lat="42.68925" lon="1.64687">
        <ele>1496.6</ele>
        <time>2020-02-09T11:31:03Z</time>
      </trkpt>
      <trkpt lat="42.68925" lon="1.64687">
        <ele>1496.6</ele>
        <time>2020-02-09T11:31:13Z</time>
      </trkpt>
      <trkpt lat="42.68925" lon="1.64687">
        <ele>1496.6</ele>
        <time>2020-02-09T11:31:23Z</time>
      </trkpt>
      <trkpt lat="42.68925" lon="1.64687">
        <ele>1496.6</ele>
        <time>2020-02-09T11:31:33Z</time>
      </trkpt>
      <trkpt lat="42.68925" lon="1.64687">
        <ele>1496.6</ele>
        <time>2020-02-09T11:31:43Z</time>
      </trkpt>
      <trkpt lat="42.68919" lon="1.64697">
        <ele>1492.7</ele>
        <time>2020-02-09T11:31:49Z</time>
      </trkpt>
      <trkpt lat="42.68919" lon="1.64697">
        <ele>1492.7</ele>
        <time>2020-02-09T11:31:53Z</time>
      </trkpt>
      <trkpt lat="42.68921" lon="1.64697">
        <ele>1492.4</ele>
        <time>2020-02-09T11:32:03Z</time>
      </trkpt>
      <trkpt lat="42.68923" lon="1.64697">
        <ele>1492.2</ele>
        <time>2020-02-09T11:32:13Z</time>
      </trkpt>
      <trkpt lat="42.68925" lon="1.64696">
        <ele>1493.6</ele>
        <time>2020-02-09T11:32:21Z</time>
      </trkpt>
      <trkpt lat="42.68927" lon="1.64696">
        <ele>1493.5</ele>
        <time>2020-02-09T11:32:23Z</time>
      </trkpt>
      <trkpt lat="42.68927" lon="1.64696">
        <ele>1493.5</ele>
        <time>2020-02-09T11:32:33Z</time>
      </trkpt>
      <trkpt lat="42.68926" lon="1.64683">
        <ele>1498</ele>
        <time>2020-02-09T11:32:38Z</time>
      </trkpt>
      <trkpt lat="42.68926" lon="1.64683">
        <ele>1498</ele>
        <time>2020-02-09T11:32:43Z</time>
      </trkpt>
      <trkpt lat="42.68926" lon="1.64683">
        <ele>1498</ele>
        <time>2020-02-09T11:32:53Z</time>
      </trkpt>
      <trkpt lat="42.68918" lon="1.64692">
        <ele>1495.6</ele>
        <time>2020-02-09T11:33:00Z</time>
      </trkpt>
      <trkpt lat="42.68918" lon="1.64692">
        <ele>1495.6</ele>
        <time>2020-02-09T11:33:03Z</time>
      </trkpt>
      <trkpt lat="42.68911" lon="1.64711">
        <ele>1489.6</ele>
        <time>2020-02-09T11:33:08Z</time>
      </trkpt>
      <trkpt lat="42.68911" lon="1.64711">
        <ele>1489.6</ele>
        <time>2020-02-09T11:33:13Z</time>
      </trkpt>
      <trkpt lat="42.68911" lon="1.64711">
        <ele>1489.6</ele>
        <time>2020-02-09T11:33:23Z</time>
      </trkpt>
      <trkpt lat="42.68911" lon="1.64711">
        <ele>1489.6</ele>
        <time>2020-02-09T11:33:33Z</time>
      </trkpt>
      <trkpt lat="42.68918" lon="1.64719">
        <ele>1486.3</ele>
        <time>2020-02-09T11:33:43Z</time>
      </trkpt>
      <trkpt lat="42.68918" lon="1.64719">
        <ele>1486.3</ele>
        <time>2020-02-09T11:33:53Z</time>
      </trkpt>
      <trkpt lat="42.68918" lon="1.64719">
        <ele>1486.3</ele>
        <time>2020-02-09T11:34:03Z</time>
      </trkpt>
      <trkpt lat="42.68918" lon="1.64719">
        <ele>1486.3</ele>
        <time>2020-02-09T11:34:13Z</time>
      </trkpt>
      <trkpt lat="42.68926" lon="1.6471">
        <ele>1488.1</ele>
        <time>2020-02-09T11:34:16Z</time>
      </trkpt>
      <trkpt lat="42.68926" lon="1.6471">
        <ele>1488.1</ele>
        <time>2020-02-09T11:34:23Z</time>
      </trkpt>
      <trkpt lat="42.68933" lon="1.64701">
        <ele>1490.5</ele>
        <time>2020-02-09T11:34:25Z</time>
      </trkpt>
      <trkpt lat="42.68933" lon="1.64701">
        <ele>1490.5</ele>
        <time>2020-02-09T11:34:33Z</time>
      </trkpt>
      <trkpt lat="42.68933" lon="1.64701">
        <ele>1490.5</ele>
        <time>2020-02-09T11:34:43Z</time>
      </trkpt>
      <trkpt lat="42.68933" lon="1.64701">
        <ele>1490.5</ele>
        <time>2020-02-09T11:34:53Z</time>
      </trkpt>
      <trkpt lat="42.68937" lon="1.64712">
        <ele>1488</ele>
        <time>2020-02-09T11:35:02Z</time>
      </trkpt>
      <trkpt lat="42.68937" lon="1.64712">
        <ele>1488</ele>
        <time>2020-02-09T11:35:03Z</time>
      </trkpt>
      <trkpt lat="42.68929" lon="1.64722">
        <ele>1484</ele>
        <time>2020-02-09T11:35:13Z</time>
      </trkpt>
      <trkpt lat="42.68929" lon="1.64722">
        <ele>1484</ele>
        <time>2020-02-09T11:35:23Z</time>
      </trkpt>
      <trkpt lat="42.68926" lon="1.6471">
        <ele>1488.1</ele>
        <time>2020-02-09T11:35:28Z</time>
      </trkpt>
      <trkpt lat="42.68926" lon="1.6471">
        <ele>1488.1</ele>
        <time>2020-02-09T11:35:33Z</time>
      </trkpt>
      <trkpt lat="42.68933" lon="1.64719">
        <ele>1485.4</ele>
        <time>2020-02-09T11:35:42Z</time>
      </trkpt>
      <trkpt lat="42.68933" lon="1.64719">
        <ele>1485.4</ele>
        <time>2020-02-09T11:35:43Z</time>
      </trkpt>
      <trkpt lat="42.68929" lon="1.64733">
        <ele>1481</ele>
        <time>2020-02-09T11:35:50Z</time>
      </trkpt>
      <trkpt lat="42.68929" lon="1.64733">
        <ele>1481</ele>
        <time>2020-02-09T11:35:53Z</time>
      </trkpt>
      <trkpt lat="42.68919" lon="1.64733">
        <ele>1481.6</ele>
        <time>2020-02-09T11:35:59Z</time>
      </trkpt>
      <trkpt lat="42.68919" lon="1.64733">
        <ele>1481.6</ele>
        <time>2020-02-09T11:36:03Z</time>
      </trkpt>
      <trkpt lat="42.6891" lon="1.64738">
        <ele>1481.1</ele>
        <time>2020-02-09T11:36:06Z</time>
      </trkpt>
      <trkpt lat="42.6891" lon="1.64738">
        <ele>1481.1</ele>
        <time>2020-02-09T11:36:13Z</time>
      </trkpt>
      <trkpt lat="42.6891" lon="1.64738">
        <ele>1481.1</ele>
        <time>2020-02-09T11:36:23Z</time>
      </trkpt>
      <trkpt lat="42.68916" lon="1.64727">
        <ele>1483.4</ele>
        <time>2020-02-09T11:36:26Z</time>
      </trkpt>
      <trkpt lat="42.68925" lon="1.6472">
        <ele>1485.7</ele>
        <time>2020-02-09T11:36:29Z</time>
      </trkpt>
      <trkpt lat="42.68925" lon="1.6472">
        <ele>1485.7</ele>
        <time>2020-02-09T11:36:33Z</time>
      </trkpt>
      <trkpt lat="42.68925" lon="1.6472">
        <ele>1485.7</ele>
        <time>2020-02-09T11:36:43Z</time>
      </trkpt>
      <trkpt lat="42.68931" lon="1.64709">
        <ele>1489.3</ele>
        <time>2020-02-09T11:36:46Z</time>
      </trkpt>
      <trkpt lat="42.68931" lon="1.64709">
        <ele>1489.3</ele>
        <time>2020-02-09T11:36:53Z</time>
      </trkpt>
      <trkpt lat="42.68931" lon="1.64709">
        <ele>1489.3</ele>
        <time>2020-02-09T11:37:03Z</time>
      </trkpt>
      <trkpt lat="42.68931" lon="1.64709">
        <ele>1489.3</ele>
        <time>2020-02-09T11:37:13Z</time>
      </trkpt>
      <trkpt lat="42.68922" lon="1.64711">
        <ele>1488.3</ele>
        <time>2020-02-09T11:37:17Z</time>
      </trkpt>
      <trkpt lat="42.68922" lon="1.64711">
        <ele>1488.3</ele>
        <time>2020-02-09T11:37:23Z</time>
      </trkpt>
      <trkpt lat="42.68919" lon="1.64724">
        <ele>1484.8</ele>
        <time>2020-02-09T11:37:30Z</time>
      </trkpt>
      <trkpt lat="42.68919" lon="1.64724">
        <ele>1484.8</ele>
        <time>2020-02-09T11:37:33Z</time>
      </trkpt>
      <trkpt lat="42.68914" lon="1.64735">
        <ele>1480.7</ele>
        <time>2020-02-09T11:37:38Z</time>
      </trkpt>
      <trkpt lat="42.68914" lon="1.64735">
        <ele>1480.7</ele>
        <time>2020-02-09T11:37:43Z</time>
      </trkpt>
      <trkpt lat="42.68914" lon="1.64735">
        <ele>1480.7</ele>
        <time>2020-02-09T11:37:53Z</time>
      </trkpt>
      <trkpt lat="42.68909" lon="1.64746">
        <ele>1478.6</ele>
        <time>2020-02-09T11:37:56Z</time>
      </trkpt>
      <trkpt lat="42.68909" lon="1.64746">
        <ele>1478.6</ele>
        <time>2020-02-09T11:38:03Z</time>
      </trkpt>
      <trkpt lat="42.68909" lon="1.64746">
        <ele>1478.6</ele>
        <time>2020-02-09T11:38:13Z</time>
      </trkpt>
      <trkpt lat="42.68909" lon="1.64746">
        <ele>1478.6</ele>
        <time>2020-02-09T11:38:23Z</time>
      </trkpt>
      <trkpt lat="42.68916" lon="1.64736">
        <ele>1480.4</ele>
        <time>2020-02-09T11:38:25Z</time>
      </trkpt>
      <trkpt lat="42.68916" lon="1.64736">
        <ele>1480.4</ele>
        <time>2020-02-09T11:38:33Z</time>
      </trkpt>
      <trkpt lat="42.68916" lon="1.64736">
        <ele>1480.4</ele>
        <time>2020-02-09T11:38:43Z</time>
      </trkpt>
      <trkpt lat="42.68916" lon="1.64736">
        <ele>1480.4</ele>
        <time>2020-02-09T11:38:53Z</time>
      </trkpt>
      <trkpt lat="42.68916" lon="1.64736">
        <ele>1480.4</ele>
        <time>2020-02-09T11:39:03Z</time>
      </trkpt>
      <trkpt lat="42.68916" lon="1.64736">
        <ele>1480.4</ele>
        <time>2020-02-09T11:39:13Z</time>
      </trkpt>
      <trkpt lat="42.68916" lon="1.64736">
        <ele>1480.4</ele>
        <time>2020-02-09T11:39:23Z</time>
      </trkpt>
      <trkpt lat="42.68916" lon="1.64736">
        <ele>1480.4</ele>
        <time>2020-02-09T11:39:33Z</time>
      </trkpt>
      <trkpt lat="42.68916" lon="1.64736">
        <ele>1480.4</ele>
        <time>2020-02-09T11:39:43Z</time>
      </trkpt>
      <trkpt lat="42.68916" lon="1.64736">
        <ele>1480.4</ele>
        <time>2020-02-09T11:39:53Z</time>
      </trkpt>
      <trkpt lat="42.68916" lon="1.64736">
        <ele>1480.4</ele>
        <time>2020-02-09T11:40:03Z</time>
      </trkpt>
      <trkpt lat="42.68916" lon="1.64736">
        <ele>1480.4</ele>
        <time>2020-02-09T11:40:13Z</time>
      </trkpt>
      <trkpt lat="42.68916" lon="1.64736">
        <ele>1480.4</ele>
        <time>2020-02-09T11:40:23Z</time>
      </trkpt>
      <trkpt lat="42.68916" lon="1.64736">
        <ele>1480.4</ele>
        <time>2020-02-09T11:40:33Z</time>
      </trkpt>
      <trkpt lat="42.68916" lon="1.64736">
        <ele>1480.4</ele>
        <time>2020-02-09T11:40:43Z</time>
      </trkpt>
      <trkpt lat="42.68916" lon="1.64736">
        <ele>1480.4</ele>
        <time>2020-02-09T11:40:53Z</time>
      </trkpt>
      <trkpt lat="42.68953" lon="1.64785">
        <ele>1463.8</ele>
        <time>2020-02-09T11:40:58Z</time>
      </trkpt>
      <trkpt lat="42.68953" lon="1.64785">
        <ele>1463.8</ele>
        <time>2020-02-09T11:41:03Z</time>
      </trkpt>
      <trkpt lat="42.68947" lon="1.64796">
        <ele>1460.5</ele>
        <time>2020-02-09T11:41:06Z</time>
      </trkpt>
      <trkpt lat="42.68947" lon="1.64796">
        <ele>1460.5</ele>
        <time>2020-02-09T11:41:13Z</time>
      </trkpt>
      <trkpt lat="42.68943" lon="1.64807">
        <ele>1459.2</ele>
        <time>2020-02-09T11:41:14Z</time>
      </trkpt>
      <trkpt lat="42.68943" lon="1.64807">
        <ele>1459.2</ele>
        <time>2020-02-09T11:41:23Z</time>
      </trkpt>
      <trkpt lat="42.68943" lon="1.64807">
        <ele>1459.2</ele>
        <time>2020-02-09T11:41:33Z</time>
      </trkpt>
      <trkpt lat="42.68938" lon="1.64819">
        <ele>1457.3</ele>
        <time>2020-02-09T11:41:34Z</time>
      </trkpt>
      <trkpt lat="42.68938" lon="1.64819">
        <ele>1457.3</ele>
        <time>2020-02-09T11:41:43Z</time>
      </trkpt>
      <trkpt lat="42.68938" lon="1.64831">
        <ele>1455.4</ele>
        <time>2020-02-09T11:41:44Z</time>
      </trkpt>
      <trkpt lat="42.68931" lon="1.64841">
        <ele>1455.3</ele>
        <time>2020-02-09T11:41:50Z</time>
      </trkpt>
      <trkpt lat="42.68931" lon="1.64841">
        <ele>1455.3</ele>
        <time>2020-02-09T11:41:53Z</time>
      </trkpt>
      <trkpt lat="42.68923" lon="1.64847">
        <ele>1455.1</ele>
        <time>2020-02-09T11:41:55Z</time>
      </trkpt>
      <trkpt lat="42.68923" lon="1.64847">
        <ele>1455.1</ele>
        <time>2020-02-09T11:42:03Z</time>
      </trkpt>
      <trkpt lat="42.68928" lon="1.64859">
        <ele>1454.1</ele>
        <time>2020-02-09T11:42:11Z</time>
      </trkpt>
      <trkpt lat="42.68928" lon="1.64859">
        <ele>1454.1</ele>
        <time>2020-02-09T11:42:13Z</time>
      </trkpt>
      <trkpt lat="42.68938" lon="1.64857">
        <ele>1453</ele>
        <time>2020-02-09T11:42:15Z</time>
      </trkpt>
      <trkpt lat="42.68938" lon="1.64857">
        <ele>1453</ele>
        <time>2020-02-09T11:42:23Z</time>
      </trkpt>
      <trkpt lat="42.68932" lon="1.64867">
        <ele>1453.1</ele>
        <time>2020-02-09T11:42:25Z</time>
      </trkpt>
      <trkpt lat="42.68932" lon="1.64867">
        <ele>1453.1</ele>
        <time>2020-02-09T11:42:33Z</time>
      </trkpt>
      <trkpt lat="42.68927" lon="1.64878">
        <ele>1453.4</ele>
        <time>2020-02-09T11:42:38Z</time>
      </trkpt>
      <trkpt lat="42.68927" lon="1.64878">
        <ele>1453.4</ele>
        <time>2020-02-09T11:42:43Z</time>
      </trkpt>
      <trkpt lat="42.68927" lon="1.64878">
        <ele>1453.4</ele>
        <time>2020-02-09T11:42:53Z</time>
      </trkpt>
      <trkpt lat="42.68927" lon="1.64878">
        <ele>1453.4</ele>
        <time>2020-02-09T11:43:03Z</time>
      </trkpt>
      <trkpt lat="42.68918" lon="1.64884">
        <ele>1454.3</ele>
        <time>2020-02-09T11:43:07Z</time>
      </trkpt>
      <trkpt lat="42.68918" lon="1.64884">
        <ele>1454.3</ele>
        <time>2020-02-09T11:43:13Z</time>
      </trkpt>
      <trkpt lat="42.68922" lon="1.64903">
        <ele>1454.8</ele>
        <time>2020-02-09T11:43:16Z</time>
      </trkpt>
      <trkpt lat="42.68922" lon="1.64903">
        <ele>1454.8</ele>
        <time>2020-02-09T11:43:23Z</time>
      </trkpt>
      <trkpt lat="42.68922" lon="1.64888">
        <ele>1453.9</ele>
        <time>2020-02-09T11:43:24Z</time>
      </trkpt>
      <trkpt lat="42.68922" lon="1.64885">
        <ele>1454.1</ele>
        <time>2020-02-09T11:43:33Z</time>
      </trkpt>
      <trkpt lat="42.68921" lon="1.64883">
        <ele>1454</ele>
        <time>2020-02-09T11:43:43Z</time>
      </trkpt>
      <trkpt lat="42.6892" lon="1.64881">
        <ele>1454</ele>
        <time>2020-02-09T11:43:53Z</time>
      </trkpt>
      <trkpt lat="42.68919" lon="1.64878">
        <ele>1454</ele>
        <time>2020-02-09T11:44:03Z</time>
      </trkpt>
      <trkpt lat="42.68919" lon="1.64876">
        <ele>1454</ele>
        <time>2020-02-09T11:44:13Z</time>
      </trkpt>
      <trkpt lat="42.68918" lon="1.64874">
        <ele>1454.4</ele>
        <time>2020-02-09T11:44:23Z</time>
      </trkpt>
      <trkpt lat="42.68917" lon="1.64872">
        <ele>1454.5</ele>
        <time>2020-02-09T11:44:33Z</time>
      </trkpt>
      <trkpt lat="42.68917" lon="1.64869">
        <ele>1454.5</ele>
        <time>2020-02-09T11:44:34Z</time>
      </trkpt>
      <trkpt lat="42.68916" lon="1.64867">
        <ele>1454.7</ele>
        <time>2020-02-09T11:44:42Z</time>
      </trkpt>
      <trkpt lat="42.68915" lon="1.64865">
        <ele>1455</ele>
        <time>2020-02-09T11:44:43Z</time>
      </trkpt>
      <trkpt lat="42.68915" lon="1.64865">
        <ele>1455</ele>
        <time>2020-02-09T11:44:53Z</time>
      </trkpt>
      <trkpt lat="42.68915" lon="1.64865">
        <ele>1455</ele>
        <time>2020-02-09T11:45:03Z</time>
      </trkpt>
      <trkpt lat="42.68925" lon="1.64859">
        <ele>1454.1</ele>
        <time>2020-02-09T11:45:09Z</time>
      </trkpt>
      <trkpt lat="42.68925" lon="1.64859">
        <ele>1454.1</ele>
        <time>2020-02-09T11:45:13Z</time>
      </trkpt>
      <trkpt lat="42.68934" lon="1.64852">
        <ele>1453.8</ele>
        <time>2020-02-09T11:45:23Z</time>
      </trkpt>
      <trkpt lat="42.68934" lon="1.64852">
        <ele>1453.8</ele>
        <time>2020-02-09T11:45:33Z</time>
      </trkpt>
      <trkpt lat="42.68945" lon="1.64854">
        <ele>1452.9</ele>
        <time>2020-02-09T11:45:35Z</time>
      </trkpt>
      <trkpt lat="42.68945" lon="1.64854">
        <ele>1452.9</ele>
        <time>2020-02-09T11:45:43Z</time>
      </trkpt>
      <trkpt lat="42.68941" lon="1.64866">
        <ele>1452.3</ele>
        <time>2020-02-09T11:45:47Z</time>
      </trkpt>
      <trkpt lat="42.68941" lon="1.64866">
        <ele>1452.3</ele>
        <time>2020-02-09T11:45:53Z</time>
      </trkpt>
      <trkpt lat="42.68951" lon="1.64865">
        <ele>1451.5</ele>
        <time>2020-02-09T11:45:59Z</time>
      </trkpt>
      <trkpt lat="42.68951" lon="1.64865">
        <ele>1451.5</ele>
        <time>2020-02-09T11:46:03Z</time>
      </trkpt>
      <trkpt lat="42.68956" lon="1.64864">
        <ele>1451.3</ele>
        <time>2020-02-09T11:46:05Z</time>
      </trkpt>
      <trkpt lat="42.68953" lon="1.64861">
        <ele>1451.8</ele>
        <time>2020-02-09T11:46:13Z</time>
      </trkpt>
      <trkpt lat="42.68949" lon="1.64859">
        <ele>1452.3</ele>
        <time>2020-02-09T11:46:23Z</time>
      </trkpt>
      <trkpt lat="42.68946" lon="1.64856">
        <ele>1452.5</ele>
        <time>2020-02-09T11:46:31Z</time>
      </trkpt>
      <trkpt lat="42.68942" lon="1.64853">
        <ele>1453.1</ele>
        <time>2020-02-09T11:46:33Z</time>
      </trkpt>
      <trkpt lat="42.68942" lon="1.64853">
        <ele>1453.1</ele>
        <time>2020-02-09T11:46:43Z</time>
      </trkpt>
      <trkpt lat="42.68939" lon="1.64841">
        <ele>1454.4</ele>
        <time>2020-02-09T11:46:44Z</time>
      </trkpt>
      <trkpt lat="42.68939" lon="1.64841">
        <ele>1454.4</ele>
        <time>2020-02-09T11:46:53Z</time>
      </trkpt>
      <trkpt lat="42.6895" lon="1.64842">
        <ele>1453.8</ele>
        <time>2020-02-09T11:46:59Z</time>
      </trkpt>
      <trkpt lat="42.68959" lon="1.64844">
        <ele>1452.9</ele>
        <time>2020-02-09T11:47:01Z</time>
      </trkpt>
      <trkpt lat="42.68959" lon="1.64844">
        <ele>1452.9</ele>
        <time>2020-02-09T11:47:03Z</time>
      </trkpt>
      <trkpt lat="42.68971" lon="1.64849">
        <ele>1452</ele>
        <time>2020-02-09T11:47:09Z</time>
      </trkpt>
      <trkpt lat="42.68971" lon="1.64849">
        <ele>1452</ele>
        <time>2020-02-09T11:47:13Z</time>
      </trkpt>
      <trkpt lat="42.68981" lon="1.64849">
        <ele>1451.8</ele>
        <time>2020-02-09T11:47:21Z</time>
      </trkpt>
      <trkpt lat="42.68981" lon="1.64849">
        <ele>1451.8</ele>
        <time>2020-02-09T11:47:23Z</time>
      </trkpt>
      <trkpt lat="42.68994" lon="1.6485">
        <ele>1451.9</ele>
        <time>2020-02-09T11:47:24Z</time>
      </trkpt>
      <trkpt lat="42.68998" lon="1.64853">
        <ele>1451.6</ele>
        <time>2020-02-09T11:47:33Z</time>
      </trkpt>
      <trkpt lat="42.69002" lon="1.64856">
        <ele>1451.4</ele>
        <time>2020-02-09T11:47:42Z</time>
      </trkpt>
      <trkpt lat="42.69006" lon="1.64859">
        <ele>1451.6</ele>
        <time>2020-02-09T11:47:43Z</time>
      </trkpt>
      <trkpt lat="42.69006" lon="1.64859">
        <ele>1451.6</ele>
        <time>2020-02-09T11:47:53Z</time>
      </trkpt>
      <trkpt lat="42.69008" lon="1.64871">
        <ele>1450.7</ele>
        <time>2020-02-09T11:47:56Z</time>
      </trkpt>
      <trkpt lat="42.69008" lon="1.64871">
        <ele>1450.7</ele>
        <time>2020-02-09T11:48:03Z</time>
      </trkpt>
      <trkpt lat="42.69013" lon="1.64883">
        <ele>1449.8</ele>
        <time>2020-02-09T11:48:07Z</time>
      </trkpt>
      <trkpt lat="42.69013" lon="1.64883">
        <ele>1449.8</ele>
        <time>2020-02-09T11:48:13Z</time>
      </trkpt>
      <trkpt lat="42.69022" lon="1.64884">
        <ele>1450.7</ele>
        <time>2020-02-09T11:48:20Z</time>
      </trkpt>
      <trkpt lat="42.69022" lon="1.64884">
        <ele>1450.7</ele>
        <time>2020-02-09T11:48:23Z</time>
      </trkpt>
      <trkpt lat="42.69028" lon="1.64893">
        <ele>1450.6</ele>
        <time>2020-02-09T11:48:30Z</time>
      </trkpt>
      <trkpt lat="42.69028" lon="1.64893">
        <ele>1450.6</ele>
        <time>2020-02-09T11:48:33Z</time>
      </trkpt>
      <trkpt lat="42.69028" lon="1.64893">
        <ele>1450.6</ele>
        <time>2020-02-09T11:48:43Z</time>
      </trkpt>
      <trkpt lat="42.69033" lon="1.64904">
        <ele>1450.6</ele>
        <time>2020-02-09T11:48:53Z</time>
      </trkpt>
      <trkpt lat="42.69033" lon="1.64904">
        <ele>1450.6</ele>
        <time>2020-02-09T11:49:03Z</time>
      </trkpt>
      <trkpt lat="42.69033" lon="1.64904">
        <ele>1450.6</ele>
        <time>2020-02-09T11:49:13Z</time>
      </trkpt>
      <trkpt lat="42.69043" lon="1.64902">
        <ele>1451.4</ele>
        <time>2020-02-09T11:49:18Z</time>
      </trkpt>
      <trkpt lat="42.69043" lon="1.64902">
        <ele>1451.4</ele>
        <time>2020-02-09T11:49:23Z</time>
      </trkpt>
      <trkpt lat="42.69043" lon="1.64902">
        <ele>1451.4</ele>
        <time>2020-02-09T11:49:33Z</time>
      </trkpt>
      <trkpt lat="42.69043" lon="1.64902">
        <ele>1451.4</ele>
        <time>2020-02-09T11:49:43Z</time>
      </trkpt>
      <trkpt lat="42.69043" lon="1.64902">
        <ele>1451.4</ele>
        <time>2020-02-09T11:49:53Z</time>
      </trkpt>
      <trkpt lat="42.69043" lon="1.64902">
        <ele>1451.4</ele>
        <time>2020-02-09T11:50:03Z</time>
      </trkpt>
      <trkpt lat="42.69052" lon="1.64904">
        <ele>1452.3</ele>
        <time>2020-02-09T11:50:12Z</time>
      </trkpt>
      <trkpt lat="42.69052" lon="1.64904">
        <ele>1452.3</ele>
        <time>2020-02-09T11:50:13Z</time>
      </trkpt>
      <trkpt lat="42.69052" lon="1.64904">
        <ele>1452.3</ele>
        <time>2020-02-09T11:50:23Z</time>
      </trkpt>
      <trkpt lat="42.6906" lon="1.64911">
        <ele>1451.9</ele>
        <time>2020-02-09T11:50:25Z</time>
      </trkpt>
      <trkpt lat="42.6906" lon="1.64911">
        <ele>1451.9</ele>
        <time>2020-02-09T11:50:33Z</time>
      </trkpt>
      <trkpt lat="42.6906" lon="1.64911">
        <ele>1451.9</ele>
        <time>2020-02-09T11:50:43Z</time>
      </trkpt>
      <trkpt lat="42.69057" lon="1.64899">
        <ele>1453</ele>
        <time>2020-02-09T11:50:48Z</time>
      </trkpt>
      <trkpt lat="42.69057" lon="1.64899">
        <ele>1453</ele>
        <time>2020-02-09T11:50:53Z</time>
      </trkpt>
      <trkpt lat="42.69057" lon="1.64899">
        <ele>1453</ele>
        <time>2020-02-09T11:51:03Z</time>
      </trkpt>
      <trkpt lat="42.69057" lon="1.64899">
        <ele>1453</ele>
        <time>2020-02-09T11:51:13Z</time>
      </trkpt>
      <trkpt lat="42.69057" lon="1.64899">
        <ele>1453</ele>
        <time>2020-02-09T11:51:23Z</time>
      </trkpt>
      <trkpt lat="42.69048" lon="1.6489">
        <ele>1452.7</ele>
        <time>2020-02-09T11:51:25Z</time>
      </trkpt>
      <trkpt lat="42.69048" lon="1.6489">
        <ele>1452.7</ele>
        <time>2020-02-09T11:51:33Z</time>
      </trkpt>
      <trkpt lat="42.69048" lon="1.6489">
        <ele>1452.7</ele>
        <time>2020-02-09T11:51:43Z</time>
      </trkpt>
      <trkpt lat="42.69048" lon="1.6489">
        <ele>1452.7</ele>
        <time>2020-02-09T11:51:53Z</time>
      </trkpt>
      <trkpt lat="42.69056" lon="1.64882">
        <ele>1454.2</ele>
        <time>2020-02-09T11:52:01Z</time>
      </trkpt>
      <trkpt lat="42.69056" lon="1.64882">
        <ele>1454.2</ele>
        <time>2020-02-09T11:52:03Z</time>
      </trkpt>
      <trkpt lat="42.69058" lon="1.64885">
        <ele>1454.3</ele>
        <time>2020-02-09T11:52:13Z</time>
      </trkpt>
      <trkpt lat="42.69061" lon="1.64888">
        <ele>1454.3</ele>
        <time>2020-02-09T11:52:16Z</time>
      </trkpt>
      <trkpt lat="42.69063" lon="1.64891">
        <ele>1454.3</ele>
        <time>2020-02-09T11:52:23Z</time>
      </trkpt>
      <trkpt lat="42.69066" lon="1.64894">
        <ele>1454.3</ele>
        <time>2020-02-09T11:52:33Z</time>
      </trkpt>
      <trkpt lat="42.69068" lon="1.64897">
        <ele>1454.6</ele>
        <time>2020-02-09T11:52:34Z</time>
      </trkpt>
      <trkpt lat="42.6907" lon="1.649">
        <ele>1454.4</ele>
        <time>2020-02-09T11:52:41Z</time>
      </trkpt>
      <trkpt lat="42.69073" lon="1.64903">
        <ele>1453.9</ele>
        <time>2020-02-09T11:52:43Z</time>
      </trkpt>
      <trkpt lat="42.69073" lon="1.64903">
        <ele>1453.9</ele>
        <time>2020-02-09T11:52:53Z</time>
      </trkpt>
      <trkpt lat="42.69064" lon="1.64903">
        <ele>1453.2</ele>
        <time>2020-02-09T11:53:00Z</time>
      </trkpt>
      <trkpt lat="42.69064" lon="1.64903">
        <ele>1453.2</ele>
        <time>2020-02-09T11:53:03Z</time>
      </trkpt>
      <trkpt lat="42.69064" lon="1.64903">
        <ele>1453.2</ele>
        <time>2020-02-09T11:53:13Z</time>
      </trkpt>
      <trkpt lat="42.69064" lon="1.64903">
        <ele>1453.2</ele>
        <time>2020-02-09T11:53:23Z</time>
      </trkpt>
      <trkpt lat="42.69073" lon="1.64904">
        <ele>1453.9</ele>
        <time>2020-02-09T11:53:30Z</time>
      </trkpt>
      <trkpt lat="42.69073" lon="1.64904">
        <ele>1453.9</ele>
        <time>2020-02-09T11:53:33Z</time>
      </trkpt>
      <trkpt lat="42.69084" lon="1.649">
        <ele>1455.2</ele>
        <time>2020-02-09T11:53:34Z</time>
      </trkpt>
      <trkpt lat="42.69093" lon="1.64896">
        <ele>1456.2</ele>
        <time>2020-02-09T11:53:36Z</time>
      </trkpt>
      <trkpt lat="42.69093" lon="1.64896">
        <ele>1456.2</ele>
        <time>2020-02-09T11:53:43Z</time>
      </trkpt>
      <trkpt lat="42.69084" lon="1.64892">
        <ele>1456</ele>
        <time>2020-02-09T11:53:50Z</time>
      </trkpt>
      <trkpt lat="42.69084" lon="1.64892">
        <ele>1456</ele>
        <time>2020-02-09T11:53:53Z</time>
      </trkpt>
      <trkpt lat="42.69079" lon="1.64906">
        <ele>1454.3</ele>
        <time>2020-02-09T11:54:02Z</time>
      </trkpt>
      <trkpt lat="42.6908" lon="1.64905">
        <ele>1454.3</ele>
        <time>2020-02-09T11:54:03Z</time>
      </trkpt>
      <trkpt lat="42.6908" lon="1.64903">
        <ele>1454.5</ele>
        <time>2020-02-09T11:54:13Z</time>
      </trkpt>
      <trkpt lat="42.69081" lon="1.64901">
        <ele>1455</ele>
        <time>2020-02-09T11:54:23Z</time>
      </trkpt>
      <trkpt lat="42.69081" lon="1.64899">
        <ele>1455</ele>
        <time>2020-02-09T11:54:33Z</time>
      </trkpt>
      <trkpt lat="42.69082" lon="1.64897">
        <ele>1455.4</ele>
        <time>2020-02-09T11:54:43Z</time>
      </trkpt>
      <trkpt lat="42.69083" lon="1.64895">
        <ele>1455.4</ele>
        <time>2020-02-09T11:54:52Z</time>
      </trkpt>
      <trkpt lat="42.69083" lon="1.64893">
        <ele>1456</ele>
        <time>2020-02-09T11:54:53Z</time>
      </trkpt>
      <trkpt lat="42.69084" lon="1.64891">
        <ele>1456</ele>
        <time>2020-02-09T11:55:01Z</time>
      </trkpt>
      <trkpt lat="42.69085" lon="1.6489">
        <ele>1456</ele>
        <time>2020-02-09T11:55:03Z</time>
      </trkpt>
      <trkpt lat="42.69085" lon="1.6489">
        <ele>1456</ele>
        <time>2020-02-09T11:55:13Z</time>
      </trkpt>
      <trkpt lat="42.69096" lon="1.64887">
        <ele>1457.3</ele>
        <time>2020-02-09T11:55:15Z</time>
      </trkpt>
      <trkpt lat="42.69096" lon="1.64887">
        <ele>1457.3</ele>
        <time>2020-02-09T11:55:23Z</time>
      </trkpt>
      <trkpt lat="42.69096" lon="1.64887">
        <ele>1457.3</ele>
        <time>2020-02-09T11:55:33Z</time>
      </trkpt>
      <trkpt lat="42.69102" lon="1.64898">
        <ele>1456.5</ele>
        <time>2020-02-09T11:55:42Z</time>
      </trkpt>
      <trkpt lat="42.69102" lon="1.64898">
        <ele>1456.5</ele>
        <time>2020-02-09T11:55:43Z</time>
      </trkpt>
      <trkpt lat="42.69102" lon="1.64898">
        <ele>1456.5</ele>
        <time>2020-02-09T11:55:53Z</time>
      </trkpt>
      <trkpt lat="42.69102" lon="1.64898">
        <ele>1456.5</ele>
        <time>2020-02-09T11:56:03Z</time>
      </trkpt>
      <trkpt lat="42.69102" lon="1.64898">
        <ele>1456.5</ele>
        <time>2020-02-09T11:56:13Z</time>
      </trkpt>
      <trkpt lat="42.69107" lon="1.64909">
        <ele>1456</ele>
        <time>2020-02-09T11:56:17Z</time>
      </trkpt>
      <trkpt lat="42.69107" lon="1.64909">
        <ele>1456</ele>
        <time>2020-02-09T11:56:23Z</time>
      </trkpt>
      <trkpt lat="42.69097" lon="1.6491">
        <ele>1454.9</ele>
        <time>2020-02-09T11:56:28Z</time>
      </trkpt>
      <trkpt lat="42.69097" lon="1.6491">
        <ele>1454.9</ele>
        <time>2020-02-09T11:56:33Z</time>
      </trkpt>
      <trkpt lat="42.69087" lon="1.64911">
        <ele>1453.5</ele>
        <time>2020-02-09T11:56:36Z</time>
      </trkpt>
      <trkpt lat="42.69087" lon="1.64911">
        <ele>1453.5</ele>
        <time>2020-02-09T11:56:43Z</time>
      </trkpt>
      <trkpt lat="42.69092" lon="1.64921">
        <ele>1452.6</ele>
        <time>2020-02-09T11:56:49Z</time>
      </trkpt>
      <trkpt lat="42.69092" lon="1.64921">
        <ele>1452.6</ele>
        <time>2020-02-09T11:56:53Z</time>
      </trkpt>
      <trkpt lat="42.69084" lon="1.64939">
        <ele>1451.9</ele>
        <time>2020-02-09T11:57:02Z</time>
      </trkpt>
      <trkpt lat="42.69082" lon="1.64942">
        <ele>1452.3</ele>
        <time>2020-02-09T11:57:03Z</time>
      </trkpt>
      <trkpt lat="42.6908" lon="1.64946">
        <ele>1452.9</ele>
        <time>2020-02-09T11:57:13Z</time>
      </trkpt>
      <trkpt lat="42.69078" lon="1.64949">
        <ele>1452.9</ele>
        <time>2020-02-09T11:57:15Z</time>
      </trkpt>
      <trkpt lat="42.69076" lon="1.64952">
        <ele>1453.7</ele>
        <time>2020-02-09T11:57:23Z</time>
      </trkpt>
      <trkpt lat="42.69074" lon="1.64955">
        <ele>1454.5</ele>
        <time>2020-02-09T11:57:33Z</time>
      </trkpt>
      <trkpt lat="42.69072" lon="1.64959">
        <ele>1455.2</ele>
        <time>2020-02-09T11:57:42Z</time>
      </trkpt>
      <trkpt lat="42.6907" lon="1.64962">
        <ele>1455.3</ele>
        <time>2020-02-09T11:57:43Z</time>
      </trkpt>
      <trkpt lat="42.69068" lon="1.64965">
        <ele>1455.8</ele>
        <time>2020-02-09T11:57:53Z</time>
      </trkpt>
      <trkpt lat="42.69065" lon="1.64969">
        <ele>1456.4</ele>
        <time>2020-02-09T11:57:57Z</time>
      </trkpt>
      <trkpt lat="42.69063" lon="1.64972">
        <ele>1456.9</ele>
        <time>2020-02-09T11:58:03Z</time>
      </trkpt>
      <trkpt lat="42.69061" lon="1.64975">
        <ele>1456.9</ele>
        <time>2020-02-09T11:58:05Z</time>
      </trkpt>
      <trkpt lat="42.69059" lon="1.64978">
        <ele>1457.5</ele>
        <time>2020-02-09T11:58:13Z</time>
      </trkpt>
      <trkpt lat="42.69057" lon="1.64982">
        <ele>1458.2</ele>
        <time>2020-02-09T11:58:23Z</time>
      </trkpt>
      <trkpt lat="42.69055" lon="1.64985">
        <ele>1458.8</ele>
        <time>2020-02-09T11:58:27Z</time>
      </trkpt>
      <trkpt lat="42.69053" lon="1.64988">
        <ele>1459.8</ele>
        <time>2020-02-09T11:58:31Z</time>
      </trkpt>
      <trkpt lat="42.69051" lon="1.64992">
        <ele>1460.2</ele>
        <time>2020-02-09T11:58:33Z</time>
      </trkpt>
      <trkpt lat="42.6906" lon="1.64979">
        <ele>1457.5</ele>
        <time>2020-02-09T11:58:43Z</time>
      </trkpt>
      <trkpt lat="42.69061" lon="1.64975">
        <ele>1456.9</ele>
        <time>2020-02-09T11:58:51Z</time>
      </trkpt>
      <trkpt lat="42.69062" lon="1.64971">
        <ele>1456.9</ele>
        <time>2020-02-09T11:58:53Z</time>
      </trkpt>
      <trkpt lat="42.69062" lon="1.64971">
        <ele>1456.9</ele>
        <time>2020-02-09T11:59:03Z</time>
      </trkpt>
      <trkpt lat="42.69052" lon="1.64977">
        <ele>1457.8</ele>
        <time>2020-02-09T11:59:10Z</time>
      </trkpt>
      <trkpt lat="42.69052" lon="1.64977">
        <ele>1457.8</ele>
        <time>2020-02-09T11:59:13Z</time>
      </trkpt>
      <trkpt lat="42.69061" lon="1.64978">
        <ele>1457.4</ele>
        <time>2020-02-09T11:59:22Z</time>
      </trkpt>
      <trkpt lat="42.69061" lon="1.64978">
        <ele>1457.4</ele>
        <time>2020-02-09T11:59:23Z</time>
      </trkpt>
      <trkpt lat="42.69061" lon="1.64978">
        <ele>1457.4</ele>
        <time>2020-02-09T11:59:33Z</time>
      </trkpt>
      <trkpt lat="42.69061" lon="1.64978">
        <ele>1457.4</ele>
        <time>2020-02-09T11:59:43Z</time>
      </trkpt>
      <trkpt lat="42.69061" lon="1.64978">
        <ele>1457.4</ele>
        <time>2020-02-09T11:59:53Z</time>
      </trkpt>
      <trkpt lat="42.69058" lon="1.64966">
        <ele>1456</ele>
        <time>2020-02-09T11:59:58Z</time>
      </trkpt>
      <trkpt lat="42.69058" lon="1.64966">
        <ele>1456</ele>
        <time>2020-02-09T12:00:03Z</time>
      </trkpt>
      <trkpt lat="42.69058" lon="1.64966">
        <ele>1456</ele>
        <time>2020-02-09T12:00:13Z</time>
      </trkpt>
      <trkpt lat="42.69065" lon="1.64962">
        <ele>1455.3</ele>
        <time>2020-02-09T13:20:33Z</time>
      </trkpt>
      <trkpt lat="42.69074" lon="1.64954">
        <ele>1454.5</ele>
        <time>2020-02-09T13:20:36Z</time>
      </trkpt>
      <trkpt lat="42.69074" lon="1.64954">
        <ele>1454.5</ele>
        <time>2020-02-09T13:20:40Z</time>
      </trkpt>
      <trkpt lat="42.6908" lon="1.64965">
        <ele>1455.4</ele>
        <time>2020-02-09T13:20:42Z</time>
      </trkpt>
      <trkpt lat="42.6908" lon="1.64965">
        <ele>1455.4</ele>
        <time>2020-02-09T13:20:50Z</time>
      </trkpt>
      <trkpt lat="42.69085" lon="1.64976">
        <ele>1456.7</ele>
        <time>2020-02-09T13:20:55Z</time>
      </trkpt>
      <trkpt lat="42.69085" lon="1.64976">
        <ele>1456.7</ele>
        <time>2020-02-09T13:21:00Z</time>
      </trkpt>
      <trkpt lat="42.69097" lon="1.6498">
        <ele>1456.8</ele>
        <time>2020-02-09T13:21:10Z</time>
      </trkpt>
      <trkpt lat="42.691" lon="1.64982">
        <ele>1456.8</ele>
        <time>2020-02-09T13:21:19Z</time>
      </trkpt>
      <trkpt lat="42.69102" lon="1.64985">
        <ele>1457.4</ele>
        <time>2020-02-09T13:21:20Z</time>
      </trkpt>
      <trkpt lat="42.69104" lon="1.64989">
        <ele>1457.9</ele>
        <time>2020-02-09T13:21:30Z</time>
      </trkpt>
      <trkpt lat="42.69106" lon="1.64993">
        <ele>1458.4</ele>
        <time>2020-02-09T13:21:31Z</time>
      </trkpt>
      <trkpt lat="42.69108" lon="1.64997">
        <ele>1458.4</ele>
        <time>2020-02-09T13:21:40Z</time>
      </trkpt>
      <trkpt lat="42.6911" lon="1.65001">
        <ele>1458.8</ele>
        <time>2020-02-09T13:21:49Z</time>
      </trkpt>
      <trkpt lat="42.69112" lon="1.65005">
        <ele>1459.1</ele>
        <time>2020-02-09T13:21:50Z</time>
      </trkpt>
      <trkpt lat="42.69114" lon="1.65009">
        <ele>1459.4</ele>
        <time>2020-02-09T13:21:59Z</time>
      </trkpt>
      <trkpt lat="42.69116" lon="1.65013">
        <ele>1459.6</ele>
        <time>2020-02-09T13:22:00Z</time>
      </trkpt>
      <trkpt lat="42.69116" lon="1.65013">
        <ele>1459.6</ele>
        <time>2020-02-09T13:22:10Z</time>
      </trkpt>
      <trkpt lat="42.69123" lon="1.65021">
        <ele>1458.8</ele>
        <time>2020-02-09T13:22:15Z</time>
      </trkpt>
      <trkpt lat="42.69123" lon="1.65021">
        <ele>1458.8</ele>
        <time>2020-02-09T13:22:20Z</time>
      </trkpt>
      <trkpt lat="42.69132" lon="1.65024">
        <ele>1457.7</ele>
        <time>2020-02-09T13:22:28Z</time>
      </trkpt>
      <trkpt lat="42.69132" lon="1.65024">
        <ele>1457.7</ele>
        <time>2020-02-09T13:22:30Z</time>
      </trkpt>
      <trkpt lat="42.69141" lon="1.6503">
        <ele>1456.2</ele>
        <time>2020-02-09T13:22:36Z</time>
      </trkpt>
      <trkpt lat="42.69141" lon="1.6503">
        <ele>1456.2</ele>
        <time>2020-02-09T13:22:40Z</time>
      </trkpt>
      <trkpt lat="42.6915" lon="1.65035">
        <ele>1454.5</ele>
        <time>2020-02-09T13:22:44Z</time>
      </trkpt>
      <trkpt lat="42.6915" lon="1.65035">
        <ele>1454.5</ele>
        <time>2020-02-09T13:22:50Z</time>
      </trkpt>
      <trkpt lat="42.69158" lon="1.6504">
        <ele>1452.8</ele>
        <time>2020-02-09T13:22:52Z</time>
      </trkpt>
      <trkpt lat="42.69158" lon="1.6504">
        <ele>1452.8</ele>
        <time>2020-02-09T13:23:00Z</time>
      </trkpt>
      <trkpt lat="42.69165" lon="1.65049">
        <ele>1451</ele>
        <time>2020-02-09T13:23:01Z</time>
      </trkpt>
      <trkpt lat="42.69165" lon="1.65049">
        <ele>1451</ele>
        <time>2020-02-09T13:23:10Z</time>
      </trkpt>
      <trkpt lat="42.69171" lon="1.6506">
        <ele>1449.4</ele>
        <time>2020-02-09T13:23:16Z</time>
      </trkpt>
      <trkpt lat="42.69171" lon="1.6506">
        <ele>1449.4</ele>
        <time>2020-02-09T13:23:20Z</time>
      </trkpt>
      <trkpt lat="42.69182" lon="1.6507">
        <ele>1447.6</ele>
        <time>2020-02-09T13:23:30Z</time>
      </trkpt>
      <trkpt lat="42.69186" lon="1.65072">
        <ele>1447.2</ele>
        <time>2020-02-09T13:23:40Z</time>
      </trkpt>
      <trkpt lat="42.6919" lon="1.65074">
        <ele>1446.8</ele>
        <time>2020-02-09T13:23:42Z</time>
      </trkpt>
      <trkpt lat="42.69193" lon="1.65076">
        <ele>1446.4</ele>
        <time>2020-02-09T13:23:49Z</time>
      </trkpt>
      <trkpt lat="42.69197" lon="1.65078">
        <ele>1446</ele>
        <time>2020-02-09T13:23:50Z</time>
      </trkpt>
      <trkpt lat="42.69197" lon="1.65078">
        <ele>1446</ele>
        <time>2020-02-09T13:24:00Z</time>
      </trkpt>
      <trkpt lat="42.69203" lon="1.65088">
        <ele>1444.9</ele>
        <time>2020-02-09T13:24:03Z</time>
      </trkpt>
      <trkpt lat="42.69203" lon="1.65088">
        <ele>1444.9</ele>
        <time>2020-02-09T13:24:10Z</time>
      </trkpt>
      <trkpt lat="42.69212" lon="1.65092">
        <ele>1443.8</ele>
        <time>2020-02-09T13:24:16Z</time>
      </trkpt>
      <trkpt lat="42.69212" lon="1.65092">
        <ele>1443.8</ele>
        <time>2020-02-09T13:24:20Z</time>
      </trkpt>
      <trkpt lat="42.69221" lon="1.65092">
        <ele>1442.6</ele>
        <time>2020-02-09T13:24:29Z</time>
      </trkpt>
      <trkpt lat="42.69221" lon="1.65092">
        <ele>1442.6</ele>
        <time>2020-02-09T13:24:30Z</time>
      </trkpt>
      <trkpt lat="42.69221" lon="1.65092">
        <ele>1442.6</ele>
        <time>2020-02-09T13:24:40Z</time>
      </trkpt>
      <trkpt lat="42.69228" lon="1.65101">
        <ele>1441.6</ele>
        <time>2020-02-09T13:24:43Z</time>
      </trkpt>
      <trkpt lat="42.69228" lon="1.65101">
        <ele>1441.6</ele>
        <time>2020-02-09T13:24:50Z</time>
      </trkpt>
      <trkpt lat="42.69232" lon="1.65112">
        <ele>1440.5</ele>
        <time>2020-02-09T13:24:56Z</time>
      </trkpt>
      <trkpt lat="42.69232" lon="1.65112">
        <ele>1440.5</ele>
        <time>2020-02-09T13:25:00Z</time>
      </trkpt>
      <trkpt lat="42.69242" lon="1.65118">
        <ele>1439.1</ele>
        <time>2020-02-09T13:25:05Z</time>
      </trkpt>
      <trkpt lat="42.69242" lon="1.65118">
        <ele>1439.1</ele>
        <time>2020-02-09T13:25:10Z</time>
      </trkpt>
      <trkpt lat="42.69249" lon="1.65127">
        <ele>1438</ele>
        <time>2020-02-09T13:25:14Z</time>
      </trkpt>
      <trkpt lat="42.69249" lon="1.65127">
        <ele>1438</ele>
        <time>2020-02-09T13:25:20Z</time>
      </trkpt>
      <trkpt lat="42.69256" lon="1.65133">
        <ele>1437</ele>
        <time>2020-02-09T13:25:25Z</time>
      </trkpt>
      <trkpt lat="42.69256" lon="1.65133">
        <ele>1437</ele>
        <time>2020-02-09T13:25:30Z</time>
      </trkpt>
      <trkpt lat="42.69266" lon="1.65136">
        <ele>1435.8</ele>
        <time>2020-02-09T13:25:40Z</time>
      </trkpt>
      <trkpt lat="42.69266" lon="1.65136">
        <ele>1435.8</ele>
        <time>2020-02-09T13:25:50Z</time>
      </trkpt>
      <trkpt lat="42.69274" lon="1.65143">
        <ele>1434.3</ele>
        <time>2020-02-09T13:25:55Z</time>
      </trkpt>
      <trkpt lat="42.69274" lon="1.65143">
        <ele>1434.3</ele>
        <time>2020-02-09T13:26:00Z</time>
      </trkpt>
      <trkpt lat="42.69283" lon="1.65148">
        <ele>1432.7</ele>
        <time>2020-02-09T13:26:09Z</time>
      </trkpt>
      <trkpt lat="42.69283" lon="1.65148">
        <ele>1432.7</ele>
        <time>2020-02-09T13:26:10Z</time>
      </trkpt>
      <trkpt lat="42.69283" lon="1.65148">
        <ele>1432.7</ele>
        <time>2020-02-09T13:26:20Z</time>
      </trkpt>
      <trkpt lat="42.69283" lon="1.65148">
        <ele>1432.7</ele>
        <time>2020-02-09T13:26:30Z</time>
      </trkpt>
      <trkpt lat="42.69283" lon="1.65148">
        <ele>1432.7</ele>
        <time>2020-02-09T13:26:40Z</time>
      </trkpt>
      <trkpt lat="42.6929" lon="1.65158">
        <ele>1430.8</ele>
        <time>2020-02-09T13:26:43Z</time>
      </trkpt>
      <trkpt lat="42.6929" lon="1.65158">
        <ele>1430.8</ele>
        <time>2020-02-09T13:26:50Z</time>
      </trkpt>
      <trkpt lat="42.69298" lon="1.65164">
        <ele>1429.4</ele>
        <time>2020-02-09T13:26:56Z</time>
      </trkpt>
      <trkpt lat="42.69298" lon="1.65164">
        <ele>1429.4</ele>
        <time>2020-02-09T13:27:00Z</time>
      </trkpt>
      <trkpt lat="42.69298" lon="1.65164">
        <ele>1429.4</ele>
        <time>2020-02-09T13:27:10Z</time>
      </trkpt>
      <trkpt lat="42.69298" lon="1.65164">
        <ele>1429.4</ele>
        <time>2020-02-09T13:27:20Z</time>
      </trkpt>
      <trkpt lat="42.69306" lon="1.65172">
        <ele>1428.1</ele>
        <time>2020-02-09T13:27:28Z</time>
      </trkpt>
      <trkpt lat="42.69306" lon="1.65172">
        <ele>1428.1</ele>
        <time>2020-02-09T13:27:30Z</time>
      </trkpt>
      <trkpt lat="42.69306" lon="1.65172">
        <ele>1428.1</ele>
        <time>2020-02-09T13:27:40Z</time>
      </trkpt>
      <trkpt lat="42.69306" lon="1.65172">
        <ele>1428.1</ele>
        <time>2020-02-09T13:27:50Z</time>
      </trkpt>
      <trkpt lat="42.69314" lon="1.65178">
        <ele>1426.6</ele>
        <time>2020-02-09T13:27:54Z</time>
      </trkpt>
      <trkpt lat="42.69314" lon="1.65178">
        <ele>1426.6</ele>
        <time>2020-02-09T13:28:00Z</time>
      </trkpt>
      <trkpt lat="42.69323" lon="1.65184">
        <ele>1425.2</ele>
        <time>2020-02-09T13:28:08Z</time>
      </trkpt>
      <trkpt lat="42.69323" lon="1.65184">
        <ele>1425.2</ele>
        <time>2020-02-09T13:28:10Z</time>
      </trkpt>
      <trkpt lat="42.69323" lon="1.65184">
        <ele>1425.2</ele>
        <time>2020-02-09T13:28:20Z</time>
      </trkpt>
      <trkpt lat="42.69323" lon="1.65184">
        <ele>1425.2</ele>
        <time>2020-02-09T13:28:30Z</time>
      </trkpt>
      <trkpt lat="42.69332" lon="1.65188">
        <ele>1423.3</ele>
        <time>2020-02-09T13:28:31Z</time>
      </trkpt>
      <trkpt lat="42.69332" lon="1.65188">
        <ele>1423.3</ele>
        <time>2020-02-09T13:28:40Z</time>
      </trkpt>
      <trkpt lat="42.69342" lon="1.65189">
        <ele>1421.1</ele>
        <time>2020-02-09T13:28:47Z</time>
      </trkpt>
      <trkpt lat="42.69342" lon="1.65189">
        <ele>1421.1</ele>
        <time>2020-02-09T13:28:50Z</time>
      </trkpt>
      <trkpt lat="42.69342" lon="1.65189">
        <ele>1421.1</ele>
        <time>2020-02-09T13:29:00Z</time>
      </trkpt>
      <trkpt lat="42.69351" lon="1.65191">
        <ele>1418.7</ele>
        <time>2020-02-09T13:29:02Z</time>
      </trkpt>
      <trkpt lat="42.69351" lon="1.65191">
        <ele>1418.7</ele>
        <time>2020-02-09T13:29:10Z</time>
      </trkpt>
      <trkpt lat="42.69351" lon="1.65191">
        <ele>1418.7</ele>
        <time>2020-02-09T13:29:20Z</time>
      </trkpt>
      <trkpt lat="42.69351" lon="1.65191">
        <ele>1418.7</ele>
        <time>2020-02-09T13:29:30Z</time>
      </trkpt>
      <trkpt lat="42.6936" lon="1.65187">
        <ele>1416.1</ele>
        <time>2020-02-09T13:29:32Z</time>
      </trkpt>
      <trkpt lat="42.6936" lon="1.65187">
        <ele>1416.1</ele>
        <time>2020-02-09T13:29:40Z</time>
      </trkpt>
      <trkpt lat="42.6936" lon="1.65187">
        <ele>1416.1</ele>
        <time>2020-02-09T13:29:50Z</time>
      </trkpt>
      <trkpt lat="42.69365" lon="1.65198">
        <ele>1413.5</ele>
        <time>2020-02-09T13:29:59Z</time>
      </trkpt>
      <trkpt lat="42.69365" lon="1.65198">
        <ele>1413.5</ele>
        <time>2020-02-09T13:30:00Z</time>
      </trkpt>
      <trkpt lat="42.69365" lon="1.65198">
        <ele>1413.5</ele>
        <time>2020-02-09T13:30:10Z</time>
      </trkpt>
      <trkpt lat="42.69373" lon="1.65204">
        <ele>1411</ele>
        <time>2020-02-09T13:30:16Z</time>
      </trkpt>
      <trkpt lat="42.69373" lon="1.65204">
        <ele>1411</ele>
        <time>2020-02-09T13:30:20Z</time>
      </trkpt>
      <trkpt lat="42.69373" lon="1.65204">
        <ele>1411</ele>
        <time>2020-02-09T13:30:30Z</time>
      </trkpt>
      <trkpt lat="42.69382" lon="1.65203">
        <ele>1408.7</ele>
        <time>2020-02-09T13:30:34Z</time>
      </trkpt>
      <trkpt lat="42.69382" lon="1.65203">
        <ele>1408.7</ele>
        <time>2020-02-09T13:30:40Z</time>
      </trkpt>
      <trkpt lat="42.69382" lon="1.65203">
        <ele>1408.7</ele>
        <time>2020-02-09T13:30:50Z</time>
      </trkpt>
      <trkpt lat="42.69382" lon="1.65203">
        <ele>1408.7</ele>
        <time>2020-02-09T13:31:00Z</time>
      </trkpt>
      <trkpt lat="42.69389" lon="1.6521">
        <ele>1406.7</ele>
        <time>2020-02-09T13:31:04Z</time>
      </trkpt>
      <trkpt lat="42.69389" lon="1.6521">
        <ele>1406.7</ele>
        <time>2020-02-09T13:31:10Z</time>
      </trkpt>
      <trkpt lat="42.69399" lon="1.65215">
        <ele>1404.7</ele>
        <time>2020-02-09T13:31:18Z</time>
      </trkpt>
      <trkpt lat="42.69399" lon="1.65215">
        <ele>1404.7</ele>
        <time>2020-02-09T13:31:20Z</time>
      </trkpt>
      <trkpt lat="42.69399" lon="1.65215">
        <ele>1404.7</ele>
        <time>2020-02-09T13:31:30Z</time>
      </trkpt>
      <trkpt lat="42.69406" lon="1.65224">
        <ele>1403.3</ele>
        <time>2020-02-09T13:31:32Z</time>
      </trkpt>
      <trkpt lat="42.69406" lon="1.65224">
        <ele>1403.3</ele>
        <time>2020-02-09T13:31:40Z</time>
      </trkpt>
      <trkpt lat="42.69406" lon="1.65224">
        <ele>1403.3</ele>
        <time>2020-02-09T13:31:50Z</time>
      </trkpt>
      <trkpt lat="42.69414" lon="1.6523">
        <ele>1402.7</ele>
        <time>2020-02-09T13:32:00Z</time>
      </trkpt>
      <trkpt lat="42.69415" lon="1.65243">
        <ele>1402.5</ele>
        <time>2020-02-09T13:32:04Z</time>
      </trkpt>
      <trkpt lat="42.69415" lon="1.65243">
        <ele>1402.5</ele>
        <time>2020-02-09T13:32:10Z</time>
      </trkpt>
      <trkpt lat="42.69415" lon="1.65243">
        <ele>1402.5</ele>
        <time>2020-02-09T13:32:20Z</time>
      </trkpt>
      <trkpt lat="42.69424" lon="1.65247">
        <ele>1402.4</ele>
        <time>2020-02-09T13:32:24Z</time>
      </trkpt>
      <trkpt lat="42.69424" lon="1.65247">
        <ele>1402.4</ele>
        <time>2020-02-09T13:32:30Z</time>
      </trkpt>
      <trkpt lat="42.69432" lon="1.65237">
        <ele>1402.1</ele>
        <time>2020-02-09T13:32:32Z</time>
      </trkpt>
      <trkpt lat="42.69432" lon="1.65237">
        <ele>1402.1</ele>
        <time>2020-02-09T13:32:40Z</time>
      </trkpt>
      <trkpt lat="42.69441" lon="1.65233">
        <ele>1401.7</ele>
        <time>2020-02-09T13:32:49Z</time>
      </trkpt>
      <trkpt lat="42.69441" lon="1.65233">
        <ele>1401.7</ele>
        <time>2020-02-09T13:32:50Z</time>
      </trkpt>
      <trkpt lat="42.69443" lon="1.65246">
        <ele>1401.1</ele>
        <time>2020-02-09T13:32:55Z</time>
      </trkpt>
      <trkpt lat="42.69443" lon="1.65246">
        <ele>1401.1</ele>
        <time>2020-02-09T13:33:00Z</time>
      </trkpt>
      <trkpt lat="42.6945" lon="1.65253">
        <ele>1400.2</ele>
        <time>2020-02-09T13:33:04Z</time>
      </trkpt>
      <trkpt lat="42.69458" lon="1.65261">
        <ele>1399.1</ele>
        <time>2020-02-09T13:33:07Z</time>
      </trkpt>
      <trkpt lat="42.69458" lon="1.65261">
        <ele>1399.1</ele>
        <time>2020-02-09T13:33:10Z</time>
      </trkpt>
      <trkpt lat="42.69458" lon="1.65261">
        <ele>1399.1</ele>
        <time>2020-02-09T13:33:20Z</time>
      </trkpt>
      <trkpt lat="42.69458" lon="1.65261">
        <ele>1399.1</ele>
        <time>2020-02-09T13:33:30Z</time>
      </trkpt>
      <trkpt lat="42.69466" lon="1.65265">
        <ele>1397.9</ele>
        <time>2020-02-09T13:33:36Z</time>
      </trkpt>
      <trkpt lat="42.69466" lon="1.65265">
        <ele>1397.9</ele>
        <time>2020-02-09T13:33:40Z</time>
      </trkpt>
      <trkpt lat="42.69466" lon="1.65265">
        <ele>1397.9</ele>
        <time>2020-02-09T13:33:50Z</time>
      </trkpt>
      <trkpt lat="42.69475" lon="1.65271">
        <ele>1396.5</ele>
        <time>2020-02-09T13:34:00Z</time>
      </trkpt>
      <trkpt lat="42.69475" lon="1.65271">
        <ele>1396.5</ele>
        <time>2020-02-09T13:34:10Z</time>
      </trkpt>
      <trkpt lat="42.69475" lon="1.65271">
        <ele>1396.5</ele>
        <time>2020-02-09T13:34:20Z</time>
      </trkpt>
      <trkpt lat="42.69482" lon="1.65279">
        <ele>1395.3</ele>
        <time>2020-02-09T13:34:25Z</time>
      </trkpt>
      <trkpt lat="42.69482" lon="1.65279">
        <ele>1395.3</ele>
        <time>2020-02-09T13:34:30Z</time>
      </trkpt>
      <trkpt lat="42.69488" lon="1.65291">
        <ele>1393.9</ele>
        <time>2020-02-09T13:34:36Z</time>
      </trkpt>
      <trkpt lat="42.69488" lon="1.65291">
        <ele>1393.9</ele>
        <time>2020-02-09T13:34:40Z</time>
      </trkpt>
      <trkpt lat="42.69497" lon="1.65304">
        <ele>1392.6</ele>
        <time>2020-02-09T13:34:50Z</time>
      </trkpt>
      <trkpt lat="42.69502" lon="1.65307">
        <ele>1392.2</ele>
        <time>2020-02-09T13:35:00Z</time>
      </trkpt>
      <trkpt lat="42.69506" lon="1.6531">
        <ele>1391.8</ele>
        <time>2020-02-09T13:35:10Z</time>
      </trkpt>
      <trkpt lat="42.6951" lon="1.65312">
        <ele>1391.4</ele>
        <time>2020-02-09T13:35:12Z</time>
      </trkpt>
      <trkpt lat="42.69515" lon="1.65315">
        <ele>1391</ele>
        <time>2020-02-09T13:35:20Z</time>
      </trkpt>
      <trkpt lat="42.69519" lon="1.65318">
        <ele>1390.7</ele>
        <time>2020-02-09T13:35:22Z</time>
      </trkpt>
      <trkpt lat="42.69523" lon="1.65321">
        <ele>1390.3</ele>
        <time>2020-02-09T13:35:29Z</time>
      </trkpt>
      <trkpt lat="42.69528" lon="1.65324">
        <ele>1390</ele>
        <time>2020-02-09T13:35:30Z</time>
      </trkpt>
      <trkpt lat="42.69532" lon="1.65334">
        <ele>1389.1</ele>
        <time>2020-02-09T13:35:33Z</time>
      </trkpt>
      <trkpt lat="42.69532" lon="1.65334">
        <ele>1389.1</ele>
        <time>2020-02-09T13:35:40Z</time>
      </trkpt>
      <trkpt lat="42.69537" lon="1.65346">
        <ele>1388</ele>
        <time>2020-02-09T13:35:41Z</time>
      </trkpt>
      <trkpt lat="42.69537" lon="1.65346">
        <ele>1388</ele>
        <time>2020-02-09T13:35:50Z</time>
      </trkpt>
      <trkpt lat="42.69545" lon="1.6535">
        <ele>1387.1</ele>
        <time>2020-02-09T13:35:59Z</time>
      </trkpt>
      <trkpt lat="42.69545" lon="1.6535">
        <ele>1387.1</ele>
        <time>2020-02-09T13:36:00Z</time>
      </trkpt>
      <trkpt lat="42.69545" lon="1.6535">
        <ele>1387.1</ele>
        <time>2020-02-09T13:36:10Z</time>
      </trkpt>
      <trkpt lat="42.69545" lon="1.6535">
        <ele>1387.1</ele>
        <time>2020-02-09T13:36:20Z</time>
      </trkpt>
      <trkpt lat="42.69554" lon="1.65355">
        <ele>1386.2</ele>
        <time>2020-02-09T13:36:25Z</time>
      </trkpt>
      <trkpt lat="42.69554" lon="1.65355">
        <ele>1386.2</ele>
        <time>2020-02-09T13:36:30Z</time>
      </trkpt>
      <trkpt lat="42.69561" lon="1.65362">
        <ele>1385</ele>
        <time>2020-02-09T13:36:33Z</time>
      </trkpt>
      <trkpt lat="42.69563" lon="1.65376">
        <ele>1383.7</ele>
        <time>2020-02-09T13:36:37Z</time>
      </trkpt>
      <trkpt lat="42.69563" lon="1.65376">
        <ele>1383.7</ele>
        <time>2020-02-09T13:36:40Z</time>
      </trkpt>
      <trkpt lat="42.69567" lon="1.65389">
        <ele>1382.2</ele>
        <time>2020-02-09T13:36:47Z</time>
      </trkpt>
      <trkpt lat="42.69567" lon="1.65389">
        <ele>1382.2</ele>
        <time>2020-02-09T13:36:50Z</time>
      </trkpt>
      <trkpt lat="42.69577" lon="1.65386">
        <ele>1380.7</ele>
        <time>2020-02-09T13:36:57Z</time>
      </trkpt>
      <trkpt lat="42.69577" lon="1.65386">
        <ele>1380.7</ele>
        <time>2020-02-09T13:37:00Z</time>
      </trkpt>
      <trkpt lat="42.69585" lon="1.6538">
        <ele>1379.3</ele>
        <time>2020-02-09T13:37:06Z</time>
      </trkpt>
      <trkpt lat="42.69585" lon="1.6538">
        <ele>1379.3</ele>
        <time>2020-02-09T13:37:10Z</time>
      </trkpt>
      <trkpt lat="42.69589" lon="1.65382">
        <ele>1378.7</ele>
        <time>2020-02-09T13:37:20Z</time>
      </trkpt>
      <trkpt lat="42.69593" lon="1.65383">
        <ele>1378.3</ele>
        <time>2020-02-09T13:37:30Z</time>
      </trkpt>
      <trkpt lat="42.69596" lon="1.65385">
        <ele>1377.8</ele>
        <time>2020-02-09T13:37:40Z</time>
      </trkpt>
      <trkpt lat="42.696" lon="1.65387">
        <ele>1377.3</ele>
        <time>2020-02-09T13:37:50Z</time>
      </trkpt>
      <trkpt lat="42.69604" lon="1.65388">
        <ele>1376.8</ele>
        <time>2020-02-09T13:38:00Z</time>
      </trkpt>
      <trkpt lat="42.69607" lon="1.6539">
        <ele>1376.4</ele>
        <time>2020-02-09T13:38:10Z</time>
      </trkpt>
      <trkpt lat="42.69611" lon="1.65392">
        <ele>1376</ele>
        <time>2020-02-09T13:38:13Z</time>
      </trkpt>
      <trkpt lat="42.69615" lon="1.65394">
        <ele>1375.7</ele>
        <time>2020-02-09T13:38:19Z</time>
      </trkpt>
      <trkpt lat="42.69618" lon="1.65395">
        <ele>1375.4</ele>
        <time>2020-02-09T13:38:20Z</time>
      </trkpt>
      <trkpt lat="42.69627" lon="1.65397">
        <ele>1374.9</ele>
        <time>2020-02-09T13:38:26Z</time>
      </trkpt>
      <trkpt lat="42.69627" lon="1.65397">
        <ele>1374.9</ele>
        <time>2020-02-09T13:38:30Z</time>
      </trkpt>
      <trkpt lat="42.6964" lon="1.65403">
        <ele>1374.3</ele>
        <time>2020-02-09T13:38:40Z</time>
      </trkpt>
      <trkpt lat="42.69643" lon="1.65403">
        <ele>1374.1</ele>
        <time>2020-02-09T13:38:49Z</time>
      </trkpt>
      <trkpt lat="42.69646" lon="1.65403">
        <ele>1374</ele>
        <time>2020-02-09T13:38:50Z</time>
      </trkpt>
      <trkpt lat="42.69656" lon="1.65403">
        <ele>1373.8</ele>
        <time>2020-02-09T13:38:58Z</time>
      </trkpt>
      <trkpt lat="42.69656" lon="1.65403">
        <ele>1373.8</ele>
        <time>2020-02-09T13:39:00Z</time>
      </trkpt>
      <trkpt lat="42.69666" lon="1.65402">
        <ele>1373.6</ele>
        <time>2020-02-09T13:39:04Z</time>
      </trkpt>
      <trkpt lat="42.69676" lon="1.65396">
        <ele>1373.4</ele>
        <time>2020-02-09T13:39:10Z</time>
      </trkpt>
      <trkpt lat="42.69685" lon="1.6539">
        <ele>1373.2</ele>
        <time>2020-02-09T13:39:17Z</time>
      </trkpt>
      <trkpt lat="42.69685" lon="1.6539">
        <ele>1373.2</ele>
        <time>2020-02-09T13:39:20Z</time>
      </trkpt>
      <trkpt lat="42.69685" lon="1.6539">
        <ele>1373.2</ele>
        <time>2020-02-09T13:39:30Z</time>
      </trkpt>
      <trkpt lat="42.69685" lon="1.65402">
        <ele>1372.9</ele>
        <time>2020-02-09T13:39:31Z</time>
      </trkpt>
      <trkpt lat="42.69688" lon="1.65415">
        <ele>1372.3</ele>
        <time>2020-02-09T13:39:37Z</time>
      </trkpt>
      <trkpt lat="42.69688" lon="1.65415">
        <ele>1372.3</ele>
        <time>2020-02-09T13:39:40Z</time>
      </trkpt>
      <trkpt lat="42.69694" lon="1.65431">
        <ele>1371.5</ele>
        <time>2020-02-09T13:39:43Z</time>
      </trkpt>
      <trkpt lat="42.69697" lon="1.65434">
        <ele>1371.1</ele>
        <time>2020-02-09T13:39:50Z</time>
      </trkpt>
      <trkpt lat="42.697" lon="1.65438">
        <ele>1370.6</ele>
        <time>2020-02-09T13:39:52Z</time>
      </trkpt>
      <trkpt lat="42.69703" lon="1.65441">
        <ele>1370.3</ele>
        <time>2020-02-09T13:39:59Z</time>
      </trkpt>
      <trkpt lat="42.69706" lon="1.65445">
        <ele>1369.9</ele>
        <time>2020-02-09T13:40:00Z</time>
      </trkpt>
      <trkpt lat="42.6971" lon="1.65447">
        <ele>1369.4</ele>
        <time>2020-02-09T13:40:10Z</time>
      </trkpt>
      <trkpt lat="42.69715" lon="1.65448">
        <ele>1368.9</ele>
        <time>2020-02-09T13:40:12Z</time>
      </trkpt>
      <trkpt lat="42.6972" lon="1.6545">
        <ele>1368.4</ele>
        <time>2020-02-09T13:40:19Z</time>
      </trkpt>
      <trkpt lat="42.69724" lon="1.65452">
        <ele>1368</ele>
        <time>2020-02-09T13:40:20Z</time>
      </trkpt>
      <trkpt lat="42.69724" lon="1.65452">
        <ele>1368</ele>
        <time>2020-02-09T13:40:30Z</time>
      </trkpt>
      <trkpt lat="42.69733" lon="1.65455">
        <ele>1367.2</ele>
        <time>2020-02-09T13:40:33Z</time>
      </trkpt>
      <trkpt lat="42.69733" lon="1.65455">
        <ele>1368.2</ele>
        <time>2020-02-09T13:40:40Z</time>
      </trkpt>
      <trkpt lat="42.69742" lon="1.65457">
        <ele>1367.7</ele>
        <time>2020-02-09T13:40:41Z</time>
      </trkpt>
      <trkpt lat="42.69742" lon="1.65457">
        <ele>1367.7</ele>
        <time>2020-02-09T13:40:50Z</time>
      </trkpt>
      <trkpt lat="42.6975" lon="1.65465">
        <ele>1367.3</ele>
        <time>2020-02-09T13:40:51Z</time>
      </trkpt>
      <trkpt lat="42.6976" lon="1.65471">
        <ele>1367.1</ele>
        <time>2020-02-09T13:40:57Z</time>
      </trkpt>
      <trkpt lat="42.6976" lon="1.65471">
        <ele>1367.1</ele>
        <time>2020-02-09T13:41:00Z</time>
      </trkpt>
      <trkpt lat="42.69767" lon="1.65487">
        <ele>1367.4</ele>
        <time>2020-02-09T13:41:06Z</time>
      </trkpt>
      <trkpt lat="42.69767" lon="1.65493">
        <ele>1367.4</ele>
        <time>2020-02-09T13:41:09Z</time>
      </trkpt>
      <trkpt lat="42.69768" lon="1.65499">
        <ele>1367.5</ele>
        <time>2020-02-09T13:41:10Z</time>
      </trkpt>
      <trkpt lat="42.69768" lon="1.65499">
        <ele>1367.5</ele>
        <time>2020-02-09T13:41:20Z</time>
      </trkpt>
      <trkpt lat="42.69772" lon="1.65488">
        <ele>1368.2</ele>
        <time>2020-02-09T13:41:25Z</time>
      </trkpt>
      <trkpt lat="42.69761" lon="1.65492">
        <ele>1369.2</ele>
        <time>2020-02-09T13:41:30Z</time>
      </trkpt>
      <trkpt lat="42.69752" lon="1.65497">
        <ele>1371.8</ele>
        <time>2020-02-09T13:41:35Z</time>
      </trkpt>
      <trkpt lat="42.69752" lon="1.65497">
        <ele>1371.8</ele>
        <time>2020-02-09T13:41:40Z</time>
      </trkpt>
      <trkpt lat="42.69752" lon="1.65497">
        <ele>1371.8</ele>
        <time>2020-02-09T13:41:50Z</time>
      </trkpt>
      <trkpt lat="42.69743" lon="1.65493">
        <ele>1373.9</ele>
        <time>2020-02-09T13:41:53Z</time>
      </trkpt>
      <trkpt lat="42.69743" lon="1.65493">
        <ele>1373.9</ele>
        <time>2020-02-09T13:42:00Z</time>
      </trkpt>
      <trkpt lat="42.69743" lon="1.65493">
        <ele>1373.9</ele>
        <time>2020-02-09T13:42:10Z</time>
      </trkpt>
      <trkpt lat="42.69746" lon="1.6548">
        <ele>1377.2</ele>
        <time>2020-02-09T13:42:12Z</time>
      </trkpt>
      <trkpt lat="42.69746" lon="1.6548">
        <ele>1377.2</ele>
        <time>2020-02-09T13:42:20Z</time>
      </trkpt>
      <trkpt lat="42.69756" lon="1.65478">
        <ele>1380.2</ele>
        <time>2020-02-09T13:42:24Z</time>
      </trkpt>
      <trkpt lat="42.69756" lon="1.65478">
        <ele>1380.2</ele>
        <time>2020-02-09T13:42:30Z</time>
      </trkpt>
      <trkpt lat="42.69764" lon="1.65471">
        <ele>1383.6</ele>
        <time>2020-02-09T13:42:35Z</time>
      </trkpt>
      <trkpt lat="42.69764" lon="1.65471">
        <ele>1383.6</ele>
        <time>2020-02-09T13:42:40Z</time>
      </trkpt>
      <trkpt lat="42.69769" lon="1.65484">
        <ele>1386.3</ele>
        <time>2020-02-09T13:42:46Z</time>
      </trkpt>
      <trkpt lat="42.69769" lon="1.65484">
        <ele>1386.3</ele>
        <time>2020-02-09T13:42:50Z</time>
      </trkpt>
      <trkpt lat="42.69769" lon="1.65484">
        <ele>1386.3</ele>
        <time>2020-02-09T13:43:00Z</time>
      </trkpt>
      <trkpt lat="42.69779" lon="1.6548">
        <ele>1387.8</ele>
        <time>2020-02-09T13:43:01Z</time>
      </trkpt>
      <trkpt lat="42.69787" lon="1.65474">
        <ele>1390.1</ele>
        <time>2020-02-09T13:43:10Z</time>
      </trkpt>
      <trkpt lat="42.69787" lon="1.65474">
        <ele>1390.1</ele>
        <time>2020-02-09T13:43:20Z</time>
      </trkpt>
      <trkpt lat="42.69797" lon="1.65478">
        <ele>1394.1</ele>
        <time>2020-02-09T13:43:25Z</time>
      </trkpt>
      <trkpt lat="42.69797" lon="1.65478">
        <ele>1394.1</ele>
        <time>2020-02-09T13:43:30Z</time>
      </trkpt>
      <trkpt lat="42.69797" lon="1.65478">
        <ele>1394.1</ele>
        <time>2020-02-09T13:43:40Z</time>
      </trkpt>
      <trkpt lat="42.69807" lon="1.65474">
        <ele>1396.9</ele>
        <time>2020-02-09T13:43:42Z</time>
      </trkpt>
      <trkpt lat="42.69807" lon="1.65474">
        <ele>1396.9</ele>
        <time>2020-02-09T13:43:50Z</time>
      </trkpt>
      <trkpt lat="42.69817" lon="1.65476">
        <ele>1398.1</ele>
        <time>2020-02-09T13:43:55Z</time>
      </trkpt>
      <trkpt lat="42.69817" lon="1.65476">
        <ele>1398.1</ele>
        <time>2020-02-09T13:44:00Z</time>
      </trkpt>
      <trkpt lat="42.69817" lon="1.65476">
        <ele>1398.1</ele>
        <time>2020-02-09T13:44:10Z</time>
      </trkpt>
      <trkpt lat="42.69823" lon="1.65485">
        <ele>1399.8</ele>
        <time>2020-02-09T13:44:14Z</time>
      </trkpt>
      <trkpt lat="42.69823" lon="1.65485">
        <ele>1399.8</ele>
        <time>2020-02-09T13:44:20Z</time>
      </trkpt>
      <trkpt lat="42.69832" lon="1.6549">
        <ele>1404.3</ele>
        <time>2020-02-09T13:44:22Z</time>
      </trkpt>
      <trkpt lat="42.69832" lon="1.6549">
        <ele>1404.3</ele>
        <time>2020-02-09T13:44:30Z</time>
      </trkpt>
      <trkpt lat="42.69841" lon="1.65492">
        <ele>1406.3</ele>
        <time>2020-02-09T13:44:37Z</time>
      </trkpt>
      <trkpt lat="42.69841" lon="1.65492">
        <ele>1406.3</ele>
        <time>2020-02-09T13:44:40Z</time>
      </trkpt>
      <trkpt lat="42.69843" lon="1.65497">
        <ele>1407.2</ele>
        <time>2020-02-09T13:44:50Z</time>
      </trkpt>
      <trkpt lat="42.69844" lon="1.65501">
        <ele>1408.5</ele>
        <time>2020-02-09T13:44:52Z</time>
      </trkpt>
      <trkpt lat="42.69846" lon="1.65506">
        <ele>1409.8</ele>
        <time>2020-02-09T13:45:00Z</time>
      </trkpt>
      <trkpt lat="42.69847" lon="1.6551">
        <ele>1410.9</ele>
        <time>2020-02-09T13:45:01Z</time>
      </trkpt>
      <trkpt lat="42.69849" lon="1.65515">
        <ele>1411</ele>
        <time>2020-02-09T13:45:10Z</time>
      </trkpt>
      <trkpt lat="42.6985" lon="1.65519">
        <ele>1411.1</ele>
        <time>2020-02-09T13:45:20Z</time>
      </trkpt>
      <trkpt lat="42.69852" lon="1.65524">
        <ele>1411.2</ele>
        <time>2020-02-09T13:45:30Z</time>
      </trkpt>
      <trkpt lat="42.69853" lon="1.65528">
        <ele>1412.2</ele>
        <time>2020-02-09T13:45:32Z</time>
      </trkpt>
      <trkpt lat="42.69855" lon="1.65533">
        <ele>1413.1</ele>
        <time>2020-02-09T13:45:38Z</time>
      </trkpt>
      <trkpt lat="42.69856" lon="1.65537">
        <ele>1414</ele>
        <time>2020-02-09T13:45:40Z</time>
      </trkpt>
      <trkpt lat="42.69856" lon="1.65537">
        <ele>1414</ele>
        <time>2020-02-09T13:45:50Z</time>
      </trkpt>
      <trkpt lat="42.69861" lon="1.65548">
        <ele>1415</ele>
        <time>2020-02-09T13:45:52Z</time>
      </trkpt>
      <trkpt lat="42.69861" lon="1.65548">
        <ele>1415</ele>
        <time>2020-02-09T13:46:00Z</time>
      </trkpt>
      <trkpt lat="42.6987" lon="1.65544">
        <ele>1415.4</ele>
        <time>2020-02-09T13:46:03Z</time>
      </trkpt>
      <trkpt lat="42.6987" lon="1.65544">
        <ele>1415.4</ele>
        <time>2020-02-09T13:46:10Z</time>
      </trkpt>
      <trkpt lat="42.6987" lon="1.65544">
        <ele>1415.4</ele>
        <time>2020-02-09T13:46:20Z</time>
      </trkpt>
      <trkpt lat="42.6987" lon="1.65544">
        <ele>1415.4</ele>
        <time>2020-02-09T13:46:30Z</time>
      </trkpt>
      <trkpt lat="42.6987" lon="1.65544">
        <ele>1415.4</ele>
        <time>2020-02-09T13:46:40Z</time>
      </trkpt>
      <trkpt lat="42.6987" lon="1.65544">
        <ele>1415.4</ele>
        <time>2020-02-09T13:46:50Z</time>
      </trkpt>
      <trkpt lat="42.6987" lon="1.65544">
        <ele>1415.4</ele>
        <time>2020-02-09T13:47:00Z</time>
      </trkpt>
      <trkpt lat="42.69874" lon="1.65555">
        <ele>1415.6</ele>
        <time>2020-02-09T13:47:07Z</time>
      </trkpt>
      <trkpt lat="42.69874" lon="1.65555">
        <ele>1415.6</ele>
        <time>2020-02-09T13:47:10Z</time>
      </trkpt>
      <trkpt lat="42.69874" lon="1.65555">
        <ele>1415.6</ele>
        <time>2020-02-09T13:47:20Z</time>
      </trkpt>
      <trkpt lat="42.69884" lon="1.65562">
        <ele>1415.8</ele>
        <time>2020-02-09T13:47:23Z</time>
      </trkpt>
      <trkpt lat="42.69884" lon="1.65562">
        <ele>1415.8</ele>
        <time>2020-02-09T13:47:30Z</time>
      </trkpt>
      <trkpt lat="42.69892" lon="1.65551">
        <ele>1415.8</ele>
        <time>2020-02-09T13:47:38Z</time>
      </trkpt>
      <trkpt lat="42.69892" lon="1.65551">
        <ele>1415.8</ele>
        <time>2020-02-09T13:47:40Z</time>
      </trkpt>
      <trkpt lat="42.69892" lon="1.65551">
        <ele>1415.8</ele>
        <time>2020-02-09T13:47:50Z</time>
      </trkpt>
      <trkpt lat="42.69894" lon="1.65563">
        <ele>1415.4</ele>
        <time>2020-02-09T13:47:55Z</time>
      </trkpt>
      <trkpt lat="42.69894" lon="1.65563">
        <ele>1415.4</ele>
        <time>2020-02-09T13:48:00Z</time>
      </trkpt>
      <trkpt lat="42.69903" lon="1.65568">
        <ele>1413.5</ele>
        <time>2020-02-09T13:48:07Z</time>
      </trkpt>
      <trkpt lat="42.69903" lon="1.65568">
        <ele>1413.5</ele>
        <time>2020-02-09T13:48:10Z</time>
      </trkpt>
      <trkpt lat="42.69912" lon="1.65574">
        <ele>1412.2</ele>
        <time>2020-02-09T13:48:17Z</time>
      </trkpt>
      <trkpt lat="42.69912" lon="1.65574">
        <ele>1412.2</ele>
        <time>2020-02-09T13:48:20Z</time>
      </trkpt>
      <trkpt lat="42.69922" lon="1.65579">
        <ele>1410.5</ele>
        <time>2020-02-09T13:48:25Z</time>
      </trkpt>
      <trkpt lat="42.69922" lon="1.65579">
        <ele>1410.5</ele>
        <time>2020-02-09T13:48:30Z</time>
      </trkpt>
      <trkpt lat="42.69922" lon="1.65579">
        <ele>1410.5</ele>
        <time>2020-02-09T13:48:40Z</time>
      </trkpt>
      <trkpt lat="42.69926" lon="1.65591">
        <ele>1408.6</ele>
        <time>2020-02-09T13:48:42Z</time>
      </trkpt>
      <trkpt lat="42.69926" lon="1.65591">
        <ele>1408.6</ele>
        <time>2020-02-09T13:48:50Z</time>
      </trkpt>
      <trkpt lat="42.69935" lon="1.65595">
        <ele>1406.6</ele>
        <time>2020-02-09T13:48:53Z</time>
      </trkpt>
      <trkpt lat="42.69943" lon="1.65602">
        <ele>1404.6</ele>
        <time>2020-02-09T13:48:57Z</time>
      </trkpt>
      <trkpt lat="42.69943" lon="1.65602">
        <ele>1404.6</ele>
        <time>2020-02-09T13:49:00Z</time>
      </trkpt>
      <trkpt lat="42.69952" lon="1.65604">
        <ele>1402.5</ele>
        <time>2020-02-09T13:49:08Z</time>
      </trkpt>
      <trkpt lat="42.69952" lon="1.65604">
        <ele>1402.5</ele>
        <time>2020-02-09T13:49:10Z</time>
      </trkpt>
      <trkpt lat="42.69962" lon="1.65603">
        <ele>1401.2</ele>
        <time>2020-02-09T13:49:16Z</time>
      </trkpt>
      <trkpt lat="42.69962" lon="1.65603">
        <ele>1401.2</ele>
        <time>2020-02-09T13:49:20Z</time>
      </trkpt>
      <trkpt lat="42.69971" lon="1.6561">
        <ele>1398.5</ele>
        <time>2020-02-09T13:49:28Z</time>
      </trkpt>
      <trkpt lat="42.69971" lon="1.6561">
        <ele>1398.5</ele>
        <time>2020-02-09T13:49:30Z</time>
      </trkpt>
      <trkpt lat="42.69983" lon="1.65619">
        <ele>1396.4</ele>
        <time>2020-02-09T13:49:40Z</time>
      </trkpt>
      <trkpt lat="42.69987" lon="1.6562">
        <ele>1395.7</ele>
        <time>2020-02-09T13:49:49Z</time>
      </trkpt>
      <trkpt lat="42.6999" lon="1.6562">
        <ele>1394.9</ele>
        <time>2020-02-09T13:49:50Z</time>
      </trkpt>
      <trkpt lat="42.69999" lon="1.65631">
        <ele>1391.9</ele>
        <time>2020-02-09T13:50:00Z</time>
      </trkpt>
      <trkpt lat="42.70003" lon="1.65633">
        <ele>1391.2</ele>
        <time>2020-02-09T13:50:10Z</time>
      </trkpt>
      <trkpt lat="42.70006" lon="1.65634">
        <ele>1390.5</ele>
        <time>2020-02-09T13:50:12Z</time>
      </trkpt>
      <trkpt lat="42.70009" lon="1.65636">
        <ele>1390</ele>
        <time>2020-02-09T13:50:20Z</time>
      </trkpt>
      <trkpt lat="42.70013" lon="1.65638">
        <ele>1389.5</ele>
        <time>2020-02-09T13:50:29Z</time>
      </trkpt>
      <trkpt lat="42.70016" lon="1.6564">
        <ele>1388.9</ele>
        <time>2020-02-09T13:50:30Z</time>
      </trkpt>
      <trkpt lat="42.70019" lon="1.65641">
        <ele>1388.2</ele>
        <time>2020-02-09T13:50:40Z</time>
      </trkpt>
      <trkpt lat="42.70022" lon="1.65643">
        <ele>1387.4</ele>
        <time>2020-02-09T13:50:43Z</time>
      </trkpt>
      <trkpt lat="42.70026" lon="1.65645">
        <ele>1386.7</ele>
        <time>2020-02-09T13:50:49Z</time>
      </trkpt>
      <trkpt lat="42.70029" lon="1.65647">
        <ele>1386.3</ele>
        <time>2020-02-09T13:50:50Z</time>
      </trkpt>
      <trkpt lat="42.70036" lon="1.65655">
        <ele>1384.8</ele>
        <time>2020-02-09T13:50:55Z</time>
      </trkpt>
      <trkpt lat="42.70036" lon="1.65655">
        <ele>1384.8</ele>
        <time>2020-02-09T13:51:00Z</time>
      </trkpt>
      <trkpt lat="42.70043" lon="1.65664">
        <ele>1382.9</ele>
        <time>2020-02-09T13:51:04Z</time>
      </trkpt>
      <trkpt lat="42.70043" lon="1.65664">
        <ele>1382.9</ele>
        <time>2020-02-09T13:51:10Z</time>
      </trkpt>
      <trkpt lat="42.70049" lon="1.65675">
        <ele>1380.9</ele>
        <time>2020-02-09T13:51:17Z</time>
      </trkpt>
      <trkpt lat="42.70049" lon="1.65675">
        <ele>1380.9</ele>
        <time>2020-02-09T13:51:20Z</time>
      </trkpt>
      <trkpt lat="42.70058" lon="1.6568">
        <ele>1379.8</ele>
        <time>2020-02-09T13:51:23Z</time>
      </trkpt>
      <trkpt lat="42.70058" lon="1.6568">
        <ele>1379.8</ele>
        <time>2020-02-09T13:51:30Z</time>
      </trkpt>
      <trkpt lat="42.70067" lon="1.65685">
        <ele>1378.1</ele>
        <time>2020-02-09T13:51:34Z</time>
      </trkpt>
      <trkpt lat="42.70067" lon="1.65685">
        <ele>1378.1</ele>
        <time>2020-02-09T13:51:40Z</time>
      </trkpt>
      <trkpt lat="42.70076" lon="1.65688">
        <ele>1376.3</ele>
        <time>2020-02-09T13:51:47Z</time>
      </trkpt>
      <trkpt lat="42.70076" lon="1.65688">
        <ele>1376.3</ele>
        <time>2020-02-09T13:51:50Z</time>
      </trkpt>
      <trkpt lat="42.70084" lon="1.65696">
        <ele>1374.2</ele>
        <time>2020-02-09T13:51:56Z</time>
      </trkpt>
      <trkpt lat="42.70084" lon="1.65696">
        <ele>1374.2</ele>
        <time>2020-02-09T13:52:00Z</time>
      </trkpt>
      <trkpt lat="42.70096" lon="1.65708">
        <ele>1371.2</ele>
        <time>2020-02-09T13:52:03Z</time>
      </trkpt>
      <trkpt lat="42.701" lon="1.6571">
        <ele>1370.7</ele>
        <time>2020-02-09T13:52:10Z</time>
      </trkpt>
      <trkpt lat="42.70104" lon="1.65712">
        <ele>1370.3</ele>
        <time>2020-02-09T13:52:13Z</time>
      </trkpt>
      <trkpt lat="42.70108" lon="1.65714">
        <ele>1369.9</ele>
        <time>2020-02-09T13:52:19Z</time>
      </trkpt>
      <trkpt lat="42.70112" lon="1.65716">
        <ele>1369.2</ele>
        <time>2020-02-09T13:52:20Z</time>
      </trkpt>
      <trkpt lat="42.70112" lon="1.65716">
        <ele>1369.2</ele>
        <time>2020-02-09T13:52:30Z</time>
      </trkpt>
      <trkpt lat="42.70118" lon="1.65725">
        <ele>1367.2</ele>
        <time>2020-02-09T13:52:37Z</time>
      </trkpt>
      <trkpt lat="42.70118" lon="1.65725">
        <ele>1367.2</ele>
        <time>2020-02-09T13:52:40Z</time>
      </trkpt>
      <trkpt lat="42.70118" lon="1.65725">
        <ele>1367.2</ele>
        <time>2020-02-09T13:52:50Z</time>
      </trkpt>
      <trkpt lat="42.70128" lon="1.6573">
        <ele>1364.4</ele>
        <time>2020-02-09T13:52:52Z</time>
      </trkpt>
      <trkpt lat="42.70128" lon="1.6573">
        <ele>1364.4</ele>
        <time>2020-02-09T13:53:00Z</time>
      </trkpt>
      <trkpt lat="42.70127" lon="1.65743">
        <ele>1362.3</ele>
        <time>2020-02-09T13:53:07Z</time>
      </trkpt>
      <trkpt lat="42.70127" lon="1.65743">
        <ele>1362.3</ele>
        <time>2020-02-09T13:53:10Z</time>
      </trkpt>
      <trkpt lat="42.70131" lon="1.65746">
        <ele>1361.2</ele>
        <time>2020-02-09T13:53:20Z</time>
      </trkpt>
      <trkpt lat="42.70134" lon="1.65749">
        <ele>1359.9</ele>
        <time>2020-02-09T13:53:21Z</time>
      </trkpt>
      <trkpt lat="42.70137" lon="1.65752">
        <ele>1358.7</ele>
        <time>2020-02-09T13:53:29Z</time>
      </trkpt>
      <trkpt lat="42.70141" lon="1.65755">
        <ele>1357.8</ele>
        <time>2020-02-09T13:53:30Z</time>
      </trkpt>
      <trkpt lat="42.70146" lon="1.65765">
        <ele>1356</ele>
        <time>2020-02-09T13:53:37Z</time>
      </trkpt>
      <trkpt lat="42.70146" lon="1.65765">
        <ele>1356</ele>
        <time>2020-02-09T13:53:40Z</time>
      </trkpt>
      <trkpt lat="42.70152" lon="1.65774">
        <ele>1353.3</ele>
        <time>2020-02-09T13:53:46Z</time>
      </trkpt>
      <trkpt lat="42.70152" lon="1.65774">
        <ele>1353.3</ele>
        <time>2020-02-09T13:53:50Z</time>
      </trkpt>
      <trkpt lat="42.70156" lon="1.65786">
        <ele>1351</ele>
        <time>2020-02-09T13:53:58Z</time>
      </trkpt>
      <trkpt lat="42.70156" lon="1.65786">
        <ele>1351</ele>
        <time>2020-02-09T13:54:00Z</time>
      </trkpt>
      <trkpt lat="42.70155" lon="1.65799">
        <ele>1347.5</ele>
        <time>2020-02-09T13:54:06Z</time>
      </trkpt>
      <trkpt lat="42.70155" lon="1.65799">
        <ele>1347.5</ele>
        <time>2020-02-09T13:54:10Z</time>
      </trkpt>
      <trkpt lat="42.70155" lon="1.65799">
        <ele>1347.5</ele>
        <time>2020-02-09T13:54:20Z</time>
      </trkpt>
      <trkpt lat="42.70154" lon="1.65812">
        <ele>1344.8</ele>
        <time>2020-02-09T13:54:28Z</time>
      </trkpt>
      <trkpt lat="42.70154" lon="1.65812">
        <ele>1344.8</ele>
        <time>2020-02-09T13:54:30Z</time>
      </trkpt>
      <trkpt lat="42.70152" lon="1.65828">
        <ele>1341.5</ele>
        <time>2020-02-09T13:54:33Z</time>
      </trkpt>
      <trkpt lat="42.70152" lon="1.65831">
        <ele>1340.5</ele>
        <time>2020-02-09T13:54:40Z</time>
      </trkpt>
      <trkpt lat="42.70153" lon="1.65835">
        <ele>1339.4</ele>
        <time>2020-02-09T13:54:44Z</time>
      </trkpt>
      <trkpt lat="42.70153" lon="1.65838">
        <ele>1338.4</ele>
        <time>2020-02-09T13:54:50Z</time>
      </trkpt>
      <trkpt lat="42.70153" lon="1.65841">
        <ele>1337.8</ele>
        <time>2020-02-09T13:54:53Z</time>
      </trkpt>
      <trkpt lat="42.70153" lon="1.65844">
        <ele>1337.7</ele>
        <time>2020-02-09T13:55:00Z</time>
      </trkpt>
      <trkpt lat="42.70154" lon="1.65848">
        <ele>1337.5</ele>
        <time>2020-02-09T13:55:10Z</time>
      </trkpt>
      <trkpt lat="42.70154" lon="1.65851">
        <ele>1337.4</ele>
        <time>2020-02-09T13:55:13Z</time>
      </trkpt>
      <trkpt lat="42.70154" lon="1.65854">
        <ele>1337.2</ele>
        <time>2020-02-09T13:55:20Z</time>
      </trkpt>
      <trkpt lat="42.70154" lon="1.65857">
        <ele>1336.5</ele>
        <time>2020-02-09T13:55:22Z</time>
      </trkpt>
      <trkpt lat="42.70155" lon="1.65861">
        <ele>1335.8</ele>
        <time>2020-02-09T13:55:30Z</time>
      </trkpt>
      <trkpt lat="42.70155" lon="1.65864">
        <ele>1335.1</ele>
        <time>2020-02-09T13:55:33Z</time>
      </trkpt>
      <trkpt lat="42.70155" lon="1.65867">
        <ele>1334.3</ele>
        <time>2020-02-09T13:55:40Z</time>
      </trkpt>
      <trkpt lat="42.70155" lon="1.6587">
        <ele>1333.4</ele>
        <time>2020-02-09T13:55:41Z</time>
      </trkpt>
      <trkpt lat="42.70156" lon="1.65874">
        <ele>1332.2</ele>
        <time>2020-02-09T13:55:50Z</time>
      </trkpt>
      <trkpt lat="42.70156" lon="1.65877">
        <ele>1331.1</ele>
        <time>2020-02-09T13:55:55Z</time>
      </trkpt>
      <trkpt lat="42.70156" lon="1.6588">
        <ele>1330</ele>
        <time>2020-02-09T13:55:59Z</time>
      </trkpt>
      <trkpt lat="42.70156" lon="1.65883">
        <ele>1329</ele>
        <time>2020-02-09T13:56:00Z</time>
      </trkpt>
      <trkpt lat="42.70147" lon="1.65882">
        <ele>1326.7</ele>
        <time>2020-02-09T13:56:06Z</time>
      </trkpt>
      <trkpt lat="42.70147" lon="1.65882">
        <ele>1326.7</ele>
        <time>2020-02-09T13:56:10Z</time>
      </trkpt>
      <trkpt lat="42.70149" lon="1.65887">
        <ele>1326</ele>
        <time>2020-02-09T13:56:20Z</time>
      </trkpt>
      <trkpt lat="42.7015" lon="1.65891">
        <ele>1325.3</ele>
        <time>2020-02-09T13:56:29Z</time>
      </trkpt>
      <trkpt lat="42.70152" lon="1.65896">
        <ele>1324.4</ele>
        <time>2020-02-09T13:56:30Z</time>
      </trkpt>
      <trkpt lat="42.70154" lon="1.659">
        <ele>1323.6</ele>
        <time>2020-02-09T13:56:38Z</time>
      </trkpt>
      <trkpt lat="42.70156" lon="1.65904">
        <ele>1322.5</ele>
        <time>2020-02-09T13:56:40Z</time>
      </trkpt>
      <trkpt lat="42.70156" lon="1.65904">
        <ele>1322.5</ele>
        <time>2020-02-09T13:56:50Z</time>
      </trkpt>
      <trkpt lat="42.70159" lon="1.65916">
        <ele>1319.7</ele>
        <time>2020-02-09T13:56:55Z</time>
      </trkpt>
      <trkpt lat="42.70159" lon="1.65916">
        <ele>1319.7</ele>
        <time>2020-02-09T13:57:00Z</time>
      </trkpt>
      <trkpt lat="42.70158" lon="1.65928">
        <ele>1318.2</ele>
        <time>2020-02-09T13:57:04Z</time>
      </trkpt>
      <trkpt lat="42.70158" lon="1.65928">
        <ele>1318.2</ele>
        <time>2020-02-09T13:57:10Z</time>
      </trkpt>
      <trkpt lat="42.70159" lon="1.65941">
        <ele>1314.6</ele>
        <time>2020-02-09T13:57:16Z</time>
      </trkpt>
      <trkpt lat="42.70159" lon="1.65941">
        <ele>1314.6</ele>
        <time>2020-02-09T13:57:20Z</time>
      </trkpt>
      <trkpt lat="42.70167" lon="1.65948">
        <ele>1312.1</ele>
        <time>2020-02-09T13:57:30Z</time>
      </trkpt>
      <trkpt lat="42.70167" lon="1.65948">
        <ele>1312.1</ele>
        <time>2020-02-09T13:57:40Z</time>
      </trkpt>
      <trkpt lat="42.7017" lon="1.6596">
        <ele>1309.3</ele>
        <time>2020-02-09T13:57:47Z</time>
      </trkpt>
      <trkpt lat="42.7017" lon="1.6596">
        <ele>1309.3</ele>
        <time>2020-02-09T13:57:50Z</time>
      </trkpt>
      <trkpt lat="42.70166" lon="1.65972">
        <ele>1304.4</ele>
        <time>2020-02-09T13:57:53Z</time>
      </trkpt>
      <trkpt lat="42.70166" lon="1.65972">
        <ele>1304.4</ele>
        <time>2020-02-09T13:58:00Z</time>
      </trkpt>
      <trkpt lat="42.70165" lon="1.65985">
        <ele>1298.7</ele>
        <time>2020-02-09T13:58:04Z</time>
      </trkpt>
      <trkpt lat="42.70165" lon="1.65985">
        <ele>1299</ele>
        <time>2020-02-09T13:58:10Z</time>
      </trkpt>
      <trkpt lat="42.70155" lon="1.65995">
        <ele>1289.2</ele>
        <time>2020-02-09T13:58:15Z</time>
      </trkpt>
      <trkpt lat="42.70146" lon="1.66005">
        <ele>1282.4</ele>
        <time>2020-02-09T13:58:17Z</time>
      </trkpt>
      <trkpt lat="42.70146" lon="1.66005">
        <ele>1282.8</ele>
        <time>2020-02-09T13:58:20Z</time>
      </trkpt>
      <trkpt lat="42.70142" lon="1.65994">
        <ele>1285</ele>
        <time>2020-02-09T13:58:26Z</time>
      </trkpt>
      <trkpt lat="42.70142" lon="1.65994">
        <ele>1285.4</ele>
        <time>2020-02-09T13:58:30Z</time>
      </trkpt>
      <trkpt lat="42.70141" lon="1.65981">
        <ele>1292.5</ele>
        <time>2020-02-09T13:58:37Z</time>
      </trkpt>
      <trkpt lat="42.70141" lon="1.65981">
        <ele>1292.8</ele>
        <time>2020-02-09T13:58:40Z</time>
      </trkpt>
      <trkpt lat="42.70141" lon="1.65981">
        <ele>1293.2</ele>
        <time>2020-02-09T13:58:50Z</time>
      </trkpt>
      <trkpt lat="42.70134" lon="1.65988">
        <ele>1288.8</ele>
        <time>2020-02-09T13:58:52Z</time>
      </trkpt>
      <trkpt lat="42.70134" lon="1.65988">
        <ele>1289.1</ele>
        <time>2020-02-09T13:59:00Z</time>
      </trkpt>
      <trkpt lat="42.70128" lon="1.65998">
        <ele>1280.3</ele>
        <time>2020-02-09T13:59:06Z</time>
      </trkpt>
      <trkpt lat="42.70128" lon="1.65998">
        <ele>1280.7</ele>
        <time>2020-02-09T13:59:10Z</time>
      </trkpt>
      <trkpt lat="42.70121" lon="1.66007">
        <ele>1274.8</ele>
        <time>2020-02-09T13:59:15Z</time>
      </trkpt>
      <trkpt lat="42.70121" lon="1.66007">
        <ele>1274.8</ele>
        <time>2020-02-09T13:59:20Z</time>
      </trkpt>
      <trkpt lat="42.70121" lon="1.66007">
        <ele>1274.8</ele>
        <time>2020-02-09T13:59:30Z</time>
      </trkpt>
      <trkpt lat="42.70121" lon="1.66007">
        <ele>1274.8</ele>
        <time>2020-02-09T13:59:40Z</time>
      </trkpt>
      <trkpt lat="42.70121" lon="1.66007">
        <ele>1274.8</ele>
        <time>2020-02-09T13:59:50Z</time>
      </trkpt>
      <trkpt lat="42.70121" lon="1.66007">
        <ele>1274.8</ele>
        <time>2020-02-09T14:00:00Z</time>
      </trkpt>
      <trkpt lat="42.70121" lon="1.66007">
        <ele>1274.8</ele>
        <time>2020-02-09T14:00:10Z</time>
      </trkpt>
      <trkpt lat="42.70131" lon="1.66004">
        <ele>1274.8</ele>
        <time>2020-02-09T14:00:13Z</time>
      </trkpt>
      <trkpt lat="42.70131" lon="1.66004">
        <ele>1274.8</ele>
        <time>2020-02-09T14:00:20Z</time>
      </trkpt>
      <trkpt lat="42.70131" lon="1.66004">
        <ele>1274.8</ele>
        <time>2020-02-09T14:00:30Z</time>
      </trkpt>
      <trkpt lat="42.70139" lon="1.66">
        <ele>1273.7</ele>
        <time>2020-02-09T14:00:39Z</time>
      </trkpt>
      <trkpt lat="42.70139" lon="1.66">
        <ele>1273.7</ele>
        <time>2020-02-09T14:00:40Z</time>
      </trkpt>
      <trkpt lat="42.70139" lon="1.66">
        <ele>1273.7</ele>
        <time>2020-02-09T14:00:50Z</time>
      </trkpt>
      <trkpt lat="42.70139" lon="1.66013">
        <ele>1270.9</ele>
        <time>2020-02-09T14:00:56Z</time>
      </trkpt>
      <trkpt lat="42.70139" lon="1.66013">
        <ele>1270.9</ele>
        <time>2020-02-09T14:01:00Z</time>
      </trkpt>
      <trkpt lat="42.70139" lon="1.66013">
        <ele>1270.9</ele>
        <time>2020-02-09T14:01:10Z</time>
      </trkpt>
      <trkpt lat="42.70139" lon="1.66013">
        <ele>1270.9</ele>
        <time>2020-02-09T14:01:20Z</time>
      </trkpt>
      <trkpt lat="42.70139" lon="1.66013">
        <ele>1270.9</ele>
        <time>2020-02-09T14:01:30Z</time>
      </trkpt>
      <trkpt lat="42.70145" lon="1.66023">
        <ele>1269.1</ele>
        <time>2020-02-09T14:01:31Z</time>
      </trkpt>
      <trkpt lat="42.70145" lon="1.66023">
        <ele>1269.1</ele>
        <time>2020-02-09T14:01:40Z</time>
      </trkpt>
      <trkpt lat="42.70152" lon="1.66032">
        <ele>1265.6</ele>
        <time>2020-02-09T14:01:42Z</time>
      </trkpt>
      <trkpt lat="42.70152" lon="1.66032">
        <ele>1265.6</ele>
        <time>2020-02-09T14:01:50Z</time>
      </trkpt>
      <trkpt lat="42.70159" lon="1.6604">
        <ele>1262.9</ele>
        <time>2020-02-09T14:01:54Z</time>
      </trkpt>
      <trkpt lat="42.70159" lon="1.6604">
        <ele>1262.9</ele>
        <time>2020-02-09T14:02:00Z</time>
      </trkpt>
      <trkpt lat="42.70162" lon="1.66053">
        <ele>1260.1</ele>
        <time>2020-02-09T14:02:02Z</time>
      </trkpt>
      <trkpt lat="42.70162" lon="1.66053">
        <ele>1260.1</ele>
        <time>2020-02-09T14:02:10Z</time>
      </trkpt>
      <trkpt lat="42.7016" lon="1.66068">
        <ele>1255.4</ele>
        <time>2020-02-09T14:02:14Z</time>
      </trkpt>
      <trkpt lat="42.7016" lon="1.66068">
        <ele>1255.4</ele>
        <time>2020-02-09T14:02:20Z</time>
      </trkpt>
      <trkpt lat="42.70166" lon="1.66083">
        <ele>1251.3</ele>
        <time>2020-02-09T14:02:28Z</time>
      </trkpt>
      <trkpt lat="42.70169" lon="1.66085">
        <ele>1250.3</ele>
        <time>2020-02-09T14:02:30Z</time>
      </trkpt>
      <trkpt lat="42.70172" lon="1.66088">
        <ele>1249.3</ele>
        <time>2020-02-09T14:02:40Z</time>
      </trkpt>
      <trkpt lat="42.70176" lon="1.66091">
        <ele>1248.3</ele>
        <time>2020-02-09T14:02:41Z</time>
      </trkpt>
      <trkpt lat="42.70179" lon="1.66094">
        <ele>1247</ele>
        <time>2020-02-09T14:02:50Z</time>
      </trkpt>
      <trkpt lat="42.70182" lon="1.66096">
        <ele>1245.6</ele>
        <time>2020-02-09T14:02:54Z</time>
      </trkpt>
      <trkpt lat="42.70185" lon="1.66099">
        <ele>1244.2</ele>
        <time>2020-02-09T14:02:59Z</time>
      </trkpt>
      <trkpt lat="42.70188" lon="1.66102">
        <ele>1243.3</ele>
        <time>2020-02-09T14:03:00Z</time>
      </trkpt>
      <trkpt lat="42.70197" lon="1.66106">
        <ele>1241.6</ele>
        <time>2020-02-09T14:03:06Z</time>
      </trkpt>
      <trkpt lat="42.70197" lon="1.66106">
        <ele>1241.6</ele>
        <time>2020-02-09T14:03:10Z</time>
      </trkpt>
      <trkpt lat="42.70203" lon="1.66116">
        <ele>1240.4</ele>
        <time>2020-02-09T14:03:17Z</time>
      </trkpt>
      <trkpt lat="42.70203" lon="1.66116">
        <ele>1240.4</ele>
        <time>2020-02-09T14:03:20Z</time>
      </trkpt>
      <trkpt lat="42.70212" lon="1.66116">
        <ele>1238.6</ele>
        <time>2020-02-09T14:03:30Z</time>
      </trkpt>
      <trkpt lat="42.70217" lon="1.66127">
        <ele>1238.5</ele>
        <time>2020-02-09T14:03:37Z</time>
      </trkpt>
      <trkpt lat="42.70217" lon="1.66127">
        <ele>1238.5</ele>
        <time>2020-02-09T14:03:40Z</time>
      </trkpt>
      <trkpt lat="42.70223" lon="1.66115">
        <ele>1236.3</ele>
        <time>2020-02-09T14:03:46Z</time>
      </trkpt>
      <trkpt lat="42.70223" lon="1.66115">
        <ele>1236.3</ele>
        <time>2020-02-09T14:03:50Z</time>
      </trkpt>
      <trkpt lat="42.70226" lon="1.6612">
        <ele>1236.2</ele>
        <time>2020-02-09T14:04:00Z</time>
      </trkpt>
      <trkpt lat="42.70229" lon="1.66125">
        <ele>1236.1</ele>
        <time>2020-02-09T14:04:01Z</time>
      </trkpt>
      <trkpt lat="42.70232" lon="1.6613">
        <ele>1236</ele>
        <time>2020-02-09T14:04:08Z</time>
      </trkpt>
      <trkpt lat="42.70234" lon="1.66135">
        <ele>1236</ele>
        <time>2020-02-09T14:04:10Z</time>
      </trkpt>
      <trkpt lat="42.70242" lon="1.66141">
        <ele>1236</ele>
        <time>2020-02-09T14:04:16Z</time>
      </trkpt>
      <trkpt lat="42.70242" lon="1.66141">
        <ele>1236</ele>
        <time>2020-02-09T14:04:20Z</time>
      </trkpt>
      <trkpt lat="42.70247" lon="1.66151">
        <ele>1236.6</ele>
        <time>2020-02-09T14:04:28Z</time>
      </trkpt>
      <trkpt lat="42.70247" lon="1.66151">
        <ele>1236.6</ele>
        <time>2020-02-09T14:04:30Z</time>
      </trkpt>
      <trkpt lat="42.70239" lon="1.66164">
        <ele>1236.2</ele>
        <time>2020-02-09T14:04:37Z</time>
      </trkpt>
      <trkpt lat="42.70239" lon="1.66164">
        <ele>1236.2</ele>
        <time>2020-02-09T14:04:40Z</time>
      </trkpt>
      <trkpt lat="42.70244" lon="1.66177">
        <ele>1235.9</ele>
        <time>2020-02-09T14:04:45Z</time>
      </trkpt>
      <trkpt lat="42.70244" lon="1.66177">
        <ele>1235.9</ele>
        <time>2020-02-09T14:04:50Z</time>
      </trkpt>
      <trkpt lat="42.70244" lon="1.66177">
        <ele>1235.9</ele>
        <time>2020-02-09T14:05:00Z</time>
      </trkpt>
      <trkpt lat="42.70242" lon="1.6619">
        <ele>1236.2</ele>
        <time>2020-02-09T14:05:09Z</time>
      </trkpt>
      <trkpt lat="42.70242" lon="1.6619">
        <ele>1236.2</ele>
        <time>2020-02-09T14:05:10Z</time>
      </trkpt>
      <trkpt lat="42.7024" lon="1.66192">
        <ele>1236.2</ele>
        <time>2020-02-09T14:05:16Z</time>
      </trkpt>
      <trkpt lat="42.70239" lon="1.66194">
        <ele>1236.2</ele>
        <time>2020-02-09T14:05:20Z</time>
      </trkpt>
      <trkpt lat="42.70239" lon="1.66194">
        <ele>1236.2</ele>
        <time>2020-02-09T14:05:30Z</time>
      </trkpt>
      <trkpt lat="42.70245" lon="1.66184">
        <ele>1235.9</ele>
        <time>2020-02-09T14:05:36Z</time>
      </trkpt>
      <trkpt lat="42.70245" lon="1.66184">
        <ele>1235.9</ele>
        <time>2020-02-09T14:05:40Z</time>
      </trkpt>
      <trkpt lat="42.70242" lon="1.66197">
        <ele>1235.2</ele>
        <time>2020-02-09T14:05:43Z</time>
      </trkpt>
      <trkpt lat="42.70242" lon="1.66197">
        <ele>1235.2</ele>
        <time>2020-02-09T14:05:50Z</time>
      </trkpt>
      <trkpt lat="42.70252" lon="1.66206">
        <ele>1234</ele>
        <time>2020-02-09T14:05:57Z</time>
      </trkpt>
      <trkpt lat="42.70252" lon="1.66206">
        <ele>1234</ele>
        <time>2020-02-09T14:06:00Z</time>
      </trkpt>
      <trkpt lat="42.70266" lon="1.66197">
        <ele>1232.4</ele>
        <time>2020-02-09T14:06:01Z</time>
      </trkpt>
      <trkpt lat="42.7027" lon="1.66193">
        <ele>1231.8</ele>
        <time>2020-02-09T14:06:04Z</time>
      </trkpt>
      <trkpt lat="42.70274" lon="1.66189">
        <ele>1231.2</ele>
        <time>2020-02-09T14:06:08Z</time>
      </trkpt>
      <trkpt lat="42.70278" lon="1.66185">
        <ele>1230.6</ele>
        <time>2020-02-09T14:06:10Z</time>
      </trkpt>
      <trkpt lat="42.70285" lon="1.66176">
        <ele>1229.6</ele>
        <time>2020-02-09T14:06:11Z</time>
      </trkpt>
      <trkpt lat="42.70292" lon="1.66169">
        <ele>1228.5</ele>
        <time>2020-02-09T14:06:17Z</time>
      </trkpt>
      <trkpt lat="42.70292" lon="1.66169">
        <ele>1228.5</ele>
        <time>2020-02-09T14:06:20Z</time>
      </trkpt>
      <trkpt lat="42.703" lon="1.66176">
        <ele>1227.5</ele>
        <time>2020-02-09T14:06:26Z</time>
      </trkpt>
      <trkpt lat="42.703" lon="1.66176">
        <ele>1227.5</ele>
        <time>2020-02-09T14:06:30Z</time>
      </trkpt>
      <trkpt lat="42.70305" lon="1.66187">
        <ele>1226.3</ele>
        <time>2020-02-09T14:06:34Z</time>
      </trkpt>
      <trkpt lat="42.70315" lon="1.66191">
        <ele>1224.8</ele>
        <time>2020-02-09T14:06:40Z</time>
      </trkpt>
      <trkpt lat="42.70318" lon="1.66203">
        <ele>1223.4</ele>
        <time>2020-02-09T14:06:47Z</time>
      </trkpt>
      <trkpt lat="42.70318" lon="1.66203">
        <ele>1223.4</ele>
        <time>2020-02-09T14:06:50Z</time>
      </trkpt>
      <trkpt lat="42.70326" lon="1.66197">
        <ele>1222.5</ele>
        <time>2020-02-09T14:06:58Z</time>
      </trkpt>
      <trkpt lat="42.70326" lon="1.66197">
        <ele>1222.5</ele>
        <time>2020-02-09T14:07:00Z</time>
      </trkpt>
      <trkpt lat="42.70338" lon="1.66198">
        <ele>1221.8</ele>
        <time>2020-02-09T14:07:04Z</time>
      </trkpt>
      <trkpt lat="42.70341" lon="1.662">
        <ele>1221.3</ele>
        <time>2020-02-09T14:07:10Z</time>
      </trkpt>
      <trkpt lat="42.70344" lon="1.66201">
        <ele>1220.8</ele>
        <time>2020-02-09T14:07:11Z</time>
      </trkpt>
      <trkpt lat="42.70347" lon="1.66203">
        <ele>1220.5</ele>
        <time>2020-02-09T14:07:20Z</time>
      </trkpt>
      <trkpt lat="42.7035" lon="1.66205">
        <ele>1220.4</ele>
        <time>2020-02-09T14:07:21Z</time>
      </trkpt>
      <trkpt lat="42.70353" lon="1.66206">
        <ele>1220.4</ele>
        <time>2020-02-09T14:07:29Z</time>
      </trkpt>
      <trkpt lat="42.70356" lon="1.66208">
        <ele>1220.4</ele>
        <time>2020-02-09T14:07:30Z</time>
      </trkpt>
      <trkpt lat="42.70356" lon="1.66208">
        <ele>1220.4</ele>
        <time>2020-02-09T14:07:40Z</time>
      </trkpt>
      <trkpt lat="42.70365" lon="1.66202">
        <ele>1220.3</ele>
        <time>2020-02-09T14:07:41Z</time>
      </trkpt>
      <trkpt lat="42.70365" lon="1.66202">
        <ele>1220.3</ele>
        <time>2020-02-09T14:07:50Z</time>
      </trkpt>
      <trkpt lat="42.70376" lon="1.66204">
        <ele>1221.7</ele>
        <time>2020-02-09T14:07:51Z</time>
      </trkpt>
      <trkpt lat="42.70376" lon="1.66204">
        <ele>1221.7</ele>
        <time>2020-02-09T14:08:00Z</time>
      </trkpt>
      <trkpt lat="42.70376" lon="1.66204">
        <ele>1221.7</ele>
        <time>2020-02-09T14:08:10Z</time>
      </trkpt>
      <trkpt lat="42.70376" lon="1.66204">
        <ele>1221.7</ele>
        <time>2020-02-09T14:08:20Z</time>
      </trkpt>
      <trkpt lat="42.70376" lon="1.66204">
        <ele>1221.7</ele>
        <time>2020-02-09T14:08:30Z</time>
      </trkpt>
      <trkpt lat="42.70376" lon="1.66204">
        <ele>1221.7</ele>
        <time>2020-02-09T14:08:40Z</time>
      </trkpt>
      <trkpt lat="42.70376" lon="1.66204">
        <ele>1221.7</ele>
        <time>2020-02-09T14:08:50Z</time>
      </trkpt>
      <trkpt lat="42.70376" lon="1.66204">
        <ele>1221.7</ele>
        <time>2020-02-09T14:09:00Z</time>
      </trkpt>
      <trkpt lat="42.70376" lon="1.66204">
        <ele>1221.7</ele>
        <time>2020-02-09T14:09:10Z</time>
      </trkpt>
      <trkpt lat="42.70376" lon="1.66204">
        <ele>1221.7</ele>
        <time>2020-02-09T14:09:20Z</time>
      </trkpt>
      <trkpt lat="42.70376" lon="1.66204">
        <ele>1221.7</ele>
        <time>2020-02-09T14:09:30Z</time>
      </trkpt>
      <trkpt lat="42.70376" lon="1.66204">
        <ele>1221.7</ele>
        <time>2020-02-09T14:09:40Z</time>
      </trkpt>
    </trkseg>
  </trk>
</gpx>